[[{"header":{"parameterUnit":"m.s-1","parameterCategory":1,"la1":31.0,"la2":29.5877,"lo1":-88.7671,"lo2":-86.6584,"dy":0.0162,"dx":0.0185,"nx":115,"ny":88,"refTime":"2023-05-29T18:00:00:Z","depth":0,"parameterNumber":2,"parameterNumberName":"U-component_of_WINDS"},"data":[0.0,0.0,0.0,0.0,0.0,0.0,0.0,0.0,0.0,0.0,0.0,0.0,0.0,0.0,0.0,0.0,0.0,0.0,0.0,0.0,0.0,0.0,0.0,0.0,0.0,0.0,0.0,0.0,0.0,0.0,0.0,0.0,0.0,0.0,0.0,0.0,0.0,0.0,0.0,0.0,0.0,0.0,0.0,0.0,0.0,0.0,0.0,0.0,0.0,0.0,0.0,0.0,0.0,0.0,0.0,0.0,0.0,0.0,0.0,0.0,0.0,0.0,0.0,0.0,0.0,0.0,0.0,0.0,0.0,0.0,0.0,0.0,0.0,0.0,0.0,0.0,0.0,0.0,0.0,0.0,0.0,0.0,0.0,0.0,0.0,0.0,0.0,0.0,0.0,0.0,0.0,0.0,0.0,0.0,0.0,0.0,0.0,0.0,0.0,0.0,0.0,0.0,0.0,0.0,0.0,0.0,0.0,0.0,0.0,0.0,0.0,0.0,0.0,0.0,0.0,0.0,0.0,0.0,0.0,0.0,0.0,0.0,0.0,0.0,0.0,0.0,0.0,0.0,0.0,0.0,0.0,0.0,0.0,0.0,0.0,0.0,0.0,0.0,0.0,0.0,0.0,0.0,0.0,0.0,0.0,0.0,0.0,0.0,0.0,0.0,0.0,0.0,0.0,0.0,0.0,0.0,0.0,0.0,0.0,0.0,0.0,0.0,0.0,0.0,0.0,0.0,0.0,0.0,0.0,0.0,0.0,0.0,0.0,0.0,0.0,0.0,0.0,0.0,0.0,0.0,0.0,0.0,0.0,0.0,0.0,0.0,0.0,0.0,0.0,0.0,0.0,0.0,0.0,0.0,0.0,0.0,0.0,0.0,0.0,0.0,0.0,0.0,0.0,0.0,0.0,0.0,0.0,0.0,0.0,0.0,0.0,0.0,0.0,0.0,0.0,0.0,0.0,0.0,0.0,0.0,0.0,0.0,0.0,0.0,0.0,0.0,0.0,0.0,0.0,0.0,0.0,0.0,0.0,0.0,0.0,0.0,0.0,0.0,0.0,0.0,0.0,0.0,0.0,0.0,0.0,0.0,0.0,0.0,0.0,0.0,0.0,0.0,0.0,0.0,0.0,0.0,0.0,0.0,0.0,0.0,0.0,0.0,0.0,0.0,0.0,0.0,0.0,0.0,0.0,0.0,0.0,0.0,0.0,0.0,0.0,0.0,0.0,0.0,0.0,0.0,0.0,0.0,0.0,0.0,0.0,0.0,0.0,0.0,0.0,0.0,0.0,0.0,0.0,0.0,0.0,0.0,0.0,0.0,0.0,0.0,0.0,0.0,0.0,0.0,0.0,0.0,0.0,0.0,0.0,0.0,0.0,0.0,0.0,0.0,0.0,0.0,0.0,0.0,0.0,0.0,0.0,0.0,0.0,0.0,0.0,0.0,0.0,0.0,0.0,0.0,0.0,0.0,0.0,0.0,0.0,0.0,0.0,0.0,0.0,0.0,0.0,0.0,0.0,0.0,0.0,0.0,0.0,0.0,0.0,0.0,0.0,0.0,0.0,0.0,0.0,0.0,0.0,0.0,0.0,0.0,0.0,0.0,0.0,0.0,0.0,0.0,0.0,0.0,0.0,0.0,0.0,0.0,0.0,0.0,0.0,0.0,0.0,0.0,0.0,0.0,0.0,0.0,0.0,0.0,0.0,0.0,0.0,0.0,0.0,0.0,0.0,0.0,0.0,0.0,0.0,0.0,0.0,0.0,0.0,0.0,0.0,0.0,0.0,0.0,0.0,0.0,0.0,0.0,0.0,0.0,0.0,0.0,0.0,0.0,0.0,0.0,0.0,0.0,0.0,0.0,0.0,0.0,0.0,0.0,0.0,0.0,0.0,0.0,0.0,0.0,0.0,0.0,0.0,0.0,0.0,0.0,0.0,0.0,0.0,0.0,0.0,0.0,0.0,0.0,0.0,0.0,0.0,0.0,0.0,0.0,0.0,0.0,0.0,0.0,0.0,0.0,0.0,0.0,0.0,0.0,0.0,0.0,0.0,0.0,0.0,0.0,0.0,0.0,0.0,0.0,0.0,0.0,0.0,0.0,0.0,0.0,0.0,0.0,0.0,0.0,0.0,0.0,0.0,0.0,0.0,0.0,0.0,0.0,0.0,0.0,0.0,0.0,0.0,0.0,0.0,0.0,0.0,0.0,0.0,0.0,0.0,0.0,0.0,0.0,0.0,0.0,0.0,0.0,0.0,0.0,0.0,0.0,0.0,0.0,0.0,0.0,0.0,0.0,0.0,0.0,0.0,0.0,0.0,0.0,0.0,0.0,0.0,0.0,0.0,0.0,0.0,0.0,0.0,0.0,0.0,0.0,0.0,0.0,0.0,0.0,0.0,0.0,0.0,0.0,0.0,0.0,0.0,0.0,0.0,0.0,0.0,0.0,0.0,0.0,0.0,0.0,0.0,0.0,0.0,0.0,0.0,0.0,0.0,0.0,0.0,0.0,0.0,0.0,0.0,0.0,0.0,0.0,0.0,0.0,0.0,0.0,0.0,0.0,0.0,0.0,0.0,0.0,0.0,0.0,0.0,0.0,0.0,0.0,0.0,0.0,0.0,0.0,0.0,0.0,0.0,0.0,0.0,0.0,0.0,0.0,0.0,0.0,0.0,0.0,0.0,0.0,0.0,0.0,0.0,0.0,0.0,0.0,0.0,0.0,0.0,0.0,0.0,0.0,0.0,0.0,0.0,0.0,0.0,0.0,0.0,0.0,0.0,0.0,0.0,0.0,0.0,0.0,0.0,0.0,0.0,0.0,0.0,0.0,0.0,0.0,0.0,0.0,0.0,0.0,0.0,0.0,0.0,0.0,0.0,0.0,0.0,0.0,0.0,0.0,0.0,0.0,0.0,0.0,0.0,0.0,0.0,0.0,0.0,0.0,0.0,0.0,0.0,0.0,0.0,0.0,0.0,0.0,0.0,0.0,0.0,0.0,0.0,0.0,0.0,0.0,0.0,0.0,0.0,0.0,0.0,0.0,0.0,0.0,0.0,0.0,0.0,0.0,0.0,0.0,0.0,0.0,0.0,0.0,0.0,0.0,0.0,0.0,0.0,0.0,0.0,0.0,0.0,0.0,0.0,0.0,0.0,0.0,0.0,0.0,0.0,0.0,0.0,0.0,0.0,0.0,0.0,0.0,0.0,0.0,0.0,0.0,0.0,0.0,0.0,0.0,0.0,0.0,0.0,0.0,0.0,0.0,0.0,0.0,0.0,0.0,0.0,0.0,0.0,0.0,0.0,0.0,0.0,0.0,0.0,0.0,0.0,0.0,0.0,0.0,0.0,0.0,0.0,0.0,0.0,0.0,0.0,0.0,0.0,0.0,0.0,0.0,0.0,0.0,0.0,0.0,0.0,0.0,0.0,0.0,0.0,0.0,0.0,0.0,0.0,0.0,0.0,0.0,0.0,0.0,0.0,0.0,0.0,0.0,0.0,0.0,0.0,0.0,0.0,0.0,0.0,0.0,0.0,0.0,0.0,0.0,0.0,0.0,0.0,0.0,0.0,0.0,0.0,0.0,0.0,0.0,0.0,0.0,0.0,0.0,0.0,0.0,0.0,0.0,0.0,0.0,0.0,0.0,0.0,0.0,0.0,0.0,0.0,0.0,0.0,0.0,0.0,0.0,0.0,0.0,0.0,0.0,0.0,0.0,0.0,0.0,0.0,0.0,0.0,0.0,0.0,0.0,0.0,0.0,0.0,0.0,0.0,0.0,0.0,0.0,0.0,0.0,0.0,0.0,0.0,0.0,0.0,0.0,0.0,0.0,0.0,0.0,0.0,0.0,0.0,0.0,0.0,0.0,0.0,0.0,0.0,0.0,0.0,0.0,0.0,0.0,0.0,0.0,0.0,0.0,0.0,0.0,0.0,0.0,0.0,0.0,0.0,0.0,0.0,0.0,0.0,0.0,0.0,0.0,0.0,0.0,0.0,0.0,0.0,0.0,0.0,0.0,0.0,0.0,0.0,0.0,0.0,0.0,0.0,0.0,0.0,0.0,0.0,0.0,0.0,0.0,0.0,0.0,0.0,0.0,0.0,0.0,0.0,0.0,0.0,0.0,0.0,0.0,0.0,0.0,0.0,0.0,0.0,0.0,0.0,0.0,0.0,0.0,0.0,0.0,0.0,0.0,0.0,0.0,0.0,0.0,0.0,0.0,0.0,0.0,0.0,0.0,0.0,0.0,0.0,0.0,0.0,0.0,0.0,0.0,0.0,0.0,0.1382,0.0,0.0,0.0,0.0,0.0,0.0,0.0,0.0,0.0,0.0,0.0,0.0,0.0,0.0,0.0,0.0,0.0,0.0,0.0,0.0,0.0,0.0,0.0,0.0,0.0,0.0,0.0,0.0,0.0,0.0,0.0,0.0,0.0,0.0,0.0,0.0,0.0,0.0,0.0,0.0,0.0,0.0,0.0,0.0,0.0,0.0,0.0,0.0,0.0,0.0,0.0,0.0,0.0,0.0,0.0,0.0,0.0,0.0,0.0,0.0,0.0,0.0,0.0,0.0,0.0,0.0,0.0,0.0,0.0,0.0,0.0,0.0,0.0,0.0,0.0,0.0,0.0,0.0,0.0,0.0,0.0,0.0,0.0,0.0,0.0,0.0,0.0,0.0,0.0,0.0,0.0,0.0,0.0,0.0,0.0,0.0,0.0,0.0,0.0,0.0,0.0,0.0,0.0,0.0,0.0,0.0,0.0,0.0,0.0,0.0,0.1878,0.1803,0.1718,0.164,0.1574,0.0,0.0,0.0,0.0,0.0,0.0,0.0,0.0,0.0,0.0,0.0,0.0,0.0,0.0,0.0,0.0,0.0,0.0,0.0,0.0,0.0,0.0,0.0,0.0,0.0,0.0,0.0,0.0,0.0,0.0,0.0,0.0,0.0,0.0,0.0,0.0,0.0,0.0,0.0,0.0,0.0,0.0,0.0,0.0,0.0,0.0,0.0,0.0,0.0,0.0,0.0,0.0,0.0,0.0,0.0,0.0,0.0,0.0,0.0,0.0,0.0,0.0,0.0,0.0,0.0,0.0,0.0,0.0,0.0,0.0,0.0,0.0,0.0,0.0,0.0,0.0,0.0,0.0,0.0,0.0,0.0,0.0,0.0,0.0,0.0,0.0,0.0,0.0,0.0,0.0,0.0,0.0,0.0,0.0,0.0,0.0,0.0,0.0,0.0,0.0,0.0,0.0,0.0,0.0,0.0,0.0,0.0,0.0,0.0,0.0,0.0,0.0,0.1911,0.185,0.1774,0.0,0.0,0.0,0.0,0.0,0.0,0.0,0.0,0.0,0.0,0.0,0.0,0.0,0.0,0.0,0.0,0.0,0.0,0.0,0.0,0.0,0.0,0.0,0.0,0.0,0.0,0.0,0.0,0.0,0.0,0.0,0.0,0.0,0.0,0.0,0.0,0.0,0.0,0.0,0.0,0.0,0.0,0.0,0.0,0.0,0.0,0.0,0.0,0.0,0.0,0.0,0.0,0.0,0.0,0.0,0.0,0.0,0.0,0.0,0.0,0.0,0.0,0.0,0.0,0.0,0.0,0.0,0.0,0.0,0.0,0.0,0.0,0.0,0.0,0.0,0.0,0.0,0.0,0.0,0.0,0.0,0.0,0.0,0.0,0.0,0.0,0.0,0.0,0.0,0.0,0.0,0.0,0.0,0.0,0.0,0.0,0.0,0.0,0.0,0.0,0.0,0.0,0.0,0.0,0.0,0.0,0.0,0.0,0.0,0.0,0.2187,0.2177,0.2102,0.0,0.1971,0.0,0.0,0.0,0.0,0.0,0.0,0.0,0.0,0.0,0.0,0.0,0.0,0.0,0.0,0.0,0.0,0.0,0.0,0.0,0.0,0.0,0.0,0.0,0.0,0.0,0.0,0.0,0.0,0.0,0.0,0.0,0.0,0.0,0.0,0.0,0.0,0.0,0.0,0.0,0.0,0.0,0.0,0.0,0.0,0.0,0.0,0.0,0.0,0.0,0.0,0.0,0.0,0.0,0.0,0.0,0.0,0.0,0.0,0.0,0.0,0.0,0.0,0.0,0.0,0.0,0.0,0.0,0.0,0.0,0.0,0.0,0.0,0.0,0.0,0.0,0.0,0.0,0.0,0.0,0.0,0.0,0.0,0.0,0.0,0.0,0.0,0.0,0.0,0.0,0.0,0.0,0.0,0.0,0.0,0.0,0.0,0.0,0.0,0.0,0.0,0.0,0.0,0.0,0.0,0.0,0.0,0.0,0.0,0.0,0.0,0.227,0.2371,0.2273,0.2185,0.0,0.0,0.0,0.0,0.0,0.0,0.0,0.0,0.0,0.0,0.0,0.0,0.0,0.0,0.0,0.0,0.0,0.0,0.0,0.0,0.0,0.0,0.0,0.0,0.0,0.0,0.0,0.0,0.0,0.0,0.0,0.0,0.0,0.0,0.0,0.0,0.0,0.0,0.0,0.0,0.0,0.0,0.0,0.0,0.0,0.0,0.0,0.0,0.0,0.0,0.0,0.0,0.0,0.0,0.0,0.0,0.0,0.0,0.0,0.0,0.0,0.0,0.0,0.0,0.0,0.0,0.0,0.0,0.0,0.0,0.0,0.0,0.0,0.0,0.0,0.0,0.0,0.0,0.0,0.0,0.0,0.0,0.0,0.0,0.0,0.0,0.0,0.0,0.0,0.0,0.0,0.0,0.0,0.0,0.0,0.0,0.0,0.0,0.0,0.0,0.0,0.0,0.0,0.0,0.0,0.0,0.0,0.0,0.0,0.0,0.2201,0.2337,0.253,0.2431,0.2338,0.2295,0.0,0.0,0.0,0.0,0.0,0.0,0.0,0.0,0.0,0.0,0.0,0.0,0.0,0.0,0.0,0.0,0.0,0.0,0.0,0.0,0.0,0.0,0.0,0.0,0.0,0.0,0.0,0.0,0.0,0.0,0.0,0.0,0.0,0.0,0.0,0.0,0.0,0.0,0.0,0.0,0.0,0.0,0.0,0.0,0.0,0.0,0.0,0.0,0.0,0.0,0.0,0.0,0.0,0.0,0.0,0.0,0.0,0.0,0.0,0.0,0.0,0.0,0.0,0.0,0.0,0.0,0.0,0.0,0.0,0.0,0.0,0.0,0.0,0.0,0.0,0.0,0.0,0.0,0.0,0.0,0.0,0.0,0.0,0.0,0.0,0.0,0.0,0.0,0.0,0.0,0.0,0.0,0.0,0.0,0.0,0.0,0.0,0.0,0.0,0.0,0.0,0.0,0.0,0.0,0.0,0.0,0.0,0.0,0.2027,0.2201,0.2431,0.2681,0.2566,0.2495,0.0,0.0,0.0,0.0,0.0,0.0,0.0,0.0,0.0,0.0,0.0,0.0,0.0,0.0,0.0,0.0,0.0,0.0,0.0,0.0,0.0,0.0,0.0,0.0,0.0,0.0,0.0,0.0,0.0,0.0,0.0,0.0,0.0,0.0,0.0,0.0,0.0,0.0,0.0,0.0,0.0,0.0,0.0,0.0,0.0,0.0,0.0,0.0,0.0,0.0,0.0,0.0,0.0,0.0,0.0,0.0,0.0,0.0,0.0,0.0,0.0,0.0,0.0,0.0,0.0,0.0,0.0,0.0,0.0,0.0,0.0,0.0,0.0,0.0,0.0,0.0,0.0,0.0,0.0,0.0,0.0,0.0,0.0,0.0,0.0,0.0,0.0,0.0,0.0,0.0,0.0,0.0,0.0,0.0,0.0,0.0,0.0,0.0,0.0,0.0,0.0,0.0,0.0,0.0,0.0,0.0,0.0,0.0,0.0,0.1878,0.2237,0.251,0.2681,0.2659,0.2631,0.0,0.0,0.0,0.0,0.0,0.0,0.0,0.0,0.0,0.0,0.0,0.0,0.0,0.0,0.0,0.0,0.0,0.0,0.0,0.0,0.0,0.0,0.0,0.0,0.0,0.0,0.0,0.0,0.0,0.0,0.0,0.0,0.0,0.0,0.0,0.0,0.0,0.0,0.0,0.0,0.0,0.0,0.0,0.0,0.0,0.0,0.0,0.0,0.0,0.0,0.0,0.0,0.0,0.0,0.0,0.0,0.0,0.0,0.0,0.0,0.0,0.0,0.0,0.0,0.0,0.0,0.0,0.0,0.0,0.0,0.0,0.0,0.0,0.0,0.0,0.0,0.0,0.0,0.0,0.0,0.0,0.0,0.0,0.0,0.0,0.0,0.0,0.0,0.0,0.0,0.0,0.0,0.0,0.0,0.0,0.0,0.0,0.0,0.0,0.0,0.0,0.0,0.0,0.0,0.0,0.0,0.0,0.0,0.0,0.1958,0.0,0.2599,0.2757,0.2719,0.2686,0.0,0.0,0.0,0.0,0.0,0.0,0.0,0.0,0.0,0.0,0.0,0.0,0.0,0.0,0.0,0.0,0.0,0.0,0.0,0.0,0.0,0.0,0.0,0.0,0.0,0.0,0.0,0.0,0.0,0.0,0.0,0.0,0.0,0.0,0.0,0.0,0.0,0.0,0.0,0.0,0.0,0.0,0.0,0.0,0.0,0.0,0.0,0.0,0.0,0.0,0.0,0.0,0.0,0.0,0.0,0.0,0.0,0.0,0.0,0.0,0.0,0.0,0.0,0.0,0.0,0.0,0.0,0.0,0.0,0.0,0.0,0.0,0.0,0.0,0.0,0.0,0.0,0.0,0.0,0.0,0.0,0.0,0.0,0.0,0.0,0.0,0.0,0.0,0.0,0.0,0.0,0.0,0.0,0.0,0.0,0.0,0.0,0.0,0.0,0.0,0.0,0.0,0.0,0.0,0.0,0.0,0.0,0.0,0.1776,0.229,0.2513,0.2716,0.2902,0.2783,0.2713,0.0,0.0,0.0,0.0,0.0,0.0,0.0,0.0,0.0,0.0,0.0,0.0,0.0,0.0,0.0,0.0,0.0,0.0,0.0,0.0,0.0,0.0,0.0,0.0,0.0,0.0,0.0,0.0,0.0,0.0,0.0,0.0,0.0,0.0,0.0,0.0,0.0,0.0,0.0,0.0,0.0,0.0,0.0,0.0,0.0,0.0,0.0,0.0,0.0,0.0,0.0,0.0,0.0,0.0,0.0,0.0,0.0,0.0,0.0,0.0,0.0,0.0,0.0,0.0,0.0,0.0,0.0,0.0,0.0,0.0,0.0,0.0,0.0,0.0,0.0,0.0,0.0,0.0,0.0,0.0,0.0,0.0,0.0,0.0,0.0,0.0,0.0,0.0,0.0,0.0,0.0,0.0,0.0,0.0,0.0,0.0,0.0,0.0,0.0,0.0,0.0,0.0,0.0,0.0,0.0,0.0,0.0,0.0,0.0,0.2848,0.2905,0.3095,0.3425,0.3238,0.3085,0.0,0.0,0.0,0.0,0.0,0.0,0.0,0.0,0.0,0.0,0.0,0.0,0.0,0.0,0.0,0.0,0.0,0.0,0.0,0.0,0.0,0.0,0.0,0.0,0.0,0.0,0.0,0.0,0.0,0.0,0.0,0.0,0.0,0.0,0.0,0.0,0.0,0.0,0.0,0.0,0.0,0.0,0.0,0.0,0.0,0.0,0.0,0.0,0.0,0.0,0.0,0.0,0.0,0.0,0.0,0.0,0.0,0.0,0.0,0.0,0.0,0.0,0.0,0.0,0.0,0.0,0.0,0.0,0.0,0.0,0.0,0.0,0.0,0.0,0.0,0.0,0.0,0.0,0.0,0.0,0.0,0.0,0.0,0.0,0.0,0.0,0.0,0.0,0.0,0.0,0.0,0.0,0.0,0.0,0.0,0.0,0.0,0.0,0.0,0.0,0.0,0.0,0.0,0.0,0.0,0.0,0.0,0.0,0.0,0.3527,0.3509,0.3591,0.3778,0.3661,0.3536,0.3392,0.0,0.0,0.0,0.0,0.0,0.0,0.0,0.0,0.0,0.0,0.0,0.0,0.0,0.0,0.0,0.0,0.0,0.0,0.0,0.0,0.0,0.0,0.0,0.0,0.0,0.0,0.0,0.0,0.0,0.0,0.0,0.0,0.0,0.0,0.0,0.0,0.0,0.0,0.0,0.0,0.0,0.0,0.0,0.0,0.0,0.0,0.0,0.0,0.0,0.0,0.0,0.0,0.0,0.0,0.0,0.0,0.0,0.0,0.0,0.0,0.0,0.0,0.0,0.0,0.0,0.0,0.0,0.0,0.0,0.0,0.0,0.0,0.0,0.0,0.0,0.0,0.0,0.0,0.0,0.0,0.0,0.0,0.0,0.0,0.0,0.0,0.0,0.0,0.0,0.0,0.0,0.0,0.0,0.0,0.0,0.0,0.0,0.0,0.0,0.0,0.0,0.0,0.0,0.0,0.0,0.0,0.0,0.0,0.4307,0.4257,0.4138,0.398,0.4078,0.401,0.0,0.0,0.0,0.0,0.0,0.0,0.0,0.0,0.0,0.0,0.0,0.0,0.0,0.0,0.0,0.0,0.0,0.0,0.0,0.0,0.0,0.0,0.0,0.0,0.0,0.0,0.0,0.0,0.0,0.0,0.0,0.0,0.0,0.0,0.0,0.0,0.0,0.0,0.0,0.0,0.0,0.0,0.0,0.0,0.0,0.0,0.0,0.0,0.0,0.0,0.0,0.0,0.0,0.0,0.0,0.0,0.0,0.0,0.0,0.0,0.0,0.0,0.0,0.0,0.0,0.0,0.0,0.0,0.0,0.0,0.0,0.0,0.0,0.0,0.0,0.0,0.0,0.0,0.0,0.0,0.0,0.0,0.0,0.0,0.0,0.0,0.0,0.0,0.0,0.0,0.0,0.0,0.0,0.0,0.0,0.0,0.0,0.0,0.0,0.0,0.0,0.0,0.0,0.0,0.0,0.0,0.0,0.0,0.0,0.4629,0.4608,0.4644,0.4766,0.459,0.439,0.0,0.0,0.0,0.0,0.0,0.0,0.0,0.0,0.0,0.0,0.0,0.0,0.0,0.0,0.0,0.0,0.0,0.0,0.0,0.0,0.0,0.0,0.0,0.0,0.0,0.0,0.0,0.0,0.0,0.0,0.0,0.0,0.0,0.0,0.0,0.0,0.0,0.0,0.0,0.0,0.0,0.0,0.0,0.0,0.0,0.0,0.0,0.0,0.0,0.0,0.0,0.0,0.0,0.0,0.0,0.0,0.0,0.0,0.0,0.0,0.0,0.0,0.0,0.0,0.0,0.0,0.0,0.0,0.0,0.0,0.0,0.0,0.0,0.0,0.0,0.0,0.0,0.0,0.0,0.0,0.0,0.0,0.0,0.0,0.0,0.0,0.0,0.0,0.0,0.0,0.0,0.0,0.0,0.0,0.0,0.0,0.0,0.0,0.0,0.0,0.0,0.0,0.0,0.0,0.0,0.0,0.0,0.0,0.3824,0.4501,0.4709,0.4958,0.5256,0.5001,0.4678,0.0,0.0,0.0,0.0,0.0,0.0,0.0,0.0,0.0,0.0,0.0,0.0,0.0,0.0,0.0,0.0,0.0,0.0,0.0,0.0,0.0,0.0,0.0,0.0,0.0,0.0,0.0,0.0,0.0,0.0,0.0,0.0,0.0,0.0,0.0,0.0,0.0,0.0,0.0,0.0,0.0,0.0,0.0,0.0,0.0,0.0,0.0,0.0,0.0,0.0,0.0,0.0,0.0,0.0,0.0,0.0,0.0,0.0,0.0,0.0,0.0,0.0,0.0,0.0,0.0,0.0,0.0,0.0,0.0,0.0,0.0,0.0,0.0,0.0,0.0,0.0,0.0,0.0,0.0,0.0,0.0,0.0,0.0,0.0,0.0,0.0,0.0,0.0,0.0,0.0,0.0,0.0,0.0,0.0,0.0,0.0,0.0,0.0,0.0,0.0,0.0,0.0,0.0,0.0,0.0,0.0,0.0,0.0,0.3879,0.4163,0.4629,0.5062,0.5417,0.5272,0.4912,0.0,0.0,0.0,0.0,0.0,0.0,0.0,0.0,0.0,0.0,0.0,0.0,0.0,0.0,0.0,0.0,0.0,0.0,0.0,0.0,0.0,0.0,0.0,0.0,0.0,0.0,0.0,0.0,0.0,0.0,0.0,0.0,0.0,0.0,0.0,0.0,0.0,0.0,0.0,0.0,0.0,0.0,0.0,0.0,0.0,0.0,0.0,0.0,0.0,0.0,0.0,0.0,0.0,0.0,0.0,0.0,0.0,0.0,0.0,0.0,0.0,0.0,0.0,0.0,0.0,0.0,0.0,0.0,0.0,0.0,0.0,0.0,0.0,0.0,0.0,0.0,0.0,0.0,0.0,0.0,0.0,0.0,0.0,0.0,0.0,0.0,0.0,0.0,0.0,0.0,0.0,0.0,0.0,0.0,0.0,0.0,0.0,0.0,0.0,0.0,0.0,0.0,0.0,0.0,0.0,0.0,0.0,0.0,0.365,0.4609,0.4264,0.4369,0.5015,0.504,0.5044,0.0,0.0,0.0,0.0,0.0,0.0,0.0,0.0,0.0,0.0,0.0,0.0,0.0,0.0,0.0,0.0,0.0,0.0,0.0,0.0,0.0,0.0,0.0,0.0,0.0,0.0,0.0,0.0,0.0,0.0,0.0,0.0,0.0,0.0,0.0,0.0,0.0,0.0,0.0,0.0,0.0,0.0,0.0,0.0,0.0,0.0,0.0,0.0,0.4156,0.0,0.0,0.0,0.0,0.0,0.0,0.0,0.0,0.0,0.0,0.0,0.0,0.0,0.0,0.0,0.0,0.0,0.0,0.0,0.0,0.0,0.0,0.0,0.0,0.0,0.0,0.0,0.0,0.0,0.0,0.0,0.0,0.0,0.0,0.0,0.0,0.0,0.0,0.0,0.0,0.0,0.0,0.0,0.0,0.0,0.0,0.0,0.0,0.0,0.0,0.0,0.0,0.0,0.0,0.0,0.0,0.0,0.0,0.0,0.3299,0.401,0.3983,0.4265,0.4909,0.5134,0.5048,0.0,0.0,0.0,0.0,0.0,0.0,0.0,0.0,0.0,0.0,0.0,0.0,0.0,0.0,0.0,0.0,0.0,0.0,0.0,0.0,0.0,0.0,0.0,0.0,0.0,0.0,0.0,0.0,0.0,0.0,0.0,0.0,0.0,0.0,0.0,0.0,0.0,0.0,0.0,0.0,0.0,0.0,0.0,0.0,0.0,0.0,0.0,0.0,0.0,0.0,0.0,0.0,0.0,0.0,0.0,0.0,0.0,0.0,0.0,0.0,0.0,0.0,0.0,0.0,0.0,0.0,0.0,0.0,0.0,0.0,0.0,0.0,0.0,0.0,0.0,0.0,0.0,0.0,0.0,0.0,0.0,0.0,0.0,0.0,0.0,0.0,0.0,0.0,0.0,0.0,0.0,0.0,0.0,0.0,0.0,0.0,0.0,0.0,0.0,0.0,0.0,0.0,0.0,0.0,0.0,0.0,0.0,0.2788,0.3012,0.3236,0.3735,0.4287,0.4887,0.5227,0.4947,0.406,0.0,0.0,0.0,0.0,0.0,0.0,0.0,0.0,0.0,0.0,0.0,0.0,0.0,0.0,0.0,0.0,0.0,0.0,0.0,0.0,0.0,0.0,0.0,0.0,0.0,0.0,0.0,0.0,0.0,0.0,0.0,0.0,0.0,0.0,0.0,0.0,0.0,0.0,0.3791,0.416,0.0,0.0,0.0,0.0,0.0,0.0,0.0,0.0,0.3916,0.0,0.0,0.0,0.0,0.0,0.0,0.0,0.0,0.0,0.0,0.0,0.0,0.0,0.0,0.0,0.0,0.0,0.0,0.0,0.0,0.0,0.0,0.0,0.0,0.0,0.0,0.0,0.0,0.0,0.0,0.0,0.0,0.0,0.0,0.0,0.0,0.0,0.0,0.0,0.0,0.0,0.0,0.0,0.0,0.0,0.0,0.0,0.0,0.0,0.0,0.0,0.0,0.0,0.0,0.0,0.0,0.2837,0.2872,0.3014,0.328,0.343,0.3815,0.4396,0.4745,0.4782,0.4519,0.0,0.0,0.0,0.0,0.0,0.0,0.0,0.0,0.0,0.0,0.0,0.0,0.0,0.0,0.0,0.0,0.0,0.0,0.0,0.0,0.0,0.0,0.0,0.0,0.0,0.0,0.0,0.0,0.0,0.0,0.0,0.0,0.0,0.0,0.0,0.0,0.0,0.0,0.0,0.4218,0.4334,0.0,0.0,0.0,0.0,0.0,0.0,0.0,0.0,0.3505,0.0,0.0,0.0,0.0,0.0,0.0,0.0,0.0,0.0,0.0,0.0,0.0,0.0,0.0,0.0,0.0,0.0,0.0,0.0,0.0,0.0,0.0,0.0,0.0,0.0,0.0,0.0,0.0,0.0,0.0,0.0,0.0,0.0,0.0,0.0,0.0,0.0,0.0,0.0,0.0,0.0,0.0,0.0,0.0,0.0,0.0,0.0,0.0,0.0,0.0,0.0,0.0,0.0,0.0,0.0,0.2738,0.275,0.2856,0.3087,0.3395,0.3699,0.3987,0.4489,0.4663,0.0,0.0,0.0,0.0,0.0,0.0,0.0,0.0,0.0,0.0,0.0,0.0,0.0,0.0,0.0,0.0,0.0,0.0,0.0,0.0,0.0,0.0,0.0,0.0,0.0,0.0,0.0,0.0,0.0,0.0,0.0,0.0,0.0,0.0,0.0,0.0,0.0,0.0,0.0,0.0,0.4136,0.4194,0.4058,0.0,0.0,0.0,0.0,0.0,0.0,0.3858,0.3951,0.0,0.0,0.0,0.0,0.0,0.0,0.0,0.0,0.0,0.0,0.0,0.0,0.0,0.0,0.0,0.0,0.0,0.0,0.0,0.0,0.0,0.0,0.0,0.0,0.0,0.0,0.0,0.0,0.0,0.0,0.0,0.0,0.0,0.0,0.0,0.0,0.0,0.0,0.0,0.0,0.0,0.0,0.0,0.0,0.0,0.0,0.0,0.0,0.0,0.0,0.0,0.0,0.0,0.0,0.0,0.2624,0.2595,0.269,0.2873,0.3312,0.3595,0.3695,0.4165,0.4362,0.0,0.0,0.0,0.0,0.0,0.0,0.0,0.0,0.0,0.0,0.0,0.0,0.0,0.0,0.0,0.0,0.0,0.0,0.0,0.0,0.0,0.0,0.0,0.0,0.0,0.0,0.0,0.0,0.0,0.0,0.0,0.0,0.0,0.0,0.0,0.0,0.0,0.0,0.0,0.0,0.0,0.4139,0.4073,0.4172,0.0,0.0,0.0,0.0,0.4117,0.4177,0.0,0.0,0.0,0.0,0.0,0.0,0.0,0.0,0.0,0.0,0.0,0.0,0.0,0.0,0.0,0.0,0.0,0.0,0.0,0.0,0.0,0.0,0.0,0.0,0.0,0.0,0.0,0.0,0.0,0.0,0.0,0.0,0.0,0.0,0.0,0.0,0.0,0.0,0.0,0.0,0.0,0.0,0.0,0.0,0.0,0.0,0.0,0.0,0.0,0.0,0.0,0.0,0.0,0.0,0.0,0.0,0.269,0.2624,0.2648,0.2744,0.2955,0.3251,0.359,0.351,0.3628,0.0,0.0,0.0,0.0,0.0,0.0,0.0,0.0,0.0,0.0,0.0,0.0,0.0,0.0,0.0,0.0,0.0,0.0,0.0,0.0,0.0,0.0,0.0,0.0,0.0,0.0,0.0,0.0,0.0,0.0,0.0,0.0,0.0,0.0,0.0,0.0,0.0,0.0,0.0,0.0,0.0,0.433,0.4271,0.4523,0.4646,0.0,0.0,0.363,0.4475,0.3991,0.0,0.0,0.0,0.0,0.0,0.0,0.0,0.0,0.0,0.0,0.0,0.0,0.0,0.0,0.0,0.0,0.0,0.0,0.0,0.0,0.0,0.0,0.0,0.0,0.0,0.0,0.0,0.0,0.0,0.0,0.0,0.0,0.0,0.0,0.0,0.0,0.0,0.0,0.0,0.0,0.0,0.0,0.0,0.0,0.0,0.0,0.0,0.0,0.0,0.0,0.0,0.0,0.0,0.0,0.0,0.2545,0.2636,0.2576,0.2593,0.2701,0.2785,0.2631,0.2183,0.249,0.2548,0.0,0.0,0.0,0.0,0.0,0.0,0.0,0.0,0.0,0.0,0.0,0.0,0.0,0.0,0.0,0.0,0.0,0.0,0.0,0.0,0.0,0.0,0.0,0.0,0.0,0.0,0.0,0.0,0.0,0.0,0.0,0.0,0.0,0.0,0.0,0.0,0.0,0.0,0.0,0.0,0.0,0.0,0.4504,0.4577,0.0,0.0,0.0,0.4237,0.4639,0.0,0.0,0.0,0.0,0.0,0.0,0.0,0.0,0.0,0.0,0.0,0.0,0.0,0.0,0.0,0.0,0.0,0.0,0.0,0.0,0.0,0.0,0.0,0.0,0.0,0.0,0.0,0.0,0.0,0.0,0.0,0.0,0.0,0.0,0.0,0.0,0.0,0.0,0.0,0.0,0.0,0.0,0.0,0.0,0.0,0.0,0.0,0.0,0.0,0.0,0.0,0.0,0.0,0.0,0.0,0.0,0.0,0.2543,0.2481,0.2506,0.2603,0.2636,0.2259,0.1437,0.1662,0.0,0.0,0.0,0.0,0.0,0.0,0.0,0.0,0.0,0.0,0.0,0.0,0.0,0.0,0.0,0.0,0.0,0.0,0.0,0.0,0.0,0.0,0.0,0.0,0.0,0.0,0.0,0.2832,0.0,0.0,0.0,0.0,0.0,0.0,0.0,0.0,0.0,0.0,0.0,0.0,0.0,0.0,0.4485,0.4654,0.4651,0.4621,0.0,0.0,0.4852,0.4837,0.4924,0.5029,0.0,0.0,0.0,0.0,0.0,0.0,0.0,0.0,0.0,0.0,0.0,0.0,0.0,0.0,0.0,0.0,0.0,0.0,0.0,0.0,0.0,0.0,0.0,0.0,0.0,0.0,0.0,0.0,0.0,0.0,0.0,0.0,0.0,0.0,0.0,0.0,0.0,0.0,0.0,0.0,0.0,0.0,0.0,0.0,0.0,0.0,0.0,0.0,0.0,0.0,0.0,0.0,0.0,0.0,0.0,0.2409,0.234,0.2324,0.2332,0.246,0.2415,0.221,0.1244,0.1058,0.0,0.0,0.0,0.0,0.0,0.0,0.0,0.0,0.0,0.0,0.0,0.0,0.0,0.0,0.0,0.0,0.0,0.0,0.0,0.0,0.0,0.0,0.0,0.0,0.0,0.0,0.0,0.0,0.0,0.0,0.0,0.0,0.0,0.0,0.0,0.0,0.0,0.0,0.0,0.0,0.0,0.4732,0.463,0.4825,0.5007,0.0,0.0,0.5026,0.5151,0.5058,0.5007,0.5018,0.0,0.0,0.0,0.0,0.0,0.0,0.0,0.0,0.0,0.0,0.0,0.0,0.0,0.0,0.0,0.0,0.0,0.0,0.0,0.0,0.0,0.0,0.0,0.0,0.0,0.0,0.0,0.0,0.0,0.0,0.0,0.0,0.0,0.0,0.0,0.0,0.0,0.0,0.0,0.0,0.0,0.0,0.0,0.0,0.0,0.0,0.0,0.0,0.0,0.0,0.0,0.0,0.0,0.2394,0.2342,0.2323,0.2287,0.2287,0.2348,0.2034,0.1334,0.0636,0.0289,0.0,0.0,0.0,0.0,0.0,0.0,0.0,0.0,0.0,0.0,0.0,0.0,0.0,0.0,0.0,0.0,0.0,0.0,0.0,0.0,0.0,0.0,0.0,0.0,0.0,0.0,0.0,0.0,0.0558,0.05,0.0982,0.0,0.0,0.0,0.0,0.0,0.0,0.0,0.0,0.0,0.0,0.4246,0.4288,0.4318,0.0,0.0,0.4408,0.4561,0.4535,0.4644,0.4764,0.4753,0.467,0.0,0.0,0.0,0.0,0.0,0.0,0.0,0.0,0.0,0.0,0.0,0.0,0.0,0.0,0.0,0.0,0.0,0.0,0.0,0.0,0.0,0.0,0.0,0.0,0.0,0.0,0.0,0.0,0.0,0.0,0.0,0.0,0.0,0.0,0.0,0.0,0.0,0.0,0.0,0.0,0.0,0.0,0.0,0.0,0.0,0.0,0.0,0.0,0.0,0.0,0.0,0.0,0.2412,0.2355,0.2369,0.2375,0.2344,0.2321,0.1803,0.0734,0.0085,-0.0472,0.0,0.0,0.0,0.0,0.0,0.0,0.0,0.0,0.0,0.0,0.0,0.0,0.0,0.0,0.0,0.0,0.0,0.0,0.0,0.0,0.0,0.0,0.0,0.0,0.0,0.0,0.0,0.0,0.0108,0.025,0.1189,0.0,0.0,0.0,0.0,0.0,0.0,0.0,0.0,0.0,0.0,0.3833,0.3884,0.3807,0.3722,0.3686,0.3965,0.4184,0.4162,0.4355,0.4487,0.4402,0.0,0.0,0.0,0.0,0.0,0.0,0.0,0.0,0.0,0.0,0.0,0.0,0.0,0.0,0.0,0.0,0.0,0.0,0.0,0.0,0.0,0.0,0.0,0.0,0.0,0.0,0.0,0.0,0.0,0.0,0.2438,0.0,0.0,0.0,0.0,0.0,0.0,0.0,0.0,0.0,0.0,0.0,0.0,0.0,0.0,0.0,0.0,0.0,0.0,0.0,0.0,0.0,0.0,0.2496,0.2501,0.2483,0.2486,0.2493,0.2364,0.1805,0.077,-0.045,-0.1232,-0.159,0.0,0.0,0.0,0.0,0.0,0.0,0.0,0.0,0.0,0.0,0.0,0.0,0.0,0.0,0.0,0.0,0.0,0.0,0.0,0.0,0.0,0.0,0.0,0.0,0.0,0.0,0.0789,0.0494,0.0617,0.0,0.0,0.0,0.0,0.0,0.0,0.0,0.0,0.0,0.0,0.3527,0.3547,0.3422,0.3404,0.3517,0.3803,0.3891,0.3979,0.4228,0.4287,0.4228,0.0,0.0,0.0,0.0,0.0,0.0,0.0,0.0,0.0,0.0,0.0,0.0,0.0,0.0,0.0,0.0,0.0,0.0,0.0,0.0,0.0,0.0,0.0,0.0,0.0,0.0,0.0,0.2111,0.2102,0.0,0.0,0.0,0.0,0.0,0.0,0.0,0.0,0.0,0.0,0.0,0.3104,0.3072,0.0,0.0,0.0,0.0,0.0,0.0,0.0,0.0,0.0,0.0,0.0,0.0,0.25,0.2504,0.2501,0.2501,0.2501,0.2465,0.2268,0.1897,-0.0102,-0.1695,-0.2824,0.0,0.0,0.0,0.0,0.0,0.0,0.0,0.0,0.0,0.0,0.0,0.0,0.0,0.0,0.0,0.0,0.0,0.0,0.0,0.0,0.0,0.0,0.0,0.0,0.0,0.0375,0.0,0.0,0.0,0.0,0.0,0.0,0.0,0.0,0.0,0.0,0.0,0.3109,0.2962,0.2967,0.2982,0.2937,0.2937,0.2882,0.0,0.0,0.0,0.0,0.0,0.0,0.0,0.0,0.0,0.0,0.0,0.0,0.0,0.0,0.451,0.4674,0.4615,0.4537,0.4534,0.0,0.0,0.0,0.0,0.0,0.0,0.0,0.0,0.0,0.0,0.0,0.0,0.0,0.0,0.161,0.0,0.1615,0.0,0.0,0.0,0.0,0.0,0.0,0.0,0.0,0.3053,0.3114,0.3205,0.3205,0.3205,0.0,0.3161,0.3048,0.0,0.0,0.0,0.0,0.0,0.0,0.0,0.0,0.2506,0.2504,0.2587,0.2649,0.2629,0.2588,0.2392,0.1994,-0.0437,-0.2236,-0.3229,-0.3027,-0.2416,0.0,0.0,0.0,0.0,0.0,0.0,0.0,0.0,0.0,0.0,0.0,0.0,0.0,0.0,0.0,0.0,0.0,0.0,0.0,0.0,0.0,0.0,0.0,-0.0167,0.0,0.0,0.0,0.0,0.0,0.0,0.0,0.0,0.0,0.31,0.2869,0.2646,0.2519,0.2473,0.2475,0.2509,0.0,0.0,0.0,0.0,0.0,0.0,0.0,0.3461,0.3396,0.3147,0.2995,0.3158,0.3633,0.4007,0.4053,0.0,0.0,0.4314,0.4256,0.415,0.4156,0.4149,0.4161,0.4149,0.4161,0.4149,0.0,0.0,0.0,0.0,0.0,0.0,0.0,0.0,0.0772,0.0692,0.0,0.074,0.0,0.0,0.0,0.0,0.0,0.2446,0.0,0.0,0.3048,0.3143,0.3128,0.3123,0.3153,0.316,0.3032,0.2979,0.2996,0.2977,0.0,0.0,0.0,0.0,0.0,0.0,0.2495,0.2521,0.2726,0.2876,0.2893,0.2759,0.2186,0.1101,-0.1314,-0.2643,-0.2758,-0.3418,-0.3597,-0.3045,-0.1717,0.0,0.0,0.0,0.0,0.0,0.0,0.0,0.0,0.0,0.0,0.0,0.0,0.0,0.0,0.0,0.0,0.0,0.0,0.0,0.0,-0.0209,0.0,0.0,0.0,0.0,0.0,0.0,0.0,0.0,0.0,0.0,0.2747,0.2708,0.2526,0.2146,0.0,0.0,0.0,0.0,0.2122,0.2433,0.277,0.3018,0.3127,0.3112,0.3013,0.2816,0.0,0.0,0.2555,0.3232,0.3714,0.3601,0.3576,0.3673,0.4005,0.3945,0.3892,0.3893,0.3899,0.3886,0.3895,0.39,0.3906,0.1343,0.0,0.0,0.0,0.0,0.0812,0.06,0.0552,0.0437,0.04,0.0444,0.042,0.0,0.0,0.0,0.0,0.0,0.0,0.1689,0.1869,0.19,0.1923,0.1915,0.191,0.2137,0.254,0.2529,0.2667,0.2988,0.2662,0.2535,0.257,0.0,0.0,0.0,0.0,0.2162,0.2734,0.249,0.2515,0.2898,0.2865,0.2188,0.0866,0.027,-0.0495,-0.1461,-0.1594,-0.1833,-0.2217,-0.1446,0.0,0.0,0.0,0.0,0.0,0.0,0.0,0.0,0.0,0.0,0.0,0.0,0.0,0.0,0.0,0.0,0.0,0.0,0.0,0.0844,-0.05,-0.0807,0.0,0.0,0.0,0.0,0.0,0.0,0.0,0.0,0.0,0.2272,0.2233,0.2152,0.0,0.0,0.2185,0.225,0.2203,0.2164,0.2224,0.2466,0.0,0.2438,0.2561,0.2655,0.2592,0.2475,0.2408,0.2516,0.2801,0.3071,0.3218,0.3085,0.3044,0.332,0.3469,0.3581,0.3656,0.3682,0.3698,0.3679,0.3682,0.3682,0.0812,0.1355,0.106,0.0865,0.0697,0.0275,0.0066,0.0013,-0.0164,-0.0176,-0.0105,-0.0171,-0.0065,0.0126,0.0239,0.0,0.0,0.0,0.1144,0.1311,0.1433,0.1484,0.1474,0.1524,0.1747,0.2102,0.2046,0.2163,0.2453,0.2083,0.191,0.1936,0.0,0.0,0.1941,0.1638,0.1734,0.2235,0.2168,0.2266,0.2582,0.2785,0.2477,0.1606,0.1176,0.0551,-0.0285,-0.0741,-0.1157,-0.1532,-0.1558,-0.148,0.0,0.0,0.0,0.0,0.0,0.0,0.0,0.0,0.0,0.0,0.0,0.1463,0.1491,0.0,0.0,0.0,-0.0036,0.0243,-0.0068,-0.0648,0.0,0.0,0.0,0.0,0.0,0.0,0.0,0.2666,0.23,0.2054,0.213,0.2043,0.1978,0.1931,0.199,0.2072,0.2164,0.0,0.2046,0.2062,0.2265,0.2355,0.2214,0.228,0.2346,0.2235,0.232,0.2394,0.2382,0.2565,0.2758,0.287,0.28,0.2745,0.2912,0.3039,0.3192,0.337,0.3516,0.3599,0.3599,0.3599,0.3599,0.0279,0.0275,0.0285,0.0249,0.0135,-0.0265,-0.0446,-0.0489,-0.0838,-0.0897,-0.0736,-0.0862,-0.0695,-0.0332,-0.0089,0.0,0.0319,0.0566,0.0815,0.1081,0.1323,0.1454,0.1454,0.1566,0.1651,0.1691,0.1584,0.1544,0.1576,0.1389,0.1205,0.1075,0.1164,0.1161,0.1109,0.1176,0.1254,0.1321,0.1754,0.2021,0.2119,0.2626,0.2898,0.2876,0.1597,0.0827,0.0661,-0.0549,-0.1174,-0.1066,-0.1937,-0.2132,-0.1445,0.0,0.0,0.0,0.0,0.0,0.0,0.0,0.0,0.0,0.0,0.0,0.0,0.0,0.0,0.0,-0.1817,0.0,-0.1465,-0.0463,0.0,0.0,0.0,0.2372,0.2667,0.2631,0.256,0.2498,0.0,0.0,0.2174,0.2065,0.1942,0.182,0.18,0.1857,0.1983,0.1909,0.1852,0.1978,0.2129,0.2256,0.2218,0.2189,0.2088,0.1888,0.2006,0.2156,0.2184,0.2382,0.2607,0.2663,0.2635,0.2635,0.2649,0.2671,0.2745,0.2963,0.3302,0.353,0.3499,0.3502,0.353,-0.0662,-0.0678,-0.0673,-0.0474,-0.0224,-0.0662,-0.0865,-0.0855,-0.0954,-0.098,-0.0937,-0.0966,-0.0901,-0.0753,-0.0678,-0.0574,-0.0438,-0.0386,-0.0235,-0.0028,0.0042,0.007,0.0084,0.0098,0.0336,0.0714,0.0848,0.1092,0.1421,0.1134,0.0929,0.0784,0.0468,0.0572,0.1055,0.0774,0.0875,0.1377,0.1151,0.1385,0.2077,0.2615,0.2898,0.2898,0.2571,0.1844,0.0761,0.0374,-0.0273,-0.1276,-0.2386,-0.2707,-0.2026,-0.2391,0.0,0.0,0.0,0.0,0.0,0.0,0.0,0.0,0.0,0.0248,0.0214,0.0,-0.1313,0.0,-0.1786,-0.0898,0.1541,0.1037,0.0,0.0,0.2512,0.2807,0.2779,0.2588,0.2405,0.2273,0.2066,0.1925,0.1979,0.1935,0.1901,0.1813,0.1883,0.197,0.1984,0.193,0.1882,0.1915,0.1925,0.1926,0.1938,0.1912,0.188,0.1811,0.1853,0.188,0.1894,0.1964,0.2076,0.2256,0.2146,0.2116,0.2282,0.2324,0.2338,0.242,0.2838,0.3146,0.2968,0.3079,0.3232,-0.1043,-0.1043,-0.1043,-0.0898,-0.0673,-0.0903,-0.0999,-0.1043,-0.1043,-0.1036,-0.1007,-0.101,-0.0979,-0.0947,-0.0945,-0.0894,-0.0835,-0.085,-0.0741,-0.0616,-0.0487,-0.0427,-0.0393,-0.028,-0.007,0.0224,0.0336,0.0527,0.0749,0.0585,0.0469,0.0375,0.0129,0.0201,0.057,0.0361,0.0412,0.0774,0.0728,0.1163,0.2066,0.239,0.2626,0.2798,0.2762,0.2264,0.1308,0.1233,0.0776,-0.0122,-0.1391,-0.1909,-0.156,-0.2151,-0.2128,0.0,0.0,0.0,0.0,0.0,0.0,0.0,0.0,0.0,0.0,0.0,-0.0806,-0.0352,-0.057,0.0153,0.2342,0.1966,0.1884,0.2601,0.2768,0.2774,0.268,0.2425,0.2208,0.2047,0.1893,0.1817,0.1838,0.1856,0.1841,0.1806,0.1847,0.1909,0.1911,0.1889,0.1857,0.1858,0.1817,0.1797,0.1797,0.1797,0.1797,0.1797,0.1797,0.1797,0.1797,0.1797,0.1852,0.1976,0.1895,0.1839,0.199,0.2018,0.2032,0.2088,0.238,0.2673,0.2719,0.291,0.3119,-0.1092,-0.1092,-0.1092,-0.1092,-0.1107,-0.1033,-0.1037,-0.1092,-0.1092,-0.1062,-0.1004,-0.1007,-0.1009,-0.1009,-0.1005,-0.1003,-0.1003,-0.1003,-0.0974,-0.0904,-0.0667,-0.0526,-0.0454,-0.024,-0.0113,-0.0113,-0.0098,-0.0098,-0.0098,-0.007,-0.0041,-0.0013,-0.004,-0.004,-0.0025,-0.0049,-0.0047,0.0,0.0472,0.1107,0.1921,0.2021,0.2237,0.2576,0.2506,0.2226,0.1762,0.162,0.1454,0.1196,-0.0133,-0.0772,-0.0585,-0.1523,-0.1768,0.0,-0.044,0.0,0.0,0.0,0.0,0.0,0.0,0.0,0.0,-0.0228,0.0265,0.1353,0.114,0.1314,0.219,0.2572,0.2824,0.2914,0.2759,0.2613,0.2467,0.2262,0.2032,0.1818,0.1797,0.1797,0.1794,0.1797,0.1797,0.1797,0.1806,0.1813,0.1807,0.1806,0.1806,0.1797,0.1797,0.1797,0.1797,0.1797,0.1797,0.1797,0.1797,0.1797,0.1797,0.1797,0.1797,0.1811,0.1811,0.1811,0.1797,0.1811,0.1811,0.1825,0.2018,0.2254,0.2495,0.2742,0.2977,-0.1092,-0.1092,-0.1092,-0.1092,-0.1092,-0.1103,-0.1104,-0.1092,-0.1092,-0.1106,-0.1066,-0.1021,-0.1009,-0.1007,-0.1015,-0.1003,-0.1003,-0.1003,-0.1001,-0.098,-0.0918,-0.09,-0.0878,-0.0768,-0.073,-0.0729,-0.0625,-0.0561,-0.0575,-0.0407,-0.0266,-0.018,-0.0264,-0.0273,-0.0172,0.0,0.0,0.0,0.0455,0.0839,0.1129,0.1612,0.1949,0.2118,0.2152,0.0,0.0455,0.0355,0.0311,0.0222,-0.1084,0.0,0.0,0.0,0.0,0.0,0.0,0.0,0.0,0.0,0.0,0.0,0.118,0.0798,-0.0379,0.064,0.1628,0.2213,0.2291,0.2558,0.3094,0.3211,0.3208,0.3075,0.303,0.2806,0.2329,0.2203,0.2088,0.1822,0.1797,0.1797,0.1797,0.1797,0.1797,0.1797,0.1797,0.1797,0.18,0.1798,0.1797,0.1797,0.1797,0.1797,0.1797,0.1797,0.1797,0.1797,0.1797,0.1797,0.1797,0.1797,0.1797,0.1797,0.1797,0.1797,0.1797,0.1797,0.1797,0.1797,0.1839,0.1894,0.1965,0.2186,0.2462,-0.1361,0.0,-0.116,-0.1092,0.0,-0.1092,-0.1092,-0.1092,-0.1092,-0.1092,-0.1091,-0.106,-0.1038,-0.1053,-0.1054,-0.1047,-0.1047,-0.1031,-0.104,-0.0995,-0.0931,-0.0909,-0.0911,-0.076,-0.0709,-0.0693,-0.0643,-0.0618,-0.0603,-0.0452,-0.0364,-0.0308,-0.0364,-0.0361,-0.03,-0.0362,-0.0324,-0.0196,0.0036,0.0309,0.0606,0.0891,0.1272,0.1727,0.1715,0.0,0.0,0.0,0.0,0.0,0.0,0.0,0.0,-0.047,0.0,0.0268,0.0345,0.0423,0.0645,0.0766,0.0645,0.0164,0.0972,0.1373,0.1041,0.1998,0.2689,0.2912,0.3051,0.3252,0.3469,0.3352,0.3209,0.3095,0.2838,0.2533,0.2252,0.2073,0.195,0.1839,0.1797,0.1797,0.1797,0.1797,0.1797,0.1797,0.1797,0.1809,0.1844,0.1815,0.1797,0.1797,0.1797,0.1797,0.1797,0.1797,0.1797,0.1797,0.1797,0.1797,0.1797,0.1797,0.1797,0.1797,0.1797,0.1797,0.1797,0.1797,0.1797,0.1797,0.1797,0.1797,0.1811,0.2004,0.2254,-0.1664,-0.158,-0.1311,-0.116,-0.1092,-0.1092,-0.1092,-0.1092,0.0,0.0,0.0,-0.1092,-0.1092,-0.1092,-0.1092,-0.1092,-0.1092,-0.1092,-0.1063,-0.1009,-0.0895,-0.0835,-0.0847,-0.0655,-0.0591,-0.0591,-0.0588,-0.0592,-0.0574,-0.0516,-0.048,-0.0463,-0.0477,-0.0491,-0.049,-0.049,-0.049,-0.0489,-0.0431,-0.0202,0.0176,0.0227,0.0554,0.1236,0.1249,0.1249,0.1312,0.1337,0.1262,0.1046,0.1021,0.092,0.0718,0.0604,0.0655,0.0933,0.1146,0.0954,0.0225,0.0475,0.0238,-0.0726,0.0649,0.1914,0.2755,0.3208,0.3446,0.342,0.3539,0.3571,0.3502,0.3272,0.3049,0.2951,0.2503,0.2198,0.2128,0.1936,0.1811,0.1798,0.1822,0.1812,0.183,0.1826,0.1843,0.183,0.1852,0.1842,0.1877,0.1865,0.1816,0.1817,0.1822,0.1797,0.1797,0.1797,0.1797,0.1797,0.1797,0.1797,0.1797,0.1797,0.1797,0.1797,0.1797,0.1797,0.1797,0.1797,0.1797,0.1797,0.1797,0.1797,0.1825,0.1978,0.2128,-0.1918,-0.158,-0.1547,-0.1361,-0.1092,-0.1092,-0.1092,-0.1092,-0.1092,-0.1092,-0.1092,-0.1092,-0.1092,-0.1092,-0.1092,-0.1092,-0.1092,-0.1092,-0.1107,-0.1087,-0.1069,-0.1051,-0.1045,-0.0973,-0.0931,-0.0928,-0.0934,-0.0893,-0.0856,-0.0836,-0.0779,-0.0689,-0.0771,-0.0813,-0.0827,-0.0823,-0.0833,-0.0814,-0.0547,-0.034,-0.0214,-0.0113,0.0063,0.0302,0.0732,0.0946,0.0983,0.1338,0.154,0.1501,0.1501,0.1476,0.1413,0.0503,0.0476,0.1652,0.0928,0.0826,0.1835,0.1998,0.1999,0.1971,0.2299,0.2739,0.3247,0.346,0.3572,0.3575,0.3561,0.3485,0.3218,0.3105,0.288,0.2436,0.2268,0.21,0.1895,0.1828,0.1787,0.1774,0.1841,0.1869,0.1786,0.188,0.1906,0.1943,0.1844,0.1948,0.1854,0.1922,0.1888,0.1878,0.1827,0.1801,0.1797,0.1797,0.1797,0.1797,0.1797,0.1797,0.1797,0.1797,0.1797,0.1797,0.1797,0.1797,0.1797,0.1797,0.1783,0.1769,0.1755,0.1797,0.1727,0.1741,0.188,-0.253,-0.2302,-0.1881,-0.1617,-0.1457,-0.1211,-0.109,-0.1092,-0.1092,-0.1092,-0.1092,-0.1092,-0.1092,-0.1092,-0.1092,-0.1092,-0.1092,-0.1092,-0.1092,-0.1092,-0.1092,-0.1092,-0.1091,-0.1079,-0.104,-0.1054,-0.1011,-0.0982,-0.0938,-0.0922,-0.0884,-0.0829,-0.0869,-0.0883,-0.0883,-0.0883,-0.0883,-0.0882,-0.0747,-0.0656,-0.0628,-0.0561,-0.0388,-0.008,0.0187,0.0535,0.1003,0.1217,0.1432,0.1699,0.1714,0.1701,0.1687,0.1187,0.1188,0.1834,0.1521,0.1505,0.1991,0.2178,0.2286,0.2337,0.2597,0.2841,0.3051,0.3221,0.3274,0.3151,0.3246,0.3218,0.2926,0.2715,0.2505,0.2212,0.2088,0.1936,0.1829,0.1841,0.1743,0.1488,0.148,0.1401,0.1117,0.1374,0.1417,0.1234,0.1373,0.1514,0.1214,0.1414,0.1663,0.184,0.1834,0.1801,0.1783,0.1797,0.1797,0.1797,0.1797,0.1797,0.1797,0.1797,0.1783,0.1797,0.1797,0.1797,0.1783,0.1797,0.1713,0.1487,0.1656,0.1628,0.1234,0.1038,0.1233,-0.306,-0.2932,-0.2332,-0.1987,-0.1765,-0.132,-0.1114,-0.1103,-0.1103,-0.1099,-0.1092,-0.1092,-0.1092,-0.1092,-0.1092,-0.1092,-0.1092,-0.1092,-0.1092,-0.1092,-0.1092,-0.1092,-0.1092,-0.1092,-0.1092,-0.1107,-0.1053,-0.1008,-0.0989,-0.0934,-0.0919,-0.0901,-0.0883,-0.0883,-0.0883,-0.0883,-0.0883,-0.0883,-0.0883,-0.0883,-0.0883,-0.0883,-0.0715,-0.0393,-0.0252,0.0112,0.0751,0.0879,0.1163,0.1589,0.1632,0.1685,0.1798,0.1797,0.1797,0.1811,0.199,0.2026,0.1857,0.2026,0.2161,0.2163,0.2443,0.2626,0.265,0.283,0.2894,0.2766,0.2931,0.2922,0.2639,0.2387,0.2193,0.2137,0.1857,0.1654,0.1668,0.1613,0.1427,0.1015,0.0993,0.0856,0.0608,0.0783,0.0882,0.065,0.0835,0.0893,0.0583,0.0852,0.122,0.1459,0.1527,0.1434,0.1473,0.1445,0.1431,0.1487,0.1459,0.1389,0.1403,0.1445,0.1473,0.1417,0.1431,0.1389,0.1445,0.1445,0.1304,0.1038,0.1192,0.122,0.0645,0.0491,0.0575,-0.3283,-0.3023,-0.2903,-0.2461,-0.1787,-0.1363,-0.1163,-0.1101,-0.11,-0.1101,-0.1095,-0.1092,-0.1092,-0.1092,-0.1092,-0.1092,-0.1092,-0.1092,-0.1092,-0.1092,-0.1092,-0.1092,-0.1092,-0.1092,-0.1092,-0.1092,-0.1088,-0.1057,-0.1005,-0.0998,-0.0953,-0.0904,-0.0883,-0.0883,-0.0883,-0.0883,-0.0883,-0.0883,-0.0883,-0.0883,-0.0883,-0.0883,-0.0883,-0.0827,-0.0421,-0.0199,-0.0102,0.0235,0.0689,0.1115,0.1174,0.1376,0.1723,0.1798,0.1798,0.18,0.1828,0.1847,0.19,0.1985,0.2012,0.2017,0.2019,0.2038,0.2055,0.228,0.2564,0.2655,0.2749,0.2616,0.2312,0.2215,0.2063,0.1818,0.1481,0.1267,0.1188,0.0827,0.0522,0.0477,0.0457,0.0449,0.0337,0.0408,0.0498,0.0413,0.0464,0.0499,0.0365,0.0462,0.054,0.0608,0.057,0.0549,0.0589,0.0533,0.0659,0.0631,0.0575,0.0631,0.0687,0.0659,0.0561,0.0799,0.0645,0.0659,0.0631,0.0533,0.0589,0.0519,0.0533,0.0491,0.0393,0.0322,0.0393,-0.3598,-0.3446,-0.3161,-0.2588,-0.1793,-0.1361,-0.1194,-0.1165,-0.1128,-0.1096,-0.1101,-0.1101,-0.1092,-0.1092,-0.1092,-0.1092,-0.1092,-0.1092,-0.1092,-0.1092,-0.1092,-0.1092,-0.1092,-0.1092,-0.1092,-0.1092,-0.1092,-0.1062,-0.0991,-0.0953,-0.0922,-0.09,-0.0883,-0.0883,-0.0883,-0.0883,-0.0883,-0.0883,-0.0883,-0.0883,-0.0883,-0.0883,-0.0883,-0.0872,-0.07,-0.0508,-0.0324,-0.0105,0.0197,0.0666,0.0984,0.1233,0.1426,0.1751,0.193,0.1917,0.1915,0.1941,0.1948,0.1697,0.1524,0.154,0.1237,0.1059,0.106,0.1188,0.1314,0.1417,0.1817,0.1951,0.1648,0.1366,0.1134,0.1015,0.0812,0.0725,0.0709,0.0517,0.0301,0.0,-0.0032,-0.0149,-0.0397,-0.0467,-0.0319,-0.0084,0.0017,-0.0067,-0.0352,-0.0144,-0.0077,-0.0306,-0.0366,-0.0113,0.0224,0.0393,0.0378,0.0393,0.0393,0.0393,0.0364,0.0393,0.0407,0.0378,0.0336,0.0336,0.0449,0.0378,0.035,0.0154,-0.0224,-0.0294,-0.0014,-0.0168,-0.0322,-0.3724,-0.3528,-0.3022,-0.2389,-0.1798,-0.1396,-0.1225,-0.1197,-0.1155,-0.1124,-0.1114,-0.1144,-0.1118,-0.1132,-0.1118,-0.1092,-0.1092,-0.1092,-0.1092,-0.1092,-0.1092,-0.1092,-0.1092,-0.1092,-0.1092,-0.1092,-0.1092,-0.1062,-0.1004,-0.0937,-0.0892,-0.0885,-0.0883,-0.0883,-0.0883,-0.0883,-0.0883,-0.0883,-0.0883,-0.0883,-0.0884,-0.0892,-0.0882,-0.0898,-0.0925,-0.0794,-0.0514,-0.0494,-0.0281,0.0156,0.0562,0.0901,0.1201,0.1586,0.1848,0.199,0.202,0.1949,0.1809,0.1462,0.1167,0.1011,0.0629,0.044,0.0441,0.0481,0.0482,0.0506,0.0814,0.0991,0.0956,0.0621,0.0406,0.039,0.0314,0.0206,0.0206,0.0113,-0.0196,-0.0523,-0.0547,-0.0655,-0.0991,-0.1041,-0.089,-0.0588,-0.0538,-0.0622,-0.0951,-0.0706,-0.0571,-0.0923,-0.0922,-0.0648,-0.0084,-0.0028,0.0042,0.0056,-0.0014,-0.0028,0.0056,0.0028,0.0028,-0.0196,-0.0014,0.0014,-0.0126,-0.007,0.0014,-0.0322,-0.0617,-0.0743,-0.0463,-0.0687,-0.0771,-0.353,-0.3041,-0.2293,-0.1978,-0.1858,-0.1468,-0.1277,-0.119,-0.1187,-0.119,-0.1184,-0.1196,-0.1179,-0.1191,-0.1139,-0.1094,-0.1094,-0.1114,-0.1115,-0.1098,-0.1097,-0.1094,-0.1092,-0.1092,-0.1093,-0.1096,-0.1093,-0.1063,-0.1007,-0.0927,-0.0882,-0.0886,-0.0886,-0.0884,-0.0883,-0.0883,-0.0883,-0.0883,-0.0883,-0.0883,-0.0887,-0.0882,-0.0895,-0.0914,-0.0955,-0.0967,-0.0943,-0.095,-0.0774,-0.0387,-0.0274,0.0159,0.1038,0.1204,0.1453,0.1874,0.2013,0.1833,0.1403,0.1233,0.1017,0.0601,0.0417,0.0435,0.0317,0.0335,0.0335,0.0452,0.0033,0.0,0.0314,0.027,0.0273,0.0257,-0.0033,-0.025,-0.0267,-0.0632,-0.0988,-0.1038,-0.0989,-0.1008,-0.1092,-0.1092,-0.1092,-0.1008,-0.1041,-0.1059,-0.1051,-0.0993,-0.0962,-0.0962,-0.0955,-0.0855,-0.0813,-0.0631,-0.0687,-0.0659,-0.0547,-0.0715,-0.0813,-0.0841,-0.0785,-0.0757,-0.0659,-0.0645,-0.0771,-0.0785,-0.0715,-0.0785,-0.0771,-0.0785,-0.0673,-0.0701,-0.0733,-0.3509,-0.3061,-0.251,-0.2136,-0.1861,-0.1472,-0.127,-0.1258,-0.1219,-0.1187,-0.1193,-0.1193,-0.1184,-0.1184,-0.118,-0.1169,-0.1151,-0.117,-0.1169,-0.1169,-0.1169,-0.1169,-0.1167,-0.1114,-0.1105,-0.1102,-0.1101,-0.1072,-0.1002,-0.0971,-0.0941,-0.0902,-0.0884,-0.0889,-0.0887,-0.0883,-0.0883,-0.0884,-0.0883,-0.0883,-0.0888,-0.0884,-0.0922,-0.0957,-0.1001,-0.1006,-0.1001,-0.1035,-0.0994,-0.0845,-0.053,-0.0165,0.0228,0.057,0.0831,0.1011,0.107,0.0993,0.0778,0.0451,0.0202,0.0,-0.0353,-0.047,-0.0521,-0.0521,-0.0521,-0.0538,-0.0655,-0.0697,-0.0625,-0.056,-0.0562,-0.058,-0.0701,-0.0789,-0.084,-0.0991,-0.1092,-0.1092,-0.1092,-0.1092,-0.1092,-0.1092,-0.1092,-0.1092,-0.1092,-0.1092,-0.1083,-0.1042,-0.1003,-0.0994,-0.0953,-0.0883,-0.0883,-0.0869,-0.0869,-0.0869,-0.0855,-0.0827,-0.0883,-0.0883,-0.0827,-0.0813,-0.0883,-0.0883,-0.0855,-0.0841,-0.0869,-0.0869,-0.0869,-0.0786,-0.0799,-0.0682,-0.0604,-0.3393,-0.3041,-0.2529,-0.2136,-0.1843,-0.1453,-0.1317,-0.1314,-0.1254,-0.1226,-0.1241,-0.1223,-0.1233,-0.1233,-0.1233,-0.1234,-0.123,-0.1213,-0.1184,-0.1184,-0.1184,-0.1184,-0.118,-0.1136,-0.1104,-0.1099,-0.1107,-0.1061,-0.1002,-0.1013,-0.0988,-0.0929,-0.0919,-0.0889,-0.0886,-0.0889,-0.0887,-0.0881,-0.0884,-0.0916,-0.0928,-0.0927,-0.0951,-0.0988,-0.1032,-0.1031,-0.1048,-0.1083,-0.1092,-0.1059,-0.0756,-0.047,-0.0286,0.0202,0.0487,0.0487,0.0504,0.0403,0.0235,-0.0101,-0.0353,-0.0554,-0.0857,-0.1092,-0.1092,-0.1092,-0.1092,-0.1092,-0.1092,-0.1092,-0.1092,-0.1075,-0.1092,-0.1092,-0.1092,-0.1092,-0.1092,-0.1092,-0.1092,-0.1092,-0.1092,-0.1092,-0.1092,-0.1092,-0.1092,-0.1092,-0.1092,-0.1092,-0.1085,-0.1043,-0.1003,-0.0998,-0.095,-0.0905,-0.0884,-0.0884,-0.0884,-0.0883,-0.0883,-0.0883,-0.0883,-0.0883,-0.0883,-0.0883,-0.0883,-0.0883,-0.0869,-0.0855,-0.0841,-0.0827,-0.0731,-0.0605,-0.0598,-0.0565,-0.047,-0.316,-0.3048,-0.2256,-0.1965,-0.1849,-0.1478,-0.1318,-0.1296,-0.1314,-0.1292,-0.1289,-0.1291,-0.1306,-0.1291,-0.1304,-0.1292,-0.1279,-0.1236,-0.1213,-0.1213,-0.1211,-0.121,-0.121,-0.1146,-0.1108,-0.1102,-0.1091,-0.1079,-0.1006,-0.1002,-0.1002,-0.0973,-0.0948,-0.0906,-0.0884,-0.0906,-0.0903,-0.0908,-0.0899,-0.0956,-0.0986,-0.0992,-0.0991,-0.1,-0.1056,-0.1103,-0.1107,-0.1092,-0.1092,-0.1092,-0.1076,-0.084,-0.0386,0.0101,0.0437,0.0353,0.0403,0.0185,-0.0235,-0.0336,-0.0605,-0.0907,-0.1076,-0.1092,-0.1092,-0.1092,-0.1092,-0.1092,-0.1092,-0.1092,-0.1092,-0.1092,-0.1092,-0.1092,-0.1092,-0.1092,-0.1092,-0.1092,-0.1092,-0.1092,-0.1092,-0.1092,-0.1092,-0.1092,-0.1092,-0.1092,-0.1092,-0.1092,-0.1088,-0.1046,-0.1011,-0.0996,-0.0947,-0.0898,-0.089,-0.0884,-0.0884,-0.0883,-0.0883,-0.0883,-0.0883,-0.0883,-0.0883,-0.0883,-0.0841,-0.0827,-0.0799,-0.0771,-0.0687,-0.0645,-0.0535,-0.0454,-0.0419,-0.0383,-0.0286,-0.4075,-0.375,-0.2791,-0.221,-0.1929,-0.1509,-0.1317,-0.1317,-0.1317,-0.1317,-0.1317,-0.1317,-0.1317,-0.1317,-0.1317,-0.1317,-0.1295,-0.1275,-0.1267,-0.1265,-0.1266,-0.1265,-0.1241,-0.1197,-0.1161,-0.1104,-0.109,-0.1089,-0.1065,-0.1063,-0.1048,-0.099,-0.0978,-0.0963,-0.096,-0.0965,-0.0951,-0.0972,-0.0959,-0.098,-0.1004,-0.1013,-0.1013,-0.1,-0.1026,-0.1055,-0.1091,-0.1092,-0.1092,-0.1092,-0.1092,-0.1025,-0.084,-0.0706,-0.0622,-0.0605,-0.0605,-0.0638,-0.0806,-0.0823,-0.0908,-0.1076,-0.1092,-0.1092,-0.1092,-0.1093,-0.1093,-0.1093,-0.1092,-0.1092,-0.1092,-0.1092,-0.1092,-0.1092,-0.1092,-0.1092,-0.1092,-0.1092,-0.1092,-0.1092,-0.1092,-0.1092,-0.1092,-0.1092,-0.1092,-0.109,-0.109,-0.109,-0.1068,-0.1007,-0.1005,-0.0999,-0.0937,-0.0843,-0.0812,-0.0793,-0.0801,-0.0825,-0.0849,-0.0856,-0.0869,-0.0855,-0.0855,-0.0813,-0.0771,-0.0743,-0.0729,-0.0645,-0.0547,-0.0491,-0.0421,-0.0343,-0.0264,-0.021,-0.0153,-0.5063,-0.4857,-0.4024,-0.349,-0.3135,-0.2628,-0.2175,-0.1848,-0.1772,-0.1571,-0.1355,-0.1317,-0.1317,-0.1317,-0.1317,-0.1317,-0.1317,-0.1317,-0.1317,-0.1317,-0.1317,-0.1317,-0.1292,-0.1245,-0.1187,-0.1144,-0.1136,-0.1121,-0.1093,-0.1091,-0.1094,-0.1053,-0.1023,-0.1008,-0.1005,-0.101,-0.1007,-0.1003,-0.1005,-0.101,-0.1034,-0.1036,-0.1029,-0.1031,-0.1033,-0.1058,-0.1091,-0.1092,-0.1092,-0.1092,-0.1092,-0.1092,-0.1092,-0.1076,-0.1092,-0.1092,-0.1092,-0.1092,-0.1092,-0.1059,-0.1099,-0.1106,-0.1092,-0.1116,-0.1121,-0.1119,-0.1092,-0.1092,-0.1099,-0.1092,-0.1092,-0.1092,-0.1092,-0.1092,-0.1092,-0.1092,-0.1092,-0.1092,-0.1092,-0.1092,-0.1092,-0.1092,-0.1092,-0.1092,-0.1087,-0.1064,-0.101,-0.0977,-0.0956,-0.0873,-0.0852,-0.0814,-0.0727,-0.068,-0.0689,-0.0697,-0.0702,-0.0752,-0.0801,-0.0806,-0.0813,-0.0785,-0.0771,-0.0645,-0.0575,-0.0575,-0.0547,-0.0449,-0.035,-0.0308,0.0,0.0,0.0,0.0,0.0,-0.6078,-0.6177,-0.5681,-0.5241,-0.4973,-0.4417,-0.3607,-0.2854,-0.2542,-0.2069,-0.1557,-0.1357,-0.1317,-0.1317,-0.1317,-0.1317,-0.1317,-0.1317,-0.1317,-0.1317,-0.1317,-0.1317,-0.1312,-0.1245,-0.1196,-0.1191,-0.1199,-0.1166,-0.1125,-0.1123,-0.1108,-0.1079,-0.1041,-0.1006,-0.1017,-0.1008,-0.1012,-0.1017,-0.102,-0.1031,-0.1101,-0.1105,-0.1105,-0.1106,-0.1106,-0.1106,-0.1092,-0.1092,-0.1092,-0.1092,-0.1092,-0.1092,-0.1092,-0.1092,-0.1092,-0.1092,-0.1092,-0.1095,-0.1094,-0.11,-0.1112,-0.112,-0.1124,-0.1117,-0.1169,-0.1136,-0.112,-0.1098,-0.1096,-0.1097,-0.1094,-0.1092,-0.1092,-0.1092,-0.1092,-0.1092,-0.1092,-0.1092,-0.1092,-0.1092,-0.1092,-0.1092,-0.1059,-0.1059,-0.1015,-0.0936,-0.0849,-0.0785,-0.0766,-0.068,-0.0541,-0.0521,-0.0552,-0.0561,-0.0587,-0.0547,-0.057,-0.0594,-0.0658,-0.0674,-0.0692,-0.0662,-0.0645,-0.0519,-0.0407,-0.0407,-0.0364,-0.0266,-0.021,-0.0182,0.0,0.0,0.0,0.0,0.0,-0.6829,-0.6854,-0.5941,-0.5469,-0.5227,-0.4749,-0.4275,-0.3735,-0.2983,-0.2588,-0.2204,-0.1582,-0.1336,-0.1317,-0.1317,-0.1317,-0.1317,-0.1317,-0.1317,-0.1317,-0.1317,-0.1317,-0.1291,-0.1227,-0.119,-0.1198,-0.12,-0.118,-0.1173,-0.1173,-0.1138,-0.1092,-0.1084,-0.1085,-0.1082,-0.1072,-0.1073,-0.108,-0.1064,-0.1066,-0.1106,-0.1092,-0.1092,-0.1092,-0.1092,-0.1092,-0.1092,-0.1092,-0.1092,-0.1092,-0.1092,-0.1092,-0.1092,-0.1092,-0.1092,-0.1092,-0.1094,-0.1103,-0.1103,-0.1091,-0.1123,-0.1168,-0.1172,-0.1194,-0.1182,-0.1178,-0.1143,-0.111,-0.1094,-0.1099,-0.1099,-0.1092,-0.1092,-0.1092,-0.1092,-0.1092,-0.1092,-0.1092,-0.1092,-0.1092,-0.1092,-0.1026,-0.0926,-0.0858,-0.0821,-0.0699,-0.063,-0.058,-0.0558,-0.0526,-0.0406,-0.0474,-0.0506,-0.0499,-0.0492,-0.0436,-0.0415,-0.0427,-0.045,-0.0469,-0.0475,-0.0469,-0.0451,-0.0407,-0.0294,-0.0266,-0.021,-0.014,-0.0098,0.0,0.0,0.0,0.0,0.0,0.0,-0.7668,-0.7732,-0.7119,-0.6682,-0.6365,-0.6008,-0.5475,-0.4779,-0.409,-0.3302,-0.2682,-0.208,-0.161,-0.1317,-0.1317,-0.1317,-0.1317,-0.1317,-0.1317,-0.1317,-0.1317,-0.1317,-0.1292,-0.1256,-0.125,-0.1249,-0.1232,-0.1217,-0.1188,-0.1186,-0.1169,-0.1145,-0.114,-0.1125,-0.1097,-0.1095,-0.1105,-0.1094,-0.1092,-0.1092,-0.1092,-0.1092,-0.1092,-0.1092,-0.1092,-0.1092,-0.1092,-0.1092,-0.1092,-0.1092,-0.1092,-0.1092,-0.1092,-0.1092,-0.1092,-0.1092,-0.1103,-0.1104,-0.1101,-0.1132,-0.1172,-0.1196,-0.1185,-0.1211,-0.1237,-0.1214,-0.1175,-0.1146,-0.1131,-0.1126,-0.11,-0.1101,-0.1093,-0.1092,-0.1092,-0.1092,-0.1092,-0.1092,-0.1059,-0.1009,-0.0959,-0.0892,-0.0708,-0.0674,-0.062,-0.0531,-0.0477,-0.0412,-0.0363,-0.0332,0.0,0.0,0.0,0.0,0.0,0.0,0.0,0.0,0.0,0.0,-0.0304,0.0,0.0,0.0,0.0,0.0,0.0,0.0,0.0,0.0,0.0,0.0,0.0,0.0,0.0,-0.8435,-0.8616,-0.859,-0.8318,-0.7822,-0.767,-0.6825,-0.588,-0.5288,-0.4266,-0.3087,-0.2615,-0.1983,-0.1317,-0.1317,-0.1317,-0.1317,-0.1317,-0.1317,-0.1317,-0.1317,-0.1317,-0.1316,-0.1293,-0.1291,-0.1291,-0.1316,-0.1259,-0.1221,-0.1217,-0.12,-0.1196,-0.1189,-0.1173,-0.1132,-0.1125,-0.1109,-0.1106,-0.1103,-0.1098,-0.1094,-0.1092,-0.1092,-0.1093,-0.1101,-0.1106,-0.1125,-0.1125,-0.1124,-0.1103,-0.1099,-0.1103,-0.1103,-0.1104,-0.1122,-0.1128,-0.1131,-0.111,-0.1118,-0.1161,-0.1202,-0.1209,-0.1216,-0.1226,-0.1279,-0.1247,-0.1213,-0.1182,-0.1186,-0.1176,-0.113,-0.112,-0.1112,-0.1113,-0.1125,-0.1103,-0.1101,-0.1099,-0.1014,-0.0812,-0.0779,-0.0711,-0.0557,-0.0471,-0.0452,-0.0333,-0.0281,-0.0248,-0.0199,-0.0166,0.0,0.0,0.0,0.0,0.0,0.0,0.0,0.0,0.0,0.0,0.0,0.0,0.0,0.0,0.0,0.0,0.0,0.0,0.0,0.0,0.0,0.0,0.0,0.0,0.0,-0.8575,-0.8616,-0.8616,-0.8344,-0.7915,-0.7859,-0.7378,-0.6566,-0.5761,-0.4749,-0.372,-0.2872,-0.2061,-0.1317,-0.1317,-0.1317,-0.1317,-0.1318,-0.1317,-0.1317,-0.1317,-0.1317,-0.1318,-0.1321,-0.1318,-0.1317,-0.1317,-0.1293,-0.1286,-0.1261,-0.1251,-0.1206,-0.12,-0.1187,-0.1179,-0.1173,-0.1142,-0.1117,-0.1094,-0.11,-0.1101,-0.1099,-0.1099,-0.11,-0.11,-0.1141,-0.1178,-0.1183,-0.1183,-0.1177,-0.1127,-0.1123,-0.1154,-0.1159,-0.1158,-0.1178,-0.1167,-0.1166,-0.1187,-0.1198,-0.1233,-0.1259,-0.1263,-0.1289,-0.1294,-0.1291,-0.1254,-0.12,-0.1186,-0.1207,-0.1161,-0.1187,-0.1177,-0.1174,-0.1157,-0.116,-0.1178,-0.1125,-0.0939,-0.073,-0.0729,-0.0742,-0.0389,-0.0354,-0.0285,-0.015,0.0,0.0,0.0,0.0,0.0,0.0,0.0,0.0,0.0,0.0,0.0,0.0,0.0,0.0,0.0,0.0,0.0,0.0,0.0,0.0,0.0,0.0,0.0,0.0,0.0,0.0,0.0,0.0,0.0,-0.8524,-0.8432,-0.841,-0.8142,-0.7746,-0.772,-0.7392,-0.6787,-0.5898,-0.494,-0.3946,-0.2951,-0.2061,-0.1336,-0.1317,-0.1317,-0.1321,-0.1313,-0.1319,-0.1303,-0.1312,-0.1321,-0.132,-0.1315,-0.1309,-0.1305,-0.1317,-0.1317,-0.1317,-0.1317,-0.1268,-0.1254,-0.1252,-0.1217,-0.1192,-0.1187,-0.119,-0.1149,-0.1142,-0.1151,-0.1138,-0.1136,-0.1136,-0.1137,-0.1152,-0.1169,-0.1181,-0.1183,-0.1192,-0.1198,-0.1172,-0.1162,-0.1183,-0.1184,-0.1184,-0.1186,-0.1183,-0.1192,-0.119,-0.1245,-0.1278,-0.1295,-0.1317,-0.1317,-0.1317,-0.1317,-0.129,-0.1257,-0.125,-0.124,-0.1191,-0.1189,-0.1187,-0.1184,-0.1112,-0.1062,-0.105,-0.1034,-0.091,-0.0623,-0.0582,-0.0436,-0.0276,0.0,0.0,0.0,0.0,0.0,0.0,0.0,0.0,0.0,0.0,0.0,0.0,0.0,0.0,0.0,0.0,0.0,0.0,0.0,0.0,0.0,0.0,0.0,0.0,0.0,0.0,0.0,0.0,0.0,0.0,0.0,0.0,-0.8384,-0.8157,-0.8157,-0.7896,-0.7544,-0.7478,-0.7241,-0.6768,-0.5847,-0.4862,-0.3909,-0.2943,-0.206,-0.1453,-0.1317,-0.1317,-0.1305,-0.1306,-0.1317,-0.132,-0.1305,-0.1314,-0.1318,-0.1314,-0.132,-0.1314,-0.1318,-0.1317,-0.1316,-0.1306,-0.1308,-0.1283,-0.1296,-0.128,-0.1223,-0.1217,-0.1223,-0.1196,-0.1191,-0.1185,-0.1193,-0.1191,-0.1187,-0.1196,-0.1188,-0.1197,-0.1205,-0.1208,-0.1214,-0.1216,-0.1219,-0.1205,-0.1207,-0.1199,-0.1199,-0.122,-0.1208,-0.1219,-0.1226,-0.1261,-0.1314,-0.1317,-0.1317,-0.1317,-0.1317,-0.1317,-0.1295,-0.1295,-0.1291,-0.1283,-0.122,-0.1223,-0.1226,-0.1185,-0.1034,-0.0913,-0.0886,-0.0859,-0.0685,-0.0567,-0.0453,-0.0305,0.0,0.0,0.0,0.0,0.0,0.0,0.0,0.0,0.0,0.0,0.0,0.0,0.0,0.0,0.0,0.0,0.0,0.0,0.0,0.0,0.0,0.0,0.0,0.0,0.0,0.0,0.0,0.0,0.0,0.0,0.0,0.0,0.0,-0.816,-0.7962,-0.7944,-0.7764,-0.7504,-0.7389,-0.7094,-0.6601,-0.5682,-0.4706,-0.3783,-0.2906,-0.206,-0.1474,-0.1317,-0.1317,-0.1307,-0.1313,-0.1308,-0.1314,-0.1319,-0.1313,-0.1315,-0.1317,-0.1325,-0.1316,-0.1312,-0.1311,-0.132,-0.1309,-0.1317,-0.131,-0.1311,-0.1293,-0.1292,-0.1268,-0.1251,-0.1227,-0.1204,-0.1195,-0.1195,-0.1178,-0.1175,-0.1193,-0.1194,-0.1232,-0.1272,-0.1279,-0.1284,-0.1269,-0.1288,-0.1284,-0.1276,-0.1274,-0.1294,-0.1274,-0.1278,-0.1283,-0.1286,-0.1291,-0.1317,-0.1317,-0.1317,-0.1317,-0.1317,-0.1317,-0.1317,-0.1317,-0.1317,-0.1293,-0.1289,-0.1275,-0.126,-0.1221,-0.1043,-0.087,-0.0835,-0.0638,-0.0459,-0.0396,-0.0318,0.0,0.0,0.0,0.0,0.0,0.0,0.0,0.0,0.0,0.0,0.0,0.0,0.0,0.0,0.0,0.0,0.0,0.0,0.0,0.0,0.0,0.0,0.0,0.0,0.0,0.0,0.0,0.0,0.0,0.0,0.0,0.0,0.0,0.0,-0.8006,-0.7702,-0.768,-0.7501,-0.7208,-0.7132,-0.6898,-0.6488,-0.5612,-0.4676,-0.3755,-0.288,-0.2042,-0.1474,-0.1317,-0.1305,-0.1305,-0.1311,-0.1333,-0.135,-0.1335,-0.135,-0.1348,-0.1348,-0.1371,-0.135,-0.1349,-0.1331,-0.1307,-0.1312,-0.1305,-0.1319,-0.1316,-0.1321,-0.1316,-0.1303,-0.1291,-0.1256,-0.1253,-0.1228,-0.1232,-0.1214,-0.122,-0.1231,-0.1243,-0.1261,-0.1291,-0.1317,-0.1316,-0.1316,-0.1316,-0.1317,-0.1317,-0.1317,-0.1317,-0.1317,-0.1317,-0.1317,-0.1317,-0.1317,-0.1317,-0.1317,-0.1317,-0.1317,-0.1317,-0.1317,-0.1317,-0.1317,-0.1317,-0.1317,-0.1315,-0.1297,-0.1238,-0.1081,-0.0884,-0.0766,-0.0668,-0.0373,-0.0292,-0.025,-0.019,0.0,0.0,0.0,0.0,0.0,0.0,0.0,0.0,0.0,0.0,0.0,0.0,0.0,0.0,0.0,0.0,0.0,0.0,0.0,0.0,0.0,0.0,0.0,0.0,0.0,0.0,0.0,0.0,0.0,0.0,0.0,0.0,0.0,0.0,-0.7852,-0.7415,-0.7415,-0.7218,-0.6936,-0.6852,-0.6729,-0.6321,-0.5354,-0.4476,-0.3741,-0.2722,-0.1864,-0.1436,-0.1307,-0.1321,-0.1307,-0.1316,-0.1366,-0.1386,-0.1392,-0.141,-0.1412,-0.1413,-0.1408,-0.1402,-0.1382,-0.1368,-0.1336,-0.1339,-0.1314,-0.1327,-0.1326,-0.1307,-0.1318,-0.132,-0.1307,-0.1317,-0.1317,-0.1295,-0.127,-0.1293,-0.1292,-0.127,-0.1273,-0.1295,-0.1317,-0.1317,-0.1317,-0.1317,-0.1317,-0.1317,-0.1317,-0.1317,-0.1317,-0.1317,-0.1317,-0.1317,-0.1317,-0.1317,-0.1317,-0.1317,-0.1317,-0.1317,-0.1317,-0.1317,-0.1317,-0.1317,-0.1317,-0.1317,-0.1297,-0.1258,-0.112,-0.0943,-0.0727,-0.053,-0.0452,-0.0295,-0.0157,-0.0117,0.0,0.0,0.0,0.0,0.0,0.0,0.0,0.0,0.0,0.0,0.0,0.0,0.0,0.0,0.0,0.0,0.0,0.0,0.0,0.0,0.0,0.0,0.0,0.0,0.0,0.0,0.0,0.0,0.0,0.0,0.0,0.0,0.0,0.0,0.0,-0.7632,-0.7165,-0.7165,-0.7058,-0.6891,-0.6766,-0.6613,-0.6241,-0.4755,-0.3921,-0.3616,-0.2273,-0.1511,-0.1321,-0.1305,-0.1318,-0.1319,-0.1356,-0.1385,-0.14,-0.14,-0.1413,-0.1413,-0.1413,-0.1413,-0.1413,-0.1413,-0.1411,-0.1391,-0.1371,-0.1386,-0.1379,-0.1335,-0.1312,-0.1316,-0.1318,-0.1304,-0.1303,-0.1317,-0.1285,-0.123,-0.1285,-0.1262,-0.1254,-0.1281,-0.1317,-0.1317,-0.1317,-0.1317,-0.1317,-0.1317,-0.1317,-0.1317,-0.1317,-0.1317,-0.1317,-0.1317,-0.1317,-0.1317,-0.1317,-0.1317,-0.1317,-0.1317,-0.1317,-0.1317,-0.1317,-0.1317,-0.1317,-0.1317,-0.1317,-0.1277,-0.11,-0.0962,-0.0786,-0.0589,-0.0413,0.0,0.0,0.0,0.0,0.0,0.0,0.0,0.0,0.0,0.0,0.0,0.0,0.0,0.0,0.0,0.0,0.0,0.0,0.0,0.0,0.0,0.0,0.0,0.0,0.0,0.0,0.0,0.0,0.0,0.0,0.0,0.0,0.0,0.0,0.0,0.0,0.0,0.0,0.0,-0.7455,-0.7117,-0.7117,-0.6985,-0.6782,-0.6708,-0.6295,-0.5591,-0.4831,-0.393,-0.3093,-0.2373,-0.1748,-0.1381,-0.1309,-0.1312,-0.1313,-0.1372,-0.14,-0.1412,-0.1406,-0.1413,-0.1413,-0.1413,-0.1413,-0.1413,-0.1413,-0.1413,-0.1407,-0.1402,-0.1394,-0.1388,-0.1387,-0.1368,-0.1343,-0.1318,-0.1319,-0.1322,-0.1307,-0.1291,-0.1263,-0.1268,-0.1271,-0.1258,-0.129,-0.1295,-0.1317,-0.1317,-0.1317,-0.1317,-0.1317,-0.1317,-0.1317,-0.1317,-0.1317,-0.1317,-0.1317,-0.1317,-0.1317,-0.1317,-0.1317,-0.1317,-0.1317,-0.1317,-0.1317,-0.1317,-0.1318,-0.1317,-0.1317,-0.1298,-0.126,-0.1061,-0.0864,-0.0668,-0.0453,-0.0373,0.0,0.0,0.0,0.0,0.0,0.0,0.0,0.0,0.0,0.0,0.0,0.0,0.0,0.0,0.0,0.0,0.0,0.0,0.0,0.0,0.0,0.0,0.0,0.0,0.0,0.0,0.0,0.0,0.0,0.0,0.0,0.0,0.0,0.0,0.0,0.0,0.0,0.0,0.0,-0.7345,-0.7114,-0.7061,-0.6914,-0.6702,-0.6685,-0.6029,-0.5057,-0.4749,-0.3854,-0.2744,-0.2237,-0.1786,-0.1425,-0.1317,-0.1307,-0.1306,-0.1363,-0.1389,-0.1407,-0.1413,-0.1413,-0.1413,-0.1413,-0.1413,-0.1413,-0.1413,-0.1413,-0.1413,-0.1411,-0.141,-0.1412,-0.139,-0.1395,-0.1378,-0.1351,-0.1324,-0.1317,-0.1321,-0.1306,-0.1296,-0.1315,-0.1317,-0.1315,-0.1317,-0.1317,-0.1317,-0.1317,-0.1317,-0.1317,-0.1317,-0.1317,-0.1317,-0.1307,-0.1312,-0.1316,-0.1321,-0.1308,-0.1321,-0.1313,-0.132,-0.1317,-0.1317,-0.1317,-0.1317,-0.1319,-0.1308,-0.1312,-0.1304,-0.1283,-0.1199,-0.0998,-0.0775,-0.0536,-0.0335,-0.0295,0.0,0.0,0.0,0.0,0.0,0.0,0.0,0.0,0.0,0.0,0.0,0.0,0.0,0.0,0.0,0.0,0.0,0.0,0.0,0.0,0.0,0.0,0.0,0.0,0.0,0.0,0.0,0.0,0.0,0.0,0.0,0.0,0.0,0.0,0.0,0.0,0.0,0.0,0.0,-0.7345,-0.7107,-0.6953,-0.6787,-0.6667,-0.6569,-0.5924,-0.4849,-0.4163,-0.3327,-0.2373,-0.1787,-0.1434,-0.1313,-0.1313,-0.1323,-0.131,-0.1363,-0.1383,-0.1411,-0.1413,-0.1413,-0.1413,-0.1413,-0.1413,-0.1413,-0.1413,-0.1413,-0.1413,-0.1413,-0.1413,-0.1411,-0.1405,-0.1412,-0.1397,-0.1378,-0.1346,-0.1318,-0.1317,-0.1321,-0.1307,-0.1319,-0.1317,-0.1317,-0.1317,-0.1317,-0.1317,-0.132,-0.1303,-0.1303,-0.1309,-0.131,-0.1317,-0.131,-0.1319,-0.1303,-0.1317,-0.1304,-0.132,-0.1313,-0.1305,-0.1319,-0.1303,-0.131,-0.1314,-0.1309,-0.1317,-0.1321,-0.1313,-0.1306,-0.1118,-0.0866,-0.0895,-0.1011,-0.1046,-0.106,-0.1177,0.0,0.0,0.0,-0.2156,-0.183,-0.1665,-0.1351,-0.1077,0.0,0.0,0.0,0.0,0.0,0.0,0.0,0.0,0.0,0.0,0.0,0.0,0.0,0.0,0.0,0.0,0.0,0.0,0.0,0.0,0.0,0.0,0.0,0.0,0.0,0.0,0.0,0.0,0.0,0.0,-0.6993,-0.691,-0.6226,-0.6224,-0.6657,-0.6117,-0.5259,-0.4216,-0.3365,-0.2547,-0.1766,-0.1434,-0.1307,-0.1313,-0.1304,-0.1337,-0.1356,-0.1393,-0.1409,-0.1413,-0.1413,-0.1413,-0.1413,-0.1413,-0.1413,-0.1413,-0.1413,-0.1413,-0.1413,-0.1413,-0.1413,-0.1413,-0.1413,-0.1408,-0.1394,-0.1399,-0.1367,-0.1317,-0.1313,-0.1315,-0.1307,-0.1305,-0.1317,-0.1317,-0.1317,-0.1317,-0.1319,-0.1317,-0.1303,-0.131,-0.1322,-0.1305,-0.1307,-0.1302,-0.1329,-0.131,-0.1305,-0.1309,-0.1309,-0.1306,-0.1314,-0.1313,-0.1313,-0.1311,-0.1307,-0.1324,-0.1308,-0.1314,-0.1426,-0.1566,-0.1848,-0.1732,-0.1701,-0.1902,-0.1953,-0.1897,-0.2052,-0.2186,-0.2438,-0.2967,-0.2752,-0.241,-0.2291,-0.2172,-0.1918,0.0,0.0,0.0,0.0,0.0,0.0,0.0,0.0,0.0,0.0,0.0,0.0,0.0,0.0,0.0,0.0,0.0,0.0,0.0,0.0,0.0,0.0,0.0,0.0,0.0,0.0,0.0,0.0,0.0,0.0,-0.6622,-0.641,-0.5659,-0.5727,-0.6188,-0.5395,-0.4401,-0.3463,-0.282,-0.2052,-0.1318,-0.1305,-0.1321,-0.1308,-0.1345,-0.1347,-0.1393,-0.1396,-0.1409,-0.1413,-0.1413,-0.1413,-0.1413,-0.1413,-0.1413,-0.1413,-0.1413,-0.1413,-0.1413,-0.1413,-0.1413,-0.1413,-0.1413,-0.1412,-0.1407,-0.1393,-0.1388,-0.1339,-0.1343,-0.1314,-0.1305,-0.1304,-0.1303,-0.132,-0.1317,-0.1305,-0.1314,-0.1311,-0.1305,-0.1318,-0.1311,-0.1323,-0.1307,-0.1312,-0.1338,-0.132,-0.1325,-0.1329,-0.1329,-0.1313,-0.1307,-0.1319,-0.1321,-0.1323,-0.1349,-0.1546,-0.1912,-0.1893,-0.1986,-0.225,-0.2758,-0.2562,-0.2421,-0.2539,-0.2528,-0.255,-0.2967,-0.3209,-0.3441,-0.3754,-0.3574,-0.3644,-0.3595,-0.3519,-0.284,-0.2478,-0.1898,-0.1332,0.0,0.0,0.0,0.0,0.0,0.0,0.0,0.0,0.0,0.0,0.0,0.0,0.0,0.0,0.0,0.0,0.0,0.0,0.0,0.0,0.0,0.0,0.0,0.0,0.0,0.0,0.0,-0.6213,-0.5553,-0.5422,-0.5419,-0.5304,-0.4313,-0.339,-0.278,-0.2533,-0.2029,-0.1332,-0.1311,-0.1305,-0.1321,-0.1365,-0.1386,-0.14,-0.1401,-0.1413,-0.1413,-0.1413,-0.1413,-0.1413,-0.1413,-0.1413,-0.1413,-0.1413,-0.1413,-0.1413,-0.1413,-0.1413,-0.1413,-0.1413,-0.1413,-0.1413,-0.1412,-0.1396,-0.1393,-0.1408,-0.1352,-0.1323,-0.1327,-0.131,-0.1318,-0.1313,-0.1305,-0.132,-0.1334,-0.1329,-0.1325,-0.1335,-0.1321,-0.1321,-0.1359,-0.1388,-0.1391,-0.1392,-0.1403,-0.1405,-0.1335,-0.1319,-0.1404,-0.1476,-0.1599,-0.1637,-0.212,-0.2733,-0.2735,-0.3116,-0.3459,-0.3519,-0.3358,-0.3264,-0.3371,-0.3415,-0.3528,-0.3981,-0.4174,-0.4394,-0.448,-0.4928,-0.5272,-0.5188,-0.4923,-0.401,-0.3347,-0.2708,-0.2094,-0.1449,-0.0959,-0.0742,0.0,0.0,0.0,0.0,0.0,0.0,0.0,0.0,0.0,0.0,0.0,0.0,0.0,0.0,0.0,0.0,0.0,0.0,0.0,0.0,0.0,0.0,0.0,0.0,-0.5302,-0.4525,-0.3855,-0.3647,-0.3701,-0.3333,-0.2916,-0.254,-0.2021,-0.1573,-0.1362,-0.1309,-0.1345,-0.1364,-0.1378,-0.1401,-0.1398,-0.1402,-0.1413,-0.1413,-0.1413,-0.1413,-0.1413,-0.1413,-0.1413,-0.1413,-0.1413,-0.1413,-0.1413,-0.1413,-0.1413,-0.1413,-0.1413,-0.1413,-0.1413,-0.1413,-0.1405,-0.1396,-0.1401,-0.14,-0.138,-0.1342,-0.1306,-0.1315,-0.1312,-0.1319,-0.1312,-0.1344,-0.1361,-0.1355,-0.1365,-0.1355,-0.1356,-0.1394,-0.1395,-0.1397,-0.1412,-0.1412,-0.1412,-0.1369,-0.1364,-0.1558,-0.1925,-0.2228,-0.246,-0.3258,-0.3583,-0.3629,-0.387,-0.4137,-0.4186,-0.4245,-0.4315,-0.4806,-0.4954,-0.4951,-0.5173,-0.519,-0.5259,-0.5204,-0.5445,-0.5442,-0.5396,-0.5368,-0.4692,-0.4279,-0.3719,-0.295,-0.2253,-0.1547,-0.1115,-0.0822,0.0,0.0,0.0,0.0,0.0,0.0,0.0,0.0,0.0,0.0,0.0,0.0,0.0,0.0,0.0,0.0,0.0,0.0,0.0,0.0,0.0,0.0,0.0,-0.4329,-0.3531,-0.2883,-0.2504,-0.2388,-0.2339,-0.2253,-0.2087,-0.1574,-0.1315,-0.1308,-0.1314,-0.1349,-0.1388,-0.1403,-0.1412,-0.1412,-0.1413,-0.1413,-0.1413,-0.1413,-0.1413,-0.1413,-0.1413,-0.1413,-0.1413,-0.1413,-0.1413,-0.1413,-0.1413,-0.1413,-0.1413,-0.1413,-0.1413,-0.1413,-0.1412,-0.1412,-0.1406,-0.1414,-0.14,-0.1385,-0.1349,-0.1314,-0.1305,-0.1304,-0.1308,-0.1342,-0.1357,-0.1395,-0.1407,-0.1399,-0.1413,-0.1413,-0.1413,-0.1413,-0.1413,-0.1413,-0.1413,-0.1412,-0.1925,-0.1984,-0.2053,-0.2622,-0.3023,-0.3424,-0.4166,-0.4435,-0.453,-0.4541,-0.4763,-0.503,-0.5097,-0.5191,-0.5663,-0.5661,-0.563,-0.5628,-0.5595,-0.5584,-0.5556,-0.5551,-0.5518,-0.5496,-0.5432,-0.5194,-0.4976,-0.4728,-0.3904,-0.311,-0.248,-0.1692,-0.1219,-0.0865,0.0,0.0,0.0,0.0,0.0,0.0,0.0,0.0,0.0,0.0,0.0,0.0,0.0,0.0,0.0,0.0,0.0,0.0,0.0,0.0,0.0,0.0,-0.33,-0.2624,-0.2561,-0.2112,-0.1499,-0.1522,-0.146,-0.1435,-0.1414,-0.1355,-0.1313,-0.1384,-0.1395,-0.1399,-0.14,-0.141,-0.1412,-0.1413,-0.1413,-0.1413,-0.1413,-0.1413,-0.1413,-0.1413,-0.1413,-0.1413,-0.1413,-0.1413,-0.1413,-0.1413,-0.1413,-0.1413,-0.1413,-0.1413,-0.1413,-0.1413,-0.1413,-0.141,-0.1407,-0.1394,-0.1402,-0.1395,-0.1361,-0.1351,-0.1325,-0.1355,-0.1365,-0.1398,-0.1411,-0.1401,-0.1412,-0.1413,-0.1413,-0.1413,-0.1413,-0.1413,-0.1413,-0.1436,-0.1749,-0.2397,-0.2999,-0.3133,-0.3224,-0.3602,-0.4247,-0.5003,-0.5317,-0.545,-0.5475,-0.5702,-0.5905,-0.573,-0.5577,-0.5688,-0.5688,-0.5686,-0.5686,-0.5683,-0.5683,-0.5683,-0.5681,-0.5651,-0.5629,-0.5586,-0.5502,-0.5344,-0.5103,-0.4785,-0.4062,-0.3655,-0.2769,-0.1642,-0.1264,-0.0807,0.0,0.0,0.0,0.0,0.0,0.0,0.0,0.0,0.0,0.0,0.0,0.0,0.0,0.0,0.0,0.0,0.0,0.0,0.0,0.0,0.0,-0.2604,-0.1755,-0.1754,-0.1583,-0.1412,-0.1413,-0.1407,-0.14,-0.14,-0.1394,-0.1366,-0.1396,-0.1397,-0.1401,-0.1409,-0.1412,-0.1413,-0.1413,-0.1413,-0.1413,-0.1413,-0.1413,-0.1413,-0.1413,-0.1413,-0.1413,-0.1413,-0.1413,-0.1413,-0.1413,-0.1413,-0.1413,-0.1413,-0.1413,-0.1413,-0.1413,-0.1413,-0.1413,-0.1413,-0.1406,-0.14,-0.1396,-0.1388,-0.1384,-0.138,-0.1388,-0.1393,-0.1397,-0.1406,-0.141,-0.1413,-0.1413,-0.1413,-0.1413,-0.1413,-0.1413,-0.148,-0.1659,-0.233,-0.2755,-0.3424,-0.4449,-0.4761,-0.4939,-0.545,-0.5808,-0.6166,-0.6077,-0.5947,-0.5949,-0.5908,-0.5777,-0.571,-0.571,-0.571,-0.571,-0.571,-0.571,-0.571,-0.571,-0.571,-0.571,-0.5697,-0.5683,-0.5602,-0.5526,-0.5392,-0.5173,-0.4917,-0.4467,-0.3546,-0.2354,-0.1686,-0.1223,0.0,0.0,0.0,0.0,0.0,0.0,0.0,0.0,0.0,0.0,0.0,0.0,0.0,0.0,0.0,0.0,0.0,0.0,0.0,0.0,0.0,-0.1947,-0.1441,-0.1408,-0.1413,-0.1413,-0.1413,-0.1413,-0.1413,-0.1413,-0.1413,-0.1413,-0.1412,-0.1413,-0.1412,-0.1412,-0.1413,-0.1413,-0.1413,-0.1413,-0.1413,-0.1413,-0.1413,-0.1413,-0.1413,-0.1413,-0.1413,-0.1413,-0.1413,-0.1413,-0.1413,-0.1413,-0.1413,-0.1413,-0.1413,-0.1413,-0.1413,-0.1413,-0.1413,-0.1413,-0.1413,-0.1413,-0.1413,-0.1413,-0.1413,-0.1413,-0.1413,-0.1413,-0.1413,-0.1413,-0.1413,-0.1413,-0.1413,-0.1413,-0.1413,-0.1413,-0.148,-0.1928,-0.2241,-0.2844,-0.3738,-0.4605,-0.5428,-0.5963,-0.6099,-0.6121,-0.6346,-0.6324,-0.6213,-0.6038,-0.5886,-0.5777,-0.571,-0.571,-0.571,-0.571,-0.571,-0.571,-0.571,-0.571,-0.571,-0.571,-0.571,-0.571,-0.571,-0.5702,-0.5623,-0.5594,-0.551,-0.5315,-0.5048,-0.3969,-0.2716,-0.2136,0.0,0.0,0.0,0.0,0.0,0.0,0.0,0.0,0.0,0.0,0.0,0.0,0.0,0.0,0.0,0.0,0.0,0.0,0.0,0.0,0.0,0.0,-0.1387,-0.1389,-0.1396,-0.141,-0.1413,-0.1413,-0.1413,-0.1413,-0.1413,-0.1413,-0.1413,-0.1413,-0.1413,-0.1413,-0.1413,-0.1413,-0.1413,-0.1413,-0.1413,-0.1413,-0.1413,-0.1413,-0.1413,-0.1413,-0.1413,-0.1413,-0.1413,-0.1413,-0.1413,-0.1413,-0.1413,-0.1413,-0.1413,-0.1413,-0.1413,-0.1413,-0.1413,-0.1413,-0.1413,-0.1413,-0.1413,-0.1413,-0.1413,-0.1413,-0.1413,-0.1413,-0.1413,-0.1413,-0.1413,-0.1413,-0.1413,-0.1413,-0.1413,-0.1413,-0.1413,-0.1705,-0.2219,-0.282,-0.3468,-0.4449,-0.5319,-0.5988,-0.6412,-0.6548,-0.6583,-0.6422,-0.6282,-0.6171,-0.5975,-0.5819,-0.5733,-0.571,-0.571,-0.571,-0.571,-0.571,-0.571,-0.571,-0.571,-0.571,-0.571,-0.571,-0.571,-0.571,-0.571,-0.5697,-0.5669,-0.5659,-0.5583,-0.5416,-0.4325,-0.3054,-0.2565,0.0,0.0,0.0,0.0,0.0,0.0,0.0,0.0,0.0,0.0,0.0,0.0,0.0,0.0,0.0,0.0,0.0,0.0,0.0,0.0,0.0,0.0,-0.1316,-0.1319,-0.1389,-0.1413,-0.1411,-0.1413,-0.1412,-0.1413,-0.1413,-0.1412,-0.1413,-0.1412,-0.1413,-0.1413,-0.1413,-0.1413,-0.1413,-0.1413,-0.1413,-0.1413,-0.1413,-0.1413,-0.1413,-0.1413,-0.1413,-0.1413,-0.1413,-0.1413,-0.1413,-0.1413,-0.1413,-0.1413,-0.1413,-0.1413,-0.1413,-0.1413,-0.1413,-0.1413,-0.1413,-0.1413,-0.1413,-0.1413,-0.1413,-0.1413,-0.1413,-0.1413,-0.1413,-0.1413,-0.1413,-0.1413,-0.1413,-0.1413,-0.1413,-0.1414,-0.1414,-0.1592,-0.2477,-0.3265,-0.4163,-0.5156,-0.5989,-0.6481,-0.678,-0.6693,-0.6587,-0.6337,-0.6139,-0.6033,-0.5947,-0.5819,-0.5721,-0.5721,-0.5713,-0.5713,-0.5721,-0.5721,-0.5721,-0.5721,-0.5721,-0.571,-0.571,-0.571,-0.571,-0.571,-0.571,-0.571,-0.5708,-0.5702,-0.57,-0.5492,-0.4494,-0.3393,-0.2973,0.0,0.0,0.0,0.0,0.0,0.0,0.0,0.0,0.0,0.0,0.0,0.0,0.0,0.0,0.0,0.0,0.0,0.0,0.0,0.0,0.0,0.0,-0.1307,-0.1312,-0.1373,-0.1399,-0.1414,-0.1415,-0.1393,-0.1393,-0.1393,-0.1415,-0.1396,-0.1406,-0.1413,-0.1413,-0.1413,-0.1413,-0.1413,-0.1413,-0.1413,-0.1413,-0.1413,-0.1413,-0.1413,-0.1413,-0.1413,-0.1413,-0.1413,-0.1413,-0.1413,-0.1413,-0.1413,-0.1413,-0.1413,-0.1413,-0.1413,-0.1413,-0.1414,-0.1413,-0.1415,-0.1416,-0.1416,-0.1414,-0.1413,-0.1413,-0.1413,-0.1413,-0.1413,-0.1413,-0.1413,-0.142,-0.1426,-0.1434,-0.144,-0.145,-0.173,-0.2329,-0.3158,-0.4089,-0.5022,-0.5883,-0.659,-0.695,-0.6924,-0.6737,-0.6516,-0.6273,-0.6156,-0.6046,-0.6046,-0.5934,-0.5852,-0.5808,-0.5757,-0.5732,-0.5778,-0.5808,-0.5808,-0.5808,-0.5767,-0.571,-0.571,-0.571,-0.571,-0.571,-0.571,-0.571,-0.571,-0.571,-0.571,-0.5621,-0.4572,-0.3664,-0.3183,-0.2438,0.0,0.0,0.0,0.0,0.0,0.0,0.0,0.0,0.0,0.0,0.0,0.0,0.0,0.0,0.0,0.0,0.0,0.0,0.0,0.0,0.0,-0.132,-0.131,-0.1357,-0.1403,-0.1384,-0.1385,-0.1384,-0.1384,-0.1385,-0.1409,-0.1395,-0.1396,-0.1407,-0.1412,-0.1413,-0.1413,-0.1413,-0.1413,-0.1413,-0.1413,-0.1413,-0.1413,-0.1413,-0.1413,-0.1413,-0.1413,-0.1413,-0.1413,-0.1413,-0.1413,-0.1413,-0.1413,-0.1413,-0.1413,-0.1414,-0.1418,-0.1423,-0.1427,-0.143,-0.1429,-0.1424,-0.1393,-0.1414,-0.1413,-0.1413,-0.1413,-0.1413,-0.1413,-0.1413,-0.1431,-0.1447,-0.1459,-0.1467,-0.1526,-0.2145,-0.2784,-0.3767,-0.4827,-0.5897,-0.673,-0.7076,-0.7212,-0.6935,-0.6682,-0.6422,-0.6292,-0.6171,-0.6137,-0.6113,-0.6048,-0.5969,-0.5918,-0.5835,-0.5805,-0.5888,-0.5928,-0.5928,-0.5915,-0.5816,-0.5743,-0.5727,-0.5727,-0.5716,-0.5716,-0.571,-0.571,-0.571,-0.571,-0.5666,-0.551,-0.4952,-0.3985,-0.3222,-0.2404,-0.1295,0.0,0.0,0.0,0.0,0.0,0.0,0.0,0.0,0.0,0.0,0.0,0.0,0.0,0.0,0.0,0.0,0.0,0.0,0.0,0.0,-0.1321,-0.1304,-0.1316,-0.1333,-0.1333,-0.1313,-0.1313,-0.1313,-0.1335,-0.1347,-0.1384,-0.1394,-0.141,-0.1412,-0.1413,-0.1413,-0.1413,-0.1413,-0.1413,-0.1413,-0.1413,-0.1413,-0.1413,-0.1413,-0.1413,-0.1413,-0.1413,-0.1414,-0.1421,-0.1418,-0.1393,-0.1397,-0.1395,-0.1395,-0.1397,-0.1431,-0.1473,-0.1453,-0.1467,-0.1474,-0.1463,-0.1425,-0.1416,-0.1413,-0.1413,-0.1413,-0.1413,-0.1413,-0.1428,-0.1473,-0.1499,-0.1513,-0.1498,-0.1601,-0.2206,-0.3241,-0.4219,-0.5244,-0.6254,-0.7018,-0.7268,-0.7208,-0.6911,-0.6598,-0.6427,-0.6372,-0.6292,-0.6287,-0.623,-0.6135,-0.6062,-0.6053,-0.6015,-0.6015,-0.6051,-0.6053,-0.6053,-0.5991,-0.5892,-0.5827,-0.5778,-0.5759,-0.5732,-0.5727,-0.571,-0.571,-0.571,-0.571,-0.571,-0.5488,-0.5243,-0.421,-0.3226,-0.1883,0.0,0.0,0.0,0.0,0.0,0.0,0.0,0.0,0.0,0.0,0.0,0.0,0.0,0.0,0.0,0.0,0.0,0.0,0.0,0.0,0.0]},{"header":{"parameterUnit":"m.s-1","parameterCategory":1,"la1":31.0,"la2":29.5877,"lo1":-88.7671,"lo2":-86.6584,"dy":0.0162,"dx":0.0185,"nx":115,"ny":88,"refTime":"2023-05-29T18:00:00:Z","depth":0,"parameterNumber":3,"parameterNumberName":"V-component_of_WINDS"},"data":[0.0,0.0,0.0,0.0,0.0,0.0,0.0,0.0,0.0,0.0,0.0,0.0,0.0,0.0,0.0,0.0,0.0,0.0,0.0,0.0,0.0,0.0,0.0,0.0,0.0,0.0,0.0,0.0,0.0,0.0,0.0,0.0,0.0,0.0,0.0,0.0,0.0,0.0,0.0,0.0,0.0,0.0,0.0,0.0,0.0,0.0,0.0,0.0,0.0,0.0,0.0,0.0,0.0,0.0,0.0,0.0,0.0,0.0,0.0,0.0,0.0,0.0,0.0,0.0,0.0,0.0,0.0,0.0,0.0,0.0,0.0,0.0,0.0,0.0,0.0,0.0,0.0,0.0,0.0,0.0,0.0,0.0,0.0,0.0,0.0,0.0,0.0,0.0,0.0,0.0,0.0,0.0,0.0,0.0,0.0,0.0,0.0,0.0,0.0,0.0,0.0,0.0,0.0,0.0,0.0,0.0,0.0,0.0,0.0,0.0,0.0,0.0,0.0,0.0,0.0,0.0,0.0,0.0,0.0,0.0,0.0,0.0,0.0,0.0,0.0,0.0,0.0,0.0,0.0,0.0,0.0,0.0,0.0,0.0,0.0,0.0,0.0,0.0,0.0,0.0,0.0,0.0,0.0,0.0,0.0,0.0,0.0,0.0,0.0,0.0,0.0,0.0,0.0,0.0,0.0,0.0,0.0,0.0,0.0,0.0,0.0,0.0,0.0,0.0,0.0,0.0,0.0,0.0,0.0,0.0,0.0,0.0,0.0,0.0,0.0,0.0,0.0,0.0,0.0,0.0,0.0,0.0,0.0,0.0,0.0,0.0,0.0,0.0,0.0,0.0,0.0,0.0,0.0,0.0,0.0,0.0,0.0,0.0,0.0,0.0,0.0,0.0,0.0,0.0,0.0,0.0,0.0,0.0,0.0,0.0,0.0,0.0,0.0,0.0,0.0,0.0,0.0,0.0,0.0,0.0,0.0,0.0,0.0,0.0,0.0,0.0,0.0,0.0,0.0,0.0,0.0,0.0,0.0,0.0,0.0,0.0,0.0,0.0,0.0,0.0,0.0,0.0,0.0,0.0,0.0,0.0,0.0,0.0,0.0,0.0,0.0,0.0,0.0,0.0,0.0,0.0,0.0,0.0,0.0,0.0,0.0,0.0,0.0,0.0,0.0,0.0,0.0,0.0,0.0,0.0,0.0,0.0,0.0,0.0,0.0,0.0,0.0,0.0,0.0,0.0,0.0,0.0,0.0,0.0,0.0,0.0,0.0,0.0,0.0,0.0,0.0,0.0,0.0,0.0,0.0,0.0,0.0,0.0,0.0,0.0,0.0,0.0,0.0,0.0,0.0,0.0,0.0,0.0,0.0,0.0,0.0,0.0,0.0,0.0,0.0,0.0,0.0,0.0,0.0,0.0,0.0,0.0,0.0,0.0,0.0,0.0,0.0,0.0,0.0,0.0,0.0,0.0,0.0,0.0,0.0,0.0,0.0,0.0,0.0,0.0,0.0,0.0,0.0,0.0,0.0,0.0,0.0,0.0,0.0,0.0,0.0,0.0,0.0,0.0,0.0,0.0,0.0,0.0,0.0,0.0,0.0,0.0,0.0,0.0,0.0,0.0,0.0,0.0,0.0,0.0,0.0,0.0,0.0,0.0,0.0,0.0,0.0,0.0,0.0,0.0,0.0,0.0,0.0,0.0,0.0,0.0,0.0,0.0,0.0,0.0,0.0,0.0,0.0,0.0,0.0,0.0,0.0,0.0,0.0,0.0,0.0,0.0,0.0,0.0,0.0,0.0,0.0,0.0,0.0,0.0,0.0,0.0,0.0,0.0,0.0,0.0,0.0,0.0,0.0,0.0,0.0,0.0,0.0,0.0,0.0,0.0,0.0,0.0,0.0,0.0,0.0,0.0,0.0,0.0,0.0,0.0,0.0,0.0,0.0,0.0,0.0,0.0,0.0,0.0,0.0,0.0,0.0,0.0,0.0,0.0,0.0,0.0,0.0,0.0,0.0,0.0,0.0,0.0,0.0,0.0,0.0,0.0,0.0,0.0,0.0,0.0,0.0,0.0,0.0,0.0,0.0,0.0,0.0,0.0,0.0,0.0,0.0,0.0,0.0,0.0,0.0,0.0,0.0,0.0,0.0,0.0,0.0,0.0,0.0,0.0,0.0,0.0,0.0,0.0,0.0,0.0,0.0,0.0,0.0,0.0,0.0,0.0,0.0,0.0,0.0,0.0,0.0,0.0,0.0,0.0,0.0,0.0,0.0,0.0,0.0,0.0,0.0,0.0,0.0,0.0,0.0,0.0,0.0,0.0,0.0,0.0,0.0,0.0,0.0,0.0,0.0,0.0,0.0,0.0,0.0,0.0,0.0,0.0,0.0,0.0,0.0,0.0,0.0,0.0,0.0,0.0,0.0,0.0,0.0,0.0,0.0,0.0,0.0,0.0,0.0,0.0,0.0,0.0,0.0,0.0,0.0,0.0,0.0,0.0,0.0,0.0,0.0,0.0,0.0,0.0,0.0,0.0,0.0,0.0,0.0,0.0,0.0,0.0,0.0,0.0,0.0,0.0,0.0,0.0,0.0,0.0,0.0,0.0,0.0,0.0,0.0,0.0,0.0,0.0,0.0,0.0,0.0,0.0,0.0,0.0,0.0,0.0,0.0,0.0,0.0,0.0,0.0,0.0,0.0,0.0,0.0,0.0,0.0,0.0,0.0,0.0,0.0,0.0,0.0,0.0,0.0,0.0,0.0,0.0,0.0,0.0,0.0,0.0,0.0,0.0,0.0,0.0,0.0,0.0,0.0,0.0,0.0,0.0,0.0,0.0,0.0,0.0,0.0,0.0,0.0,0.0,0.0,0.0,0.0,0.0,0.0,0.0,0.0,0.0,0.0,0.0,0.0,0.0,0.0,0.0,0.0,0.0,0.0,0.0,0.0,0.0,0.0,0.0,0.0,0.0,0.0,0.0,0.0,0.0,0.0,0.0,0.0,0.0,0.0,0.0,0.0,0.0,0.0,0.0,0.0,0.0,0.0,0.0,0.0,0.0,0.0,0.0,0.0,0.0,0.0,0.0,0.0,0.0,0.0,0.0,0.0,0.0,0.0,0.0,0.0,0.0,0.0,0.0,0.0,0.0,0.0,0.0,0.0,0.0,0.0,0.0,0.0,0.0,0.0,0.0,0.0,0.0,0.0,0.0,0.0,0.0,0.0,0.0,0.0,0.0,0.0,0.0,0.0,0.0,0.0,0.0,0.0,0.0,0.0,0.0,0.0,0.0,0.0,0.0,0.0,0.0,0.0,0.0,0.0,0.0,0.0,0.0,0.0,0.0,0.0,0.0,0.0,0.0,0.0,0.0,0.0,0.0,0.0,0.0,0.0,0.0,0.0,0.0,0.0,0.0,0.0,0.0,0.0,0.0,0.0,0.0,0.0,0.0,0.0,0.0,0.0,0.0,0.0,0.0,0.0,0.0,0.0,0.0,0.0,0.0,0.0,0.0,0.0,0.0,0.0,0.0,0.0,0.0,0.0,0.0,0.0,0.0,0.0,0.0,0.0,0.0,0.0,0.0,0.0,0.0,0.0,0.0,0.0,0.0,0.0,0.0,0.0,0.0,0.0,0.0,0.0,0.0,0.0,0.0,0.0,0.0,0.0,0.0,0.0,0.0,0.0,0.0,0.0,0.0,0.0,0.0,0.0,0.0,0.0,0.0,0.0,0.0,0.0,0.0,0.0,0.0,0.0,0.0,0.0,0.0,0.0,0.0,0.0,0.0,0.0,0.0,0.0,0.0,0.0,0.0,0.0,0.0,0.0,0.0,0.0,0.0,0.0,0.0,0.0,0.0,0.0,0.0,0.0,0.0,0.0,0.0,0.0,0.0,0.0,0.0,0.0,0.0,0.0,0.0,0.0,0.0,0.0,0.0,0.0,0.0,0.0,0.0,0.0,0.0,0.0,0.0,0.0,0.0,0.0,0.0,0.0,0.0,0.0,0.0,0.0,0.0,0.0,0.0,0.0,0.0,0.0,0.0,0.0,0.0,0.0,0.0,0.0,0.0,0.0,0.0,0.0,0.0,0.0,0.0,0.0,0.0,0.0,0.0,0.0,0.0,0.0,0.0,0.0,0.0,0.0,0.0,0.0,0.0,0.0,0.0,0.0,0.0,0.0,0.0,0.0,0.0,0.0,0.0,0.0,0.0,0.0,0.0,0.0,0.0,0.0,0.0,0.0,0.0,0.0,0.0,0.0,0.0,0.0,0.0,0.0,0.0,1.02,0.0,0.0,0.0,0.0,0.0,0.0,0.0,0.0,0.0,0.0,0.0,0.0,0.0,0.0,0.0,0.0,0.0,0.0,0.0,0.0,0.0,0.0,0.0,0.0,0.0,0.0,0.0,0.0,0.0,0.0,0.0,0.0,0.0,0.0,0.0,0.0,0.0,0.0,0.0,0.0,0.0,0.0,0.0,0.0,0.0,0.0,0.0,0.0,0.0,0.0,0.0,0.0,0.0,0.0,0.0,0.0,0.0,0.0,0.0,0.0,0.0,0.0,0.0,0.0,0.0,0.0,0.0,0.0,0.0,0.0,0.0,0.0,0.0,0.0,0.0,0.0,0.0,0.0,0.0,0.0,0.0,0.0,0.0,0.0,0.0,0.0,0.0,0.0,0.0,0.0,0.0,0.0,0.0,0.0,0.0,0.0,0.0,0.0,0.0,0.0,0.0,0.0,0.0,0.0,0.0,0.0,0.0,0.0,0.0,0.0,1.01,1.0094,1.0129,1.0142,1.0152,0.0,0.0,0.0,0.0,0.0,0.0,0.0,0.0,0.0,0.0,0.0,0.0,0.0,0.0,0.0,0.0,0.0,0.0,0.0,0.0,0.0,0.0,0.0,0.0,0.0,0.0,0.0,0.0,0.0,0.0,0.0,0.0,0.0,0.0,0.0,0.0,0.0,0.0,0.0,0.0,0.0,0.0,0.0,0.0,0.0,0.0,0.0,0.0,0.0,0.0,0.0,0.0,0.0,0.0,0.0,0.0,0.0,0.0,0.0,0.0,0.0,0.0,0.0,0.0,0.0,0.0,0.0,0.0,0.0,0.0,0.0,0.0,0.0,0.0,0.0,0.0,0.0,0.0,0.0,0.0,0.0,0.0,0.0,0.0,0.0,0.0,0.0,0.0,0.0,0.0,0.0,0.0,0.0,0.0,0.0,0.0,0.0,0.0,0.0,0.0,0.0,0.0,0.0,0.0,0.0,0.0,0.0,0.0,0.0,0.0,0.0,0.0,1.0094,1.0105,1.0159,0.0,0.0,0.0,0.0,0.0,0.0,0.0,0.0,0.0,0.0,0.0,0.0,0.0,0.0,0.0,0.0,0.0,0.0,0.0,0.0,0.0,0.0,0.0,0.0,0.0,0.0,0.0,0.0,0.0,0.0,0.0,0.0,0.0,0.0,0.0,0.0,0.0,0.0,0.0,0.0,0.0,0.0,0.0,0.0,0.0,0.0,0.0,0.0,0.0,0.0,0.0,0.0,0.0,0.0,0.0,0.0,0.0,0.0,0.0,0.0,0.0,0.0,0.0,0.0,0.0,0.0,0.0,0.0,0.0,0.0,0.0,0.0,0.0,0.0,0.0,0.0,0.0,0.0,0.0,0.0,0.0,0.0,0.0,0.0,0.0,0.0,0.0,0.0,0.0,0.0,0.0,0.0,0.0,0.0,0.0,0.0,0.0,0.0,0.0,0.0,0.0,0.0,0.0,0.0,0.0,0.0,0.0,0.0,0.0,0.0,1.0018,1.0,1.0076,0.0,1.0202,0.0,0.0,0.0,0.0,0.0,0.0,0.0,0.0,0.0,0.0,0.0,0.0,0.0,0.0,0.0,0.0,0.0,0.0,0.0,0.0,0.0,0.0,0.0,0.0,0.0,0.0,0.0,0.0,0.0,0.0,0.0,0.0,0.0,0.0,0.0,0.0,0.0,0.0,0.0,0.0,0.0,0.0,0.0,0.0,0.0,0.0,0.0,0.0,0.0,0.0,0.0,0.0,0.0,0.0,0.0,0.0,0.0,0.0,0.0,0.0,0.0,0.0,0.0,0.0,0.0,0.0,0.0,0.0,0.0,0.0,0.0,0.0,0.0,0.0,0.0,0.0,0.0,0.0,0.0,0.0,0.0,0.0,0.0,0.0,0.0,0.0,0.0,0.0,0.0,0.0,0.0,0.0,0.0,0.0,0.0,0.0,0.0,0.0,0.0,0.0,0.0,0.0,0.0,0.0,0.0,0.0,0.0,0.0,0.0,0.0,0.9478,0.9996,1.0019,1.0038,0.0,0.0,0.0,0.0,0.0,0.0,0.0,0.0,0.0,0.0,0.0,0.0,0.0,0.0,0.0,0.0,0.0,0.0,0.0,0.0,0.0,0.0,0.0,0.0,0.0,0.0,0.0,0.0,0.0,0.0,0.0,0.0,0.0,0.0,0.0,0.0,0.0,0.0,0.0,0.0,0.0,0.0,0.0,0.0,0.0,0.0,0.0,0.0,0.0,0.0,0.0,0.0,0.0,0.0,0.0,0.0,0.0,0.0,0.0,0.0,0.0,0.0,0.0,0.0,0.0,0.0,0.0,0.0,0.0,0.0,0.0,0.0,0.0,0.0,0.0,0.0,0.0,0.0,0.0,0.0,0.0,0.0,0.0,0.0,0.0,0.0,0.0,0.0,0.0,0.0,0.0,0.0,0.0,0.0,0.0,0.0,0.0,0.0,0.0,0.0,0.0,0.0,0.0,0.0,0.0,0.0,0.0,0.0,0.0,0.0,0.859,0.9119,0.9917,0.9982,1.0004,1.0014,0.0,0.0,0.0,0.0,0.0,0.0,0.0,0.0,0.0,0.0,0.0,0.0,0.0,0.0,0.0,0.0,0.0,0.0,0.0,0.0,0.0,0.0,0.0,0.0,0.0,0.0,0.0,0.0,0.0,0.0,0.0,0.0,0.0,0.0,0.0,0.0,0.0,0.0,0.0,0.0,0.0,0.0,0.0,0.0,0.0,0.0,0.0,0.0,0.0,0.0,0.0,0.0,0.0,0.0,0.0,0.0,0.0,0.0,0.0,0.0,0.0,0.0,0.0,0.0,0.0,0.0,0.0,0.0,0.0,0.0,0.0,0.0,0.0,0.0,0.0,0.0,0.0,0.0,0.0,0.0,0.0,0.0,0.0,0.0,0.0,0.0,0.0,0.0,0.0,0.0,0.0,0.0,0.0,0.0,0.0,0.0,0.0,0.0,0.0,0.0,0.0,0.0,0.0,0.0,0.0,0.0,0.0,0.0,0.7484,0.8267,0.9074,0.9877,0.9968,1.0006,0.0,0.0,0.0,0.0,0.0,0.0,0.0,0.0,0.0,0.0,0.0,0.0,0.0,0.0,0.0,0.0,0.0,0.0,0.0,0.0,0.0,0.0,0.0,0.0,0.0,0.0,0.0,0.0,0.0,0.0,0.0,0.0,0.0,0.0,0.0,0.0,0.0,0.0,0.0,0.0,0.0,0.0,0.0,0.0,0.0,0.0,0.0,0.0,0.0,0.0,0.0,0.0,0.0,0.0,0.0,0.0,0.0,0.0,0.0,0.0,0.0,0.0,0.0,0.0,0.0,0.0,0.0,0.0,0.0,0.0,0.0,0.0,0.0,0.0,0.0,0.0,0.0,0.0,0.0,0.0,0.0,0.0,0.0,0.0,0.0,0.0,0.0,0.0,0.0,0.0,0.0,0.0,0.0,0.0,0.0,0.0,0.0,0.0,0.0,0.0,0.0,0.0,0.0,0.0,0.0,0.0,0.0,0.0,0.0,0.6674,0.7933,0.9033,0.9857,0.9923,0.9951,0.0,0.0,0.0,0.0,0.0,0.0,0.0,0.0,0.0,0.0,0.0,0.0,0.0,0.0,0.0,0.0,0.0,0.0,0.0,0.0,0.0,0.0,0.0,0.0,0.0,0.0,0.0,0.0,0.0,0.0,0.0,0.0,0.0,0.0,0.0,0.0,0.0,0.0,0.0,0.0,0.0,0.0,0.0,0.0,0.0,0.0,0.0,0.0,0.0,0.0,0.0,0.0,0.0,0.0,0.0,0.0,0.0,0.0,0.0,0.0,0.0,0.0,0.0,0.0,0.0,0.0,0.0,0.0,0.0,0.0,0.0,0.0,0.0,0.0,0.0,0.0,0.0,0.0,0.0,0.0,0.0,0.0,0.0,0.0,0.0,0.0,0.0,0.0,0.0,0.0,0.0,0.0,0.0,0.0,0.0,0.0,0.0,0.0,0.0,0.0,0.0,0.0,0.0,0.0,0.0,0.0,0.0,0.0,0.0,0.657,0.0,0.9008,0.9836,0.9887,0.9896,0.0,0.0,0.0,0.0,0.0,0.0,0.0,0.0,0.0,0.0,0.0,0.0,0.0,0.0,0.0,0.0,0.0,0.0,0.0,0.0,0.0,0.0,0.0,0.0,0.0,0.0,0.0,0.0,0.0,0.0,0.0,0.0,0.0,0.0,0.0,0.0,0.0,0.0,0.0,0.0,0.0,0.0,0.0,0.0,0.0,0.0,0.0,0.0,0.0,0.0,0.0,0.0,0.0,0.0,0.0,0.0,0.0,0.0,0.0,0.0,0.0,0.0,0.0,0.0,0.0,0.0,0.0,0.0,0.0,0.0,0.0,0.0,0.0,0.0,0.0,0.0,0.0,0.0,0.0,0.0,0.0,0.0,0.0,0.0,0.0,0.0,0.0,0.0,0.0,0.0,0.0,0.0,0.0,0.0,0.0,0.0,0.0,0.0,0.0,0.0,0.0,0.0,0.0,0.0,0.0,0.0,0.0,0.0,0.5809,0.7388,0.8218,0.9095,0.9896,0.995,0.9929,0.0,0.0,0.0,0.0,0.0,0.0,0.0,0.0,0.0,0.0,0.0,0.0,0.0,0.0,0.0,0.0,0.0,0.0,0.0,0.0,0.0,0.0,0.0,0.0,0.0,0.0,0.0,0.0,0.0,0.0,0.0,0.0,0.0,0.0,0.0,0.0,0.0,0.0,0.0,0.0,0.0,0.0,0.0,0.0,0.0,0.0,0.0,0.0,0.0,0.0,0.0,0.0,0.0,0.0,0.0,0.0,0.0,0.0,0.0,0.0,0.0,0.0,0.0,0.0,0.0,0.0,0.0,0.0,0.0,0.0,0.0,0.0,0.0,0.0,0.0,0.0,0.0,0.0,0.0,0.0,0.0,0.0,0.0,0.0,0.0,0.0,0.0,0.0,0.0,0.0,0.0,0.0,0.0,0.0,0.0,0.0,0.0,0.0,0.0,0.0,0.0,0.0,0.0,0.0,0.0,0.0,0.0,0.0,0.0,0.9034,0.9303,1.0103,1.1472,1.1019,1.0737,0.0,0.0,0.0,0.0,0.0,0.0,0.0,0.0,0.0,0.0,0.0,0.0,0.0,0.0,0.0,0.0,0.0,0.0,0.0,0.0,0.0,0.0,0.0,0.0,0.0,0.0,0.0,0.0,0.0,0.0,0.0,0.0,0.0,0.0,0.0,0.0,0.0,0.0,0.0,0.0,0.0,0.0,0.0,0.0,0.0,0.0,0.0,0.0,0.0,0.0,0.0,0.0,0.0,0.0,0.0,0.0,0.0,0.0,0.0,0.0,0.0,0.0,0.0,0.0,0.0,0.0,0.0,0.0,0.0,0.0,0.0,0.0,0.0,0.0,0.0,0.0,0.0,0.0,0.0,0.0,0.0,0.0,0.0,0.0,0.0,0.0,0.0,0.0,0.0,0.0,0.0,0.0,0.0,0.0,0.0,0.0,0.0,0.0,0.0,0.0,0.0,0.0,0.0,0.0,0.0,0.0,0.0,0.0,0.0,1.1605,1.1345,1.1544,1.2284,1.2115,1.1867,1.1543,0.0,0.0,0.0,0.0,0.0,0.0,0.0,0.0,0.0,0.0,0.0,0.0,0.0,0.0,0.0,0.0,0.0,0.0,0.0,0.0,0.0,0.0,0.0,0.0,0.0,0.0,0.0,0.0,0.0,0.0,0.0,0.0,0.0,0.0,0.0,0.0,0.0,0.0,0.0,0.0,0.0,0.0,0.0,0.0,0.0,0.0,0.0,0.0,0.0,0.0,0.0,0.0,0.0,0.0,0.0,0.0,0.0,0.0,0.0,0.0,0.0,0.0,0.0,0.0,0.0,0.0,0.0,0.0,0.0,0.0,0.0,0.0,0.0,0.0,0.0,0.0,0.0,0.0,0.0,0.0,0.0,0.0,0.0,0.0,0.0,0.0,0.0,0.0,0.0,0.0,0.0,0.0,0.0,0.0,0.0,0.0,0.0,0.0,0.0,0.0,0.0,0.0,0.0,0.0,0.0,0.0,0.0,0.0,1.4837,1.42,1.3481,1.2671,1.3234,1.3193,0.0,0.0,0.0,0.0,0.0,0.0,0.0,0.0,0.0,0.0,0.0,0.0,0.0,0.0,0.0,0.0,0.0,0.0,0.0,0.0,0.0,0.0,0.0,0.0,0.0,0.0,0.0,0.0,0.0,0.0,0.0,0.0,0.0,0.0,0.0,0.0,0.0,0.0,0.0,0.0,0.0,0.0,0.0,0.0,0.0,0.0,0.0,0.0,0.0,0.0,0.0,0.0,0.0,0.0,0.0,0.0,0.0,0.0,0.0,0.0,0.0,0.0,0.0,0.0,0.0,0.0,0.0,0.0,0.0,0.0,0.0,0.0,0.0,0.0,0.0,0.0,0.0,0.0,0.0,0.0,0.0,0.0,0.0,0.0,0.0,0.0,0.0,0.0,0.0,0.0,0.0,0.0,0.0,0.0,0.0,0.0,0.0,0.0,0.0,0.0,0.0,0.0,0.0,0.0,0.0,0.0,0.0,0.0,0.0,1.5658,1.7388,1.756,1.6025,1.4956,1.4302,0.0,0.0,0.0,0.0,0.0,0.0,0.0,0.0,0.0,0.0,0.0,0.0,0.0,0.0,0.0,0.0,0.0,0.0,0.0,0.0,0.0,0.0,0.0,0.0,0.0,0.0,0.0,0.0,0.0,0.0,0.0,0.0,0.0,0.0,0.0,0.0,0.0,0.0,0.0,0.0,0.0,0.0,0.0,0.0,0.0,0.0,0.0,0.0,0.0,0.0,0.0,0.0,0.0,0.0,0.0,0.0,0.0,0.0,0.0,0.0,0.0,0.0,0.0,0.0,0.0,0.0,0.0,0.0,0.0,0.0,0.0,0.0,0.0,0.0,0.0,0.0,0.0,0.0,0.0,0.0,0.0,0.0,0.0,0.0,0.0,0.0,0.0,0.0,0.0,0.0,0.0,0.0,0.0,0.0,0.0,0.0,0.0,0.0,0.0,0.0,0.0,0.0,0.0,0.0,0.0,0.0,0.0,0.0,1.5552,1.7174,1.9337,1.998,1.8912,1.7584,1.6417,0.0,0.0,0.0,0.0,0.0,0.0,0.0,0.0,0.0,0.0,0.0,0.0,0.0,0.0,0.0,0.0,0.0,0.0,0.0,0.0,0.0,0.0,0.0,0.0,0.0,0.0,0.0,0.0,0.0,0.0,0.0,0.0,0.0,0.0,0.0,0.0,0.0,0.0,0.0,0.0,0.0,0.0,0.0,0.0,0.0,0.0,0.0,0.0,0.0,0.0,0.0,0.0,0.0,0.0,0.0,0.0,0.0,0.0,0.0,0.0,0.0,0.0,0.0,0.0,0.0,0.0,0.0,0.0,0.0,0.0,0.0,0.0,0.0,0.0,0.0,0.0,0.0,0.0,0.0,0.0,0.0,0.0,0.0,0.0,0.0,0.0,0.0,0.0,0.0,0.0,0.0,0.0,0.0,0.0,0.0,0.0,0.0,0.0,0.0,0.0,0.0,0.0,0.0,0.0,0.0,0.0,0.0,0.0,1.7145,1.9022,2.056,2.1341,2.1234,2.0384,1.8782,0.0,0.0,0.0,0.0,0.0,0.0,0.0,0.0,0.0,0.0,0.0,0.0,0.0,0.0,0.0,0.0,0.0,0.0,0.0,0.0,0.0,0.0,0.0,0.0,0.0,0.0,0.0,0.0,0.0,0.0,0.0,0.0,0.0,0.0,0.0,0.0,0.0,0.0,0.0,0.0,0.0,0.0,0.0,0.0,0.0,0.0,0.0,0.0,0.0,0.0,0.0,0.0,0.0,0.0,0.0,0.0,0.0,0.0,0.0,0.0,0.0,0.0,0.0,0.0,0.0,0.0,0.0,0.0,0.0,0.0,0.0,0.0,0.0,0.0,0.0,0.0,0.0,0.0,0.0,0.0,0.0,0.0,0.0,0.0,0.0,0.0,0.0,0.0,0.0,0.0,0.0,0.0,0.0,0.0,0.0,0.0,0.0,0.0,0.0,0.0,0.0,0.0,0.0,0.0,0.0,0.0,0.0,0.0,1.7793,2.0684,2.1873,2.241,2.2274,2.0744,1.899,0.0,0.0,0.0,0.0,0.0,0.0,0.0,0.0,0.0,0.0,0.0,0.0,0.0,0.0,0.0,0.0,0.0,0.0,0.0,0.0,0.0,0.0,0.0,0.0,0.0,0.0,0.0,0.0,0.0,0.0,0.0,0.0,0.0,0.0,0.0,0.0,0.0,0.0,0.0,0.0,0.0,0.0,0.0,0.0,0.0,0.0,0.0,0.0,1.4859,0.0,0.0,0.0,0.0,0.0,0.0,0.0,0.0,0.0,0.0,0.0,0.0,0.0,0.0,0.0,0.0,0.0,0.0,0.0,0.0,0.0,0.0,0.0,0.0,0.0,0.0,0.0,0.0,0.0,0.0,0.0,0.0,0.0,0.0,0.0,0.0,0.0,0.0,0.0,0.0,0.0,0.0,0.0,0.0,0.0,0.0,0.0,0.0,0.0,0.0,0.0,0.0,0.0,0.0,0.0,0.0,0.0,0.0,0.0,1.8299,2.0749,2.1688,2.2072,2.1918,2.0982,1.9474,0.0,0.0,0.0,0.0,0.0,0.0,0.0,0.0,0.0,0.0,0.0,0.0,0.0,0.0,0.0,0.0,0.0,0.0,0.0,0.0,0.0,0.0,0.0,0.0,0.0,0.0,0.0,0.0,0.0,0.0,0.0,0.0,0.0,0.0,0.0,0.0,0.0,0.0,0.0,0.0,0.0,0.0,0.0,0.0,0.0,0.0,0.0,0.0,0.0,0.0,0.0,0.0,0.0,0.0,0.0,0.0,0.0,0.0,0.0,0.0,0.0,0.0,0.0,0.0,0.0,0.0,0.0,0.0,0.0,0.0,0.0,0.0,0.0,0.0,0.0,0.0,0.0,0.0,0.0,0.0,0.0,0.0,0.0,0.0,0.0,0.0,0.0,0.0,0.0,0.0,0.0,0.0,0.0,0.0,0.0,0.0,0.0,0.0,0.0,0.0,0.0,0.0,0.0,0.0,0.0,0.0,0.0,1.6603,1.8685,2.0429,2.1117,2.1371,2.1222,2.1161,1.9983,1.7584,0.0,0.0,0.0,0.0,0.0,0.0,0.0,0.0,0.0,0.0,0.0,0.0,0.0,0.0,0.0,0.0,0.0,0.0,0.0,0.0,0.0,0.0,0.0,0.0,0.0,0.0,0.0,0.0,0.0,0.0,0.0,0.0,0.0,0.0,0.0,0.0,0.0,0.0,1.228,1.3821,0.0,0.0,0.0,0.0,0.0,0.0,0.0,0.0,1.5106,0.0,0.0,0.0,0.0,0.0,0.0,0.0,0.0,0.0,0.0,0.0,0.0,0.0,0.0,0.0,0.0,0.0,0.0,0.0,0.0,0.0,0.0,0.0,0.0,0.0,0.0,0.0,0.0,0.0,0.0,0.0,0.0,0.0,0.0,0.0,0.0,0.0,0.0,0.0,0.0,0.0,0.0,0.0,0.0,0.0,0.0,0.0,0.0,0.0,0.0,0.0,0.0,0.0,0.0,0.0,0.0,1.604,1.7223,1.8961,2.1311,2.1505,2.15,2.1369,2.1294,2.0063,1.7593,0.0,0.0,0.0,0.0,0.0,0.0,0.0,0.0,0.0,0.0,0.0,0.0,0.0,0.0,0.0,0.0,0.0,0.0,0.0,0.0,0.0,0.0,0.0,0.0,0.0,0.0,0.0,0.0,0.0,0.0,0.0,0.0,0.0,0.0,0.0,0.0,0.0,0.0,0.0,1.4211,1.4809,0.0,0.0,0.0,0.0,0.0,0.0,0.0,0.0,1.6227,0.0,0.0,0.0,0.0,0.0,0.0,0.0,0.0,0.0,0.0,0.0,0.0,0.0,0.0,0.0,0.0,0.0,0.0,0.0,0.0,0.0,0.0,0.0,0.0,0.0,0.0,0.0,0.0,0.0,0.0,0.0,0.0,0.0,0.0,0.0,0.0,0.0,0.0,0.0,0.0,0.0,0.0,0.0,0.0,0.0,0.0,0.0,0.0,0.0,0.0,0.0,0.0,0.0,0.0,0.0,1.6414,1.7362,1.8828,2.0886,2.0918,2.0846,2.0753,2.025,1.9147,0.0,0.0,0.0,0.0,0.0,0.0,0.0,0.0,0.0,0.0,0.0,0.0,0.0,0.0,0.0,0.0,0.0,0.0,0.0,0.0,0.0,0.0,0.0,0.0,0.0,0.0,0.0,0.0,0.0,0.0,0.0,0.0,0.0,0.0,0.0,0.0,0.0,0.0,0.0,0.0,1.4337,1.4869,1.4886,0.0,0.0,0.0,0.0,0.0,0.0,1.6588,1.6988,0.0,0.0,0.0,0.0,0.0,0.0,0.0,0.0,0.0,0.0,0.0,0.0,0.0,0.0,0.0,0.0,0.0,0.0,0.0,0.0,0.0,0.0,0.0,0.0,0.0,0.0,0.0,0.0,0.0,0.0,0.0,0.0,0.0,0.0,0.0,0.0,0.0,0.0,0.0,0.0,0.0,0.0,0.0,0.0,0.0,0.0,0.0,0.0,0.0,0.0,0.0,0.0,0.0,0.0,0.0,1.6452,1.7366,1.8556,2.0049,2.0199,2.0131,1.9934,1.9182,1.8256,0.0,0.0,0.0,0.0,0.0,0.0,0.0,0.0,0.0,0.0,0.0,0.0,0.0,0.0,0.0,0.0,0.0,0.0,0.0,0.0,0.0,0.0,0.0,0.0,0.0,0.0,0.0,0.0,0.0,0.0,0.0,0.0,0.0,0.0,0.0,0.0,0.0,0.0,0.0,0.0,0.0,1.5148,1.5166,1.5301,0.0,0.0,0.0,0.0,1.6667,1.7276,0.0,0.0,0.0,0.0,0.0,0.0,0.0,0.0,0.0,0.0,0.0,0.0,0.0,0.0,0.0,0.0,0.0,0.0,0.0,0.0,0.0,0.0,0.0,0.0,0.0,0.0,0.0,0.0,0.0,0.0,0.0,0.0,0.0,0.0,0.0,0.0,0.0,0.0,0.0,0.0,0.0,0.0,0.0,0.0,0.0,0.0,0.0,0.0,0.0,0.0,0.0,0.0,0.0,0.0,0.0,0.0,1.6461,1.7361,1.8266,1.9219,1.9919,1.9892,1.9079,1.8995,1.8137,0.0,0.0,0.0,0.0,0.0,0.0,0.0,0.0,0.0,0.0,0.0,0.0,0.0,0.0,0.0,0.0,0.0,0.0,0.0,0.0,0.0,0.0,0.0,0.0,0.0,0.0,0.0,0.0,0.0,0.0,0.0,0.0,0.0,0.0,0.0,0.0,0.0,0.0,0.0,0.0,0.0,1.5986,1.6043,1.6663,1.7115,0.0,0.0,1.7598,1.8289,1.848,0.0,0.0,0.0,0.0,0.0,0.0,0.0,0.0,0.0,0.0,0.0,0.0,0.0,0.0,0.0,0.0,0.0,0.0,0.0,0.0,0.0,0.0,0.0,0.0,0.0,0.0,0.0,0.0,0.0,0.0,0.0,0.0,0.0,0.0,0.0,0.0,0.0,0.0,0.0,0.0,0.0,0.0,0.0,0.0,0.0,0.0,0.0,0.0,0.0,0.0,0.0,0.0,0.0,0.0,0.0,1.5258,1.647,1.7369,1.8234,1.9067,1.943,1.9412,1.8976,1.8071,1.7175,0.0,0.0,0.0,0.0,0.0,0.0,0.0,0.0,0.0,0.0,0.0,0.0,0.0,0.0,0.0,0.0,0.0,0.0,0.0,0.0,0.0,0.0,0.0,0.0,0.0,0.0,0.0,0.0,0.0,0.0,0.0,0.0,0.0,0.0,0.0,0.0,0.0,0.0,0.0,0.0,0.0,0.0,1.6809,1.7194,0.0,0.0,0.0,1.8305,1.865,0.0,0.0,0.0,0.0,0.0,0.0,0.0,0.0,0.0,0.0,0.0,0.0,0.0,0.0,0.0,0.0,0.0,0.0,0.0,0.0,0.0,0.0,0.0,0.0,0.0,0.0,0.0,0.0,0.0,0.0,0.0,0.0,0.0,0.0,0.0,0.0,0.0,0.0,0.0,0.0,0.0,0.0,0.0,0.0,0.0,0.0,0.0,0.0,0.0,0.0,0.0,0.0,0.0,0.0,0.0,0.0,0.0,1.6168,1.7047,1.7833,1.845,1.8682,1.8653,1.8381,1.7166,0.0,0.0,0.0,0.0,0.0,0.0,0.0,0.0,0.0,0.0,0.0,0.0,0.0,0.0,0.0,0.0,0.0,0.0,0.0,0.0,0.0,0.0,0.0,0.0,0.0,0.0,0.0,1.3076,0.0,0.0,0.0,0.0,0.0,0.0,0.0,0.0,0.0,0.0,0.0,0.0,0.0,0.0,1.7037,1.7638,1.7902,1.8071,0.0,0.0,1.902,1.9003,1.9566,1.9982,0.0,0.0,0.0,0.0,0.0,0.0,0.0,0.0,0.0,0.0,0.0,0.0,0.0,0.0,0.0,0.0,0.0,0.0,0.0,0.0,0.0,0.0,0.0,0.0,0.0,0.0,0.0,0.0,0.0,0.0,0.0,0.0,0.0,0.0,0.0,0.0,0.0,0.0,0.0,0.0,0.0,0.0,0.0,0.0,0.0,0.0,0.0,0.0,0.0,0.0,0.0,0.0,0.0,0.0,0.0,1.5319,1.6199,1.6734,1.6792,1.7504,1.753,1.6789,1.6614,1.6137,0.0,0.0,0.0,0.0,0.0,0.0,0.0,0.0,0.0,0.0,0.0,0.0,0.0,0.0,0.0,0.0,0.0,0.0,0.0,0.0,0.0,0.0,0.0,0.0,0.0,0.0,0.0,0.0,0.0,0.0,0.0,0.0,0.0,0.0,0.0,0.0,0.0,0.0,0.0,0.0,0.0,1.8546,1.8612,1.9308,1.9807,0.0,0.0,1.9882,1.983,1.9915,1.9988,1.9985,0.0,0.0,0.0,0.0,0.0,0.0,0.0,0.0,0.0,0.0,0.0,0.0,0.0,0.0,0.0,0.0,0.0,0.0,0.0,0.0,0.0,0.0,0.0,0.0,0.0,0.0,0.0,0.0,0.0,0.0,0.0,0.0,0.0,0.0,0.0,0.0,0.0,0.0,0.0,0.0,0.0,0.0,0.0,0.0,0.0,0.0,0.0,0.0,0.0,0.0,0.0,0.0,0.0,1.5223,1.5271,1.6142,1.6601,1.6601,1.6908,1.687,1.6489,1.5964,1.5564,0.0,0.0,0.0,0.0,0.0,0.0,0.0,0.0,0.0,0.0,0.0,0.0,0.0,0.0,0.0,0.0,0.0,0.0,0.0,0.0,0.0,0.0,0.0,0.0,0.0,0.0,0.0,0.0,1.5029,1.5265,1.5242,0.0,0.0,0.0,0.0,0.0,0.0,0.0,0.0,0.0,0.0,1.9004,1.9495,1.9888,0.0,0.0,2.0089,2.0054,2.004,2.0015,1.9987,1.999,2.0029,0.0,0.0,0.0,0.0,0.0,0.0,0.0,0.0,0.0,0.0,0.0,0.0,0.0,0.0,0.0,0.0,0.0,0.0,0.0,0.0,0.0,0.0,0.0,0.0,0.0,0.0,0.0,0.0,0.0,0.0,0.0,0.0,0.0,0.0,0.0,0.0,0.0,0.0,0.0,0.0,0.0,0.0,0.0,0.0,0.0,0.0,0.0,0.0,0.0,0.0,0.0,0.0,1.5616,1.5644,1.653,1.6963,1.6948,1.6715,1.6543,1.639,1.5605,1.5168,0.0,0.0,0.0,0.0,0.0,0.0,0.0,0.0,0.0,0.0,0.0,0.0,0.0,0.0,0.0,0.0,0.0,0.0,0.0,0.0,0.0,0.0,0.0,0.0,0.0,0.0,0.0,0.0,1.5293,1.5271,1.5207,0.0,0.0,0.0,0.0,0.0,0.0,0.0,0.0,0.0,0.0,1.949,2.0037,2.0171,2.0207,2.0194,2.0161,2.0116,2.0121,2.006,2.0031,2.001,0.0,0.0,0.0,0.0,0.0,0.0,0.0,0.0,0.0,0.0,0.0,0.0,0.0,0.0,0.0,0.0,0.0,0.0,0.0,0.0,0.0,0.0,0.0,0.0,0.0,0.0,0.0,0.0,0.0,0.0,1.4008,0.0,0.0,0.0,0.0,0.0,0.0,0.0,0.0,0.0,0.0,0.0,0.0,0.0,0.0,0.0,0.0,0.0,0.0,0.0,0.0,0.0,0.0,1.6452,1.6491,1.7323,1.7757,1.7736,1.7024,1.6562,1.6408,1.5579,1.5126,1.5131,0.0,0.0,0.0,0.0,0.0,0.0,0.0,0.0,0.0,0.0,0.0,0.0,0.0,0.0,0.0,0.0,0.0,0.0,0.0,0.0,0.0,0.0,0.0,0.0,0.0,0.0,1.537,1.5344,1.528,0.0,0.0,0.0,0.0,0.0,0.0,0.0,0.0,0.0,0.0,1.9627,2.0179,2.0181,2.0204,2.0204,2.0212,2.0195,2.0178,2.0107,2.0115,2.0107,0.0,0.0,0.0,0.0,0.0,0.0,0.0,0.0,0.0,0.0,0.0,0.0,0.0,0.0,0.0,0.0,0.0,0.0,0.0,0.0,0.0,0.0,0.0,0.0,0.0,0.0,0.0,1.6171,1.6172,0.0,0.0,0.0,0.0,0.0,0.0,0.0,0.0,0.0,0.0,0.0,1.9461,1.9466,0.0,0.0,0.0,0.0,0.0,0.0,0.0,0.0,0.0,0.0,0.0,0.0,1.6788,1.734,1.7656,1.7794,1.7794,1.7542,1.7372,1.7318,1.6972,1.6475,1.5864,0.0,0.0,0.0,0.0,0.0,0.0,0.0,0.0,0.0,0.0,0.0,0.0,0.0,0.0,0.0,0.0,0.0,0.0,0.0,0.0,0.0,0.0,0.0,0.0,0.0,1.5288,0.0,0.0,0.0,0.0,0.0,0.0,0.0,0.0,0.0,0.0,0.0,1.9223,1.9819,2.0154,2.0329,2.0336,2.0336,2.0344,0.0,0.0,0.0,0.0,0.0,0.0,0.0,0.0,0.0,0.0,0.0,0.0,0.0,0.0,2.1624,2.103,2.0923,2.112,2.1679,0.0,0.0,0.0,0.0,0.0,0.0,0.0,0.0,0.0,0.0,0.0,0.0,0.0,0.0,1.8641,0.0,1.8347,0.0,0.0,0.0,0.0,0.0,0.0,0.0,0.0,2.0279,2.0685,2.1204,2.1204,2.1204,0.0,2.0915,2.0241,0.0,0.0,0.0,0.0,0.0,0.0,0.0,0.0,1.7694,1.8247,1.8551,1.87,1.8703,1.8413,1.8242,1.8211,1.7788,1.7278,1.6663,1.6184,1.5813,0.0,0.0,0.0,0.0,0.0,0.0,0.0,0.0,0.0,0.0,0.0,0.0,0.0,0.0,0.0,0.0,0.0,0.0,0.0,0.0,0.0,0.0,0.0,1.5292,0.0,0.0,0.0,0.0,0.0,0.0,0.0,0.0,0.0,1.8967,1.9339,1.9765,2.0333,2.0417,2.0437,2.0432,0.0,0.0,0.0,0.0,0.0,0.0,0.0,2.1323,2.1906,2.2042,2.228,2.2829,2.2858,2.2795,2.2767,0.0,0.0,2.2003,2.1895,2.2054,2.2629,2.273,2.2728,2.273,2.2728,2.273,0.0,0.0,0.0,0.0,0.0,0.0,0.0,0.0,2.022,2.0125,0.0,1.938,0.0,0.0,0.0,0.0,0.0,2.0106,0.0,0.0,2.249,2.291,2.2893,2.2854,2.2889,2.2849,2.2098,2.1711,2.157,1.9994,0.0,0.0,0.0,0.0,0.0,0.0,1.9115,1.9151,1.9951,2.0384,2.0342,1.9552,1.9094,1.9031,1.8077,1.7556,1.7538,1.7481,1.7106,1.628,1.6336,0.0,0.0,0.0,0.0,0.0,0.0,0.0,0.0,0.0,0.0,0.0,0.0,0.0,0.0,0.0,0.0,0.0,0.0,0.0,0.0,1.535,0.0,0.0,0.0,0.0,0.0,0.0,0.0,0.0,0.0,0.0,1.9238,1.9895,2.0391,2.0415,0.0,0.0,0.0,0.0,2.0515,2.0461,2.1128,2.1646,2.165,2.2323,2.2888,2.2933,0.0,0.0,2.3101,2.2997,2.2963,2.2981,2.3064,2.295,2.2934,2.2885,2.2874,2.2953,2.2992,2.2915,2.2894,2.3071,2.303,2.3203,0.0,0.0,0.0,0.0,2.1879,2.1984,2.2005,2.2242,2.2203,2.1988,2.1988,0.0,0.0,0.0,0.0,0.0,0.0,2.2397,2.2638,2.287,2.2986,2.3046,2.2987,2.2987,2.2965,2.275,2.2322,2.169,2.1201,2.0646,2.0031,0.0,0.0,0.0,0.0,1.945,2.0009,2.0277,2.0392,2.0381,2.0149,1.9978,1.9844,1.9021,1.8528,1.8438,1.7878,1.7443,1.7201,1.6636,0.0,0.0,0.0,0.0,0.0,0.0,0.0,0.0,0.0,0.0,0.0,0.0,0.0,0.0,0.0,0.0,0.0,0.0,0.0,1.6991,1.6985,1.6993,0.0,0.0,0.0,0.0,0.0,0.0,0.0,0.0,0.0,2.0853,2.07,2.0473,0.0,0.0,2.047,2.0443,2.0959,2.1375,2.1388,2.207,0.0,2.2603,2.2806,2.3188,2.3785,2.4445,2.4864,2.4853,2.4823,2.4791,2.4753,2.4789,2.4794,2.47,2.4206,2.4051,2.4553,2.4727,2.4745,2.4708,2.4727,2.4727,2.6101,2.5061,2.3687,2.3304,2.3642,2.3983,2.4336,2.4668,2.4999,2.4765,2.414,2.414,2.375,2.3105,2.3104,0.0,0.0,0.0,2.3546,2.3538,2.3863,2.4056,2.4096,2.4053,2.4038,2.4029,2.3681,2.3259,2.2739,2.2403,2.1831,2.0946,0.0,0.0,2.0396,1.9972,1.9944,2.0405,2.0412,2.0382,2.0384,2.0377,2.0358,2.0268,1.975,1.9426,1.9353,1.8872,1.8421,1.808,1.7587,1.7026,0.0,0.0,0.0,0.0,0.0,0.0,0.0,0.0,0.0,0.0,0.0,1.5027,1.5142,0.0,0.0,0.0,1.6719,1.7147,1.7715,1.7722,0.0,0.0,0.0,0.0,0.0,0.0,0.0,2.0511,2.0693,2.1092,2.2124,2.1838,2.153,2.1535,2.1529,2.1522,2.1493,0.0,2.2269,2.2307,2.2994,2.3515,2.3529,2.3817,2.4223,2.4763,2.5245,2.5591,2.5612,2.5614,2.5574,2.5562,2.557,2.5576,2.5557,2.509,2.4874,2.5383,2.5521,2.5509,2.5509,2.5509,2.5509,2.8377,2.8026,2.4862,2.4003,2.4765,2.5585,2.6363,2.7144,2.7937,2.7407,2.5927,2.5904,2.4971,2.3416,2.334,0.0,2.3357,2.4134,2.4479,2.4449,2.5239,2.5603,2.5603,2.5597,2.5611,2.5589,2.4793,2.4365,2.4246,2.3553,2.2761,2.1888,2.1101,2.0651,2.0517,2.0513,2.0509,2.0504,2.0433,2.0408,2.0378,2.0378,2.0381,2.0384,2.0289,2.0217,2.0204,2.0129,1.9731,1.8954,1.8826,1.8097,1.6617,0.0,0.0,0.0,0.0,0.0,0.0,0.0,0.0,0.0,0.0,0.0,0.0,0.0,0.0,0.0,1.7288,0.0,1.7987,1.806,0.0,0.0,0.0,1.8895,2.0432,2.0594,2.1233,2.2813,0.0,0.0,2.3101,2.317,2.322,2.3288,2.3192,2.3109,2.3099,2.3124,2.3207,2.3197,2.389,2.4408,2.4431,2.5022,2.5461,2.5594,2.5664,2.5612,2.561,2.5612,2.561,2.5604,2.5607,2.5607,2.5605,2.5544,2.5576,2.5512,2.551,2.5519,2.5503,2.5523,2.5519,2.8899,2.8234,2.7414,2.7183,2.7382,2.759,2.7799,2.7995,2.8206,2.8069,2.7699,2.7659,2.7075,2.6044,2.5381,2.5071,2.5094,2.529,2.5389,2.5371,2.5586,2.5664,2.5683,2.5664,2.5681,2.5654,2.5474,2.5015,2.4314,2.4153,2.3654,2.2819,2.2573,2.1828,2.0559,2.0552,2.0548,2.0501,2.0475,2.0441,2.0402,2.038,2.0381,2.0381,2.0385,2.0307,2.02,2.0172,2.0057,1.9803,1.909,1.8317,1.7363,1.6744,0.0,0.0,0.0,0.0,0.0,0.0,0.0,0.0,0.0,1.6229,1.6327,0.0,1.7803,0.0,1.9096,1.9823,2.0587,2.0658,0.0,0.0,2.173,2.1871,2.2328,2.239,2.2528,2.2954,2.3032,2.3319,2.3981,2.4082,2.432,2.4954,2.393,2.31,2.3118,2.3691,2.4087,2.4162,2.4808,2.5357,2.5336,2.5534,2.5673,2.5698,2.5695,2.5673,2.5672,2.5667,2.5658,2.5623,2.5653,2.5635,2.5602,2.5598,2.5597,2.5569,2.5526,2.551,2.5551,2.5538,2.5519,2.9865,2.9415,2.9415,2.94,2.9387,2.9048,2.9065,2.9415,2.9415,2.922,2.885,2.8478,2.803,2.7562,2.7073,2.686,2.6862,2.6861,2.665,2.6282,2.6284,2.6071,2.57,2.5702,2.5703,2.5702,2.5701,2.5424,2.495,2.4954,2.4546,2.3688,2.3671,2.3026,2.175,2.1345,2.0972,2.0552,2.0514,2.0475,2.0403,2.0388,2.0378,2.0395,2.038,2.0363,2.029,2.0334,2.0317,2.0273,1.9736,1.9065,1.8293,1.784,1.7252,0.0,0.0,0.0,0.0,0.0,0.0,0.0,0.0,0.0,0.0,0.0,1.8928,2.0153,2.0891,2.1562,2.2162,2.2198,2.2382,2.2939,2.2959,2.3115,2.352,2.3567,2.3745,2.4152,2.4223,2.4444,2.4913,2.497,2.5147,2.562,2.4853,2.4261,2.428,2.4693,2.499,2.5009,2.5384,2.5699,2.5699,2.5699,2.5699,2.5699,2.5699,2.5699,2.5699,2.5699,2.5675,2.5647,2.5692,2.5696,2.5645,2.5643,2.5642,2.5638,2.5593,2.5564,2.5598,2.5538,2.5513,3.0801,3.0801,3.0801,3.0801,3.0742,3.0041,3.0158,3.0801,3.0801,3.0411,2.969,2.885,2.8459,2.8459,2.8341,2.8283,2.8283,2.8283,2.7893,2.7172,2.716,2.6772,2.6031,2.5917,2.5879,2.5859,2.5761,2.5703,2.5703,2.5703,2.5312,2.4609,2.457,2.416,2.334,2.2598,2.1738,2.0781,2.058,2.0478,2.0418,2.0408,2.0425,2.0424,2.0413,2.0426,2.0393,2.0444,2.0476,2.0473,2.0351,1.9926,1.9151,1.908,1.8686,0.0,1.7905,0.0,0.0,0.0,0.0,0.0,0.0,0.0,0.0,1.9022,2.0233,2.1735,2.2452,2.2912,2.3139,2.3139,2.3208,2.3315,2.3314,2.3625,2.4368,2.4466,2.478,2.56,2.5699,2.5699,2.566,2.5699,2.5699,2.5699,2.562,2.5522,2.5639,2.562,2.562,2.5699,2.5699,2.5699,2.5699,2.5699,2.5699,2.5699,2.5699,2.5699,2.5699,2.5699,2.5699,2.5698,2.5698,2.5698,2.5699,2.5698,2.5698,2.5697,2.5643,2.5604,2.5621,2.5556,2.551,3.0801,3.0801,3.0801,3.0801,3.0781,3.0625,3.0644,3.0801,3.0801,3.0722,3.0528,2.9709,2.9358,2.9299,2.8615,2.8283,2.8283,2.8283,2.8224,2.8049,2.8051,2.7974,2.7759,2.7079,2.6767,2.6709,2.6047,2.5697,2.5697,2.57,2.5624,2.5449,2.5448,2.5018,2.4199,0.0,0.0,0.0,2.0874,2.0491,2.0477,2.0483,2.0474,2.0477,2.0473,0.0,2.0327,2.0329,2.0349,2.035,2.0264,0.0,0.0,0.0,0.0,0.0,0.0,0.0,0.0,0.0,0.0,0.0,1.9828,1.9769,1.986,2.1318,2.2402,2.2724,2.2874,2.3239,2.3902,2.3985,2.4261,2.4928,2.5012,2.5117,2.5342,2.5334,2.5461,2.5658,2.5699,2.5699,2.5699,2.5699,2.5699,2.5699,2.5699,2.5699,2.5738,2.5718,2.5699,2.5699,2.5699,2.5699,2.5699,2.5699,2.5699,2.5699,2.5699,2.5699,2.5699,2.5699,2.5699,2.5699,2.5699,2.5699,2.5699,2.5699,2.5699,2.5699,2.5696,2.5672,2.5687,2.563,2.5565,3.079,0.0,3.0798,3.0801,0.0,3.0801,3.0801,3.0801,3.0801,3.0801,3.0762,3.0353,3.0197,3.0157,2.9727,2.9532,2.9532,2.9533,2.9337,2.8948,2.893,2.8716,2.8286,2.7861,2.7647,2.7608,2.677,2.636,2.6321,2.5894,2.57,2.5701,2.57,2.5486,2.5037,2.4607,2.3787,2.2499,2.2012,2.1775,2.1788,2.1779,2.1779,2.1787,2.1788,0.0,0.0,0.0,0.0,0.0,0.0,0.0,0.0,2.101,0.0,2.0447,2.0388,2.0386,2.038,2.0357,2.0732,2.1523,2.199,2.2047,2.1674,2.2842,2.3597,2.361,2.3986,2.4393,2.4778,2.4833,2.501,2.5437,2.5526,2.5578,2.5585,2.5619,2.5668,2.5696,2.5699,2.5699,2.5699,2.5699,2.5699,2.5699,2.5699,2.5874,2.6166,2.5952,2.5699,2.5699,2.5699,2.5699,2.5699,2.5699,2.5699,2.5699,2.5699,2.5699,2.5699,2.5699,2.5699,2.5699,2.5699,2.5699,2.5699,2.5699,2.5699,2.5699,2.5699,2.5699,2.5698,2.5644,2.5604,3.0795,3.0799,3.0792,3.0798,3.0801,3.0801,3.0801,3.0801,0.0,0.0,0.0,3.0801,3.0801,3.0801,3.0801,3.0801,3.0801,3.0801,3.0431,2.9827,2.983,2.9422,2.8757,2.8586,2.8529,2.849,2.765,2.7142,2.6986,2.6264,2.5855,2.5718,2.5699,2.5698,2.564,2.4976,2.4272,2.3589,2.3258,2.3105,2.3105,2.3104,2.3099,2.3111,2.3111,2.3111,2.3107,2.3106,2.311,2.3101,2.3102,2.3107,2.3094,2.3078,2.3077,2.3106,2.3077,2.3008,2.2929,2.2925,2.2948,2.2957,2.38,2.3986,2.3275,2.3966,2.4426,2.443,2.5084,2.5513,2.5523,2.5494,2.5522,2.5533,2.5561,2.5609,2.5615,2.5669,2.5698,2.5718,2.5854,2.5913,2.5971,2.6108,2.6146,2.6167,2.6282,2.6342,2.6848,2.6458,2.5972,2.5991,2.5854,2.5699,2.5699,2.5699,2.5699,2.5699,2.5699,2.5699,2.5699,2.5699,2.5699,2.5699,2.5699,2.5699,2.5699,2.5699,2.5699,2.5699,2.5699,2.5699,2.5697,2.5666,2.5615,3.08,3.0799,3.0801,3.079,3.0801,3.0801,3.0801,3.0801,3.0801,3.0801,3.0801,3.0801,3.0801,3.0801,3.0801,3.0801,3.0801,3.0801,3.0742,3.0645,3.0626,3.0568,3.0412,2.973,2.9419,2.9341,2.852,2.7739,2.7057,2.6881,2.6453,2.5772,2.5692,2.569,2.569,2.5573,2.5455,2.5299,2.3861,2.3103,2.3104,2.3105,2.3105,2.3103,2.3133,2.3106,2.3104,2.3125,2.3113,2.3096,2.3096,2.3097,2.3101,2.3041,2.2964,2.3085,2.2989,2.2934,2.2993,2.298,2.3293,2.404,2.4874,2.5007,2.4158,2.4818,2.5316,2.5335,2.5436,2.5505,2.552,2.5515,2.5522,2.5587,2.5603,2.5617,2.5692,2.5736,2.5758,2.5779,2.6322,2.6732,2.6796,2.7318,2.7688,2.7784,2.7673,2.7862,2.7829,2.7276,2.6789,2.6653,2.6128,2.5757,2.5699,2.5699,2.5699,2.5699,2.5699,2.5699,2.5699,2.5699,2.5699,2.5699,2.5699,2.5699,2.5699,2.5699,2.57,2.5701,2.5702,2.5699,2.5704,2.5703,2.5673,3.2147,3.2164,3.2191,3.2205,3.2174,3.1696,3.1211,3.0801,3.0801,3.0801,3.0801,3.0801,3.0801,3.0801,3.0801,3.0801,3.0801,3.0801,3.0801,3.0801,3.0801,3.0801,3.0762,3.043,3.0255,3.0177,2.9416,2.8557,2.7738,2.725,2.6548,2.5748,2.5688,2.5688,2.5688,2.5688,2.5688,2.5668,2.4911,2.4522,2.4504,2.4505,2.4509,2.4512,2.4511,2.4506,2.4511,2.4501,2.4509,2.4492,2.451,2.4511,2.4512,2.4444,2.4463,2.4502,2.4425,2.4387,2.445,2.4434,2.4581,2.4989,2.5788,2.6076,2.5659,2.554,2.5513,2.5549,2.5517,2.552,2.5556,2.5559,2.5581,2.5608,2.5638,2.5669,2.5755,2.6127,2.6368,2.6462,2.7108,2.7601,2.7653,2.7974,2.8207,2.8274,2.858,2.8886,2.8881,2.8148,2.743,2.6949,2.6225,2.5757,2.57,2.5699,2.5699,2.5699,2.5699,2.5699,2.5699,2.5699,2.57,2.5699,2.5699,2.5699,2.57,2.5699,2.5705,2.5699,2.5689,2.5691,2.5693,2.5702,2.5673,3.3297,3.3309,3.3356,3.3378,3.3332,3.2688,3.1895,3.1113,3.1113,3.0977,3.0801,3.0801,3.0801,3.0801,3.0801,3.0801,3.0801,3.0801,3.0801,3.0801,3.0801,3.0801,3.0801,3.0801,3.0801,3.0742,3.0157,2.9338,2.8323,2.7601,2.6722,2.5805,2.5688,2.5688,2.5688,2.5688,2.5688,2.5688,2.5688,2.5688,2.5688,2.5688,2.5693,2.57,2.5682,2.5781,2.5985,2.5981,2.599,2.5987,2.5984,2.5922,2.5718,2.5699,2.5699,2.5698,2.5645,2.5741,2.5949,2.6113,2.618,2.62,2.6744,2.7119,2.7058,2.6509,2.6031,2.5907,2.585,2.5772,2.5646,2.5827,2.5884,2.5888,2.6145,2.6335,2.6334,2.6846,2.7228,2.7364,2.799,2.8522,2.8568,2.87,2.8873,2.9055,2.9422,2.9772,2.9701,2.8933,2.7942,2.7266,2.6382,2.5741,2.57,2.5702,2.5702,2.5699,2.5701,2.5705,2.5704,2.5702,2.57,2.5703,2.5702,2.5705,2.5702,2.5702,2.569,2.5702,2.5695,2.5694,2.5695,2.5698,2.5697,3.3335,3.33,3.339,3.3366,3.3409,3.3312,3.2792,3.2032,3.1993,3.1524,3.0879,3.0801,3.0801,3.0801,3.0801,3.0801,3.0801,3.0801,3.0801,3.0801,3.0801,3.0801,3.0801,3.0801,3.0801,3.0781,3.0684,2.9805,2.8341,2.8127,2.7288,2.5883,2.5688,2.5688,2.5688,2.5688,2.5688,2.5688,2.5688,2.5688,2.5688,2.5688,2.5688,2.569,2.5719,2.6073,2.6777,2.6874,2.6886,2.6891,2.6888,2.6527,2.5861,2.5718,2.5718,2.5738,2.5736,2.6009,2.6749,2.7526,2.7896,2.7974,2.7994,2.8051,2.8069,2.7993,2.7576,2.6959,2.6714,2.6414,2.5775,2.6313,2.6776,2.6833,2.7401,2.7979,2.7904,2.8074,2.8159,2.818,2.8883,2.9372,2.9451,2.9939,3.0406,3.031,3.0387,3.0523,3.0408,2.9215,2.8276,2.7884,2.681,2.5814,2.5696,2.5698,2.5695,2.5695,2.5697,2.5695,2.5694,2.5695,2.5697,2.5691,2.5695,2.5695,2.5695,2.5698,2.5696,2.5698,2.5698,2.5698,2.57,2.5701,2.57,3.4775,3.4791,3.4818,3.4571,3.4211,3.4172,3.367,3.285,3.2304,3.1895,3.1524,3.1035,3.0801,3.0801,3.0801,3.0801,3.0801,3.0801,3.0801,3.0801,3.0801,3.0801,3.0801,3.0801,3.0801,3.0801,3.0801,2.9942,2.8381,2.7288,2.639,2.5765,2.5688,2.5688,2.5688,2.5688,2.5688,2.5688,2.5688,2.5688,2.5688,2.5688,2.5688,2.5766,2.6202,2.6597,2.701,2.748,2.7773,2.7765,2.7736,2.755,2.7209,2.717,2.7178,2.7198,2.7179,2.7333,2.7646,2.7995,2.8201,2.82,2.8684,2.8965,2.8984,2.9429,2.9365,2.8519,2.7949,2.747,2.7196,2.7505,2.7711,2.7774,2.8074,2.8272,2.8253,2.8726,2.9022,2.9101,2.9766,3.0273,3.031,3.0582,3.078,3.0801,3.0801,3.0801,3.0701,2.9355,2.8418,2.8084,2.6833,2.584,2.5702,2.57,2.57,2.57,2.57,2.57,2.57,2.57,2.57,2.57,2.5701,2.5701,2.5699,2.57,2.5701,2.5703,2.5702,2.5701,2.5703,2.5703,2.5701,3.5803,3.5823,3.5889,3.5564,3.5032,3.505,3.4549,3.3748,3.3066,3.2695,3.2403,3.1776,3.1523,3.1444,3.1034,3.0801,3.0801,3.0801,3.0801,3.0801,3.0801,3.0801,3.0801,3.0801,3.0801,3.0801,3.0801,2.9942,2.8322,2.682,2.5942,2.5746,2.5688,2.5688,2.5688,2.5688,2.5688,2.5688,2.5688,2.5688,2.5727,2.5942,2.6059,2.6117,2.6898,2.7469,2.771,2.8316,2.8651,2.8671,2.8608,2.8462,2.8217,2.8198,2.8201,2.8231,2.8444,2.8547,2.8556,2.8791,2.8902,2.8947,2.9544,2.986,2.9958,3.0426,3.0484,2.9918,2.9266,2.8831,2.8265,2.847,2.861,2.863,2.8807,2.8984,2.9062,2.955,2.9882,2.9976,3.0386,3.0794,3.0785,3.0783,3.0788,3.0795,3.0796,3.0794,3.0571,2.9425,2.8295,2.8207,2.682,2.5812,2.5703,2.5703,2.5703,2.5703,2.5703,2.5703,2.5703,2.5703,2.5703,2.5702,2.5703,2.5703,2.5703,2.5703,2.5703,2.5701,2.5696,2.5692,2.5699,2.5694,2.5692,3.5842,3.5887,3.5884,3.5863,3.5831,3.5868,3.5446,3.4628,3.453,3.4081,3.3377,3.3221,3.3241,3.3084,3.162,3.084,3.0859,3.0937,3.0956,3.0957,3.0918,3.084,3.0801,3.0801,3.082,3.0898,3.082,2.9962,2.8381,2.7406,2.6509,2.5785,2.5766,2.5727,2.5688,2.5688,2.5688,2.5688,2.5688,2.5688,2.5805,2.6489,2.6899,2.7016,2.7776,2.8597,2.9301,2.9496,2.9541,2.9529,2.953,2.916,2.8379,2.8275,2.8322,2.8356,2.9012,2.9435,2.9537,3.0131,3.0549,3.0599,3.0563,3.07,3.0604,3.0721,3.074,3.07,3.0547,2.9922,2.8787,2.91,2.9432,2.9491,3.0156,3.0507,3.0585,3.0501,3.0707,3.0686,3.0726,3.0784,3.0801,3.0801,3.0801,3.0784,3.0783,3.0802,3.0568,2.9358,2.8441,2.7972,2.6936,2.5689,2.569,2.5695,2.5694,2.5695,2.5697,2.5693,2.569,2.5689,2.5691,2.5692,2.5695,2.5695,2.5692,2.5691,2.5693,2.5691,2.5692,2.5691,2.5694,2.5713,2.5829,3.5825,3.5885,3.5889,3.5893,3.5889,3.5966,3.5817,3.5466,3.492,3.453,3.4159,3.3651,3.3397,3.3377,3.2752,3.2459,3.246,3.2479,3.2459,3.2459,3.2459,3.2459,3.2401,3.1914,3.1641,3.1543,3.1055,3.0235,2.9162,2.8245,2.7386,2.6664,2.6548,2.6274,2.5805,2.5688,2.5688,2.5707,2.5688,2.5688,2.5825,2.6548,2.725,2.7835,2.8674,2.928,2.9592,3.0099,3.0355,3.0359,3.0366,3.0214,2.9901,2.9858,2.9871,2.9885,3.0157,3.0335,3.0361,3.0622,3.08,3.0801,3.0799,3.0797,3.0796,3.0796,3.0796,3.0796,3.0794,3.0422,3.0169,3.0171,3.0327,3.0365,3.0597,3.0791,3.0789,3.0785,3.0801,3.0801,3.0801,3.0801,3.0801,3.0801,3.0801,3.0801,3.0801,3.0801,3.0547,2.9376,2.8283,2.8029,2.6878,2.5688,2.5688,2.5688,2.5688,2.5688,2.5689,2.569,2.5688,2.5688,2.569,2.569,2.5688,2.5688,2.5689,2.5689,2.5688,2.5688,2.5688,2.573,2.5691,2.6046,2.6341,3.5855,3.5887,3.5887,3.5893,3.591,3.5986,3.6011,3.5933,3.5368,3.5115,3.4997,3.449,3.4236,3.4236,3.4236,3.4255,3.4157,3.3689,3.3397,3.3397,3.3397,3.3397,3.326,3.2519,3.211,3.1973,3.1211,3.0392,2.9631,2.9006,2.8283,2.7465,2.7172,2.6723,2.6176,2.5864,2.5805,2.604,2.6118,2.6234,2.6585,2.7406,2.8109,2.8733,2.9552,2.9982,3.0001,3.0528,3.0801,3.0802,3.0791,3.0797,3.0799,3.08,3.0797,3.0797,3.0777,3.0798,3.08,3.0801,3.0799,3.0796,3.0789,3.0801,3.0801,3.0801,3.0801,3.0801,3.0801,3.0801,3.0801,3.0782,3.0801,3.0801,3.0801,3.0801,3.0801,3.0801,3.0801,3.0801,3.0801,3.0801,3.0801,3.0801,3.0801,3.0801,3.0801,3.0801,3.0606,2.9415,2.8283,2.8146,2.6799,2.5902,2.5707,2.5707,2.5707,2.5688,2.5688,2.5688,2.5688,2.5688,2.5688,2.5688,2.5688,2.5688,2.5688,2.5689,2.5689,2.569,2.5751,2.5794,2.6087,2.6576,2.6929,3.5896,3.5965,3.5925,3.6001,3.6027,3.6103,3.605,3.5992,3.5952,3.5875,3.5797,3.5856,3.5718,3.5856,3.5679,3.5875,3.5524,3.4314,3.3689,3.367,3.363,3.3611,3.3591,3.2812,3.2227,3.2071,3.1231,3.041,2.9729,2.9612,2.9162,2.8304,2.7581,2.7231,2.6997,2.6352,2.6273,2.684,2.6997,2.7386,2.8244,2.887,2.93,2.9553,3.0235,3.0625,3.0742,3.0781,3.0801,3.0801,3.0801,3.0789,3.0798,3.0801,3.0798,3.0799,3.0798,3.08,3.08,3.0799,3.0795,3.0787,3.0801,3.0801,3.0801,3.0801,3.0801,3.0801,3.0801,3.0801,3.0801,3.0801,3.0801,3.0801,3.0801,3.0801,3.0801,3.0801,3.0801,3.0801,3.0801,3.0801,3.0801,3.0801,3.0801,3.0801,3.0801,3.0801,3.0684,2.9493,2.8517,2.8088,2.7112,2.6117,2.5883,2.5727,2.5707,2.5688,2.5688,2.5688,2.5688,2.5688,2.5688,2.5688,2.5689,2.569,2.5691,2.5692,2.5694,2.5715,2.5795,2.5992,2.6501,2.7009,2.7616,3.6118,3.6644,3.675,3.6789,3.6805,3.6864,3.6578,3.6031,3.6011,3.6011,3.6011,3.6011,3.6011,3.6011,3.6011,3.6011,3.5953,3.5407,3.5172,3.5133,3.5153,3.5133,3.4978,3.4276,3.3261,3.2129,3.1211,3.0703,3.0489,3.0431,3.0001,2.9261,2.8909,2.848,2.7913,2.7639,2.7679,2.7835,2.7894,2.8049,2.8302,2.8576,2.9006,2.9553,2.9846,3.0216,3.0762,3.0801,3.0801,3.0801,3.0801,3.0784,3.0789,3.0793,3.0794,3.0795,3.0795,3.0794,3.079,3.079,3.0807,3.0801,3.0801,3.0801,3.0801,3.082,3.082,3.082,3.0801,3.0801,3.0801,3.0801,3.0801,3.0801,3.0801,3.0801,3.0801,3.0801,3.0801,3.0801,3.0801,3.0801,3.0801,3.0801,3.0781,3.0742,3.0742,3.0742,3.0587,2.9768,2.924,2.9065,2.7699,2.6627,2.6589,2.6414,2.6218,2.6061,2.5924,2.5728,2.5688,2.5689,2.5689,2.569,2.5692,2.5692,2.5693,2.5695,2.5697,2.5698,2.5739,2.6189,2.6854,2.7441,2.8007,3.6605,3.7361,3.7499,3.7533,3.7486,3.729,3.6889,3.6398,3.607,3.5981,3.599,3.6011,3.6011,3.6011,3.6011,3.6011,3.6011,3.6011,3.6011,3.6011,3.6011,3.6011,3.5875,3.5095,3.4003,3.2753,3.2031,3.1601,3.1289,3.125,3.0859,3.0157,2.9768,2.9338,2.8771,2.8478,2.84,2.8713,2.8791,2.8928,2.9161,2.922,2.9474,2.9982,3.0041,3.0294,3.0762,3.0801,3.0801,3.0801,3.0801,3.0801,3.0801,3.0801,3.0801,3.0801,3.0801,3.0801,3.0801,3.0802,3.0977,3.1172,3.127,3.1465,3.1601,3.1562,3.127,3.127,3.0996,3.0801,3.0801,3.0801,3.0801,3.0801,3.0801,3.0801,3.0801,3.0801,3.0801,3.0801,3.0801,3.0801,3.0801,3.0801,3.0645,3.047,3.0354,3.0355,3.02,2.9616,2.948,2.9246,2.837,2.7687,2.7472,2.7179,2.6807,2.6493,2.6218,2.5905,2.569,2.5691,2.5692,2.5695,2.5697,2.5697,2.5697,2.5699,2.5701,2.5701,2.5762,2.6426,2.709,2.7754,2.8418,3.7321,3.8057,3.8154,3.8197,3.8095,3.7495,3.7248,3.7039,3.6356,3.6093,3.6119,3.6049,3.6011,3.6011,3.6011,3.6011,3.6011,3.6011,3.6011,3.6011,3.6011,3.6011,3.5874,3.5095,3.4256,3.3573,3.3299,3.287,3.2207,3.2148,3.1738,3.0899,3.0295,2.9749,2.9592,2.8869,2.8986,2.9592,2.967,3.0002,3.0586,3.0683,3.0683,3.0722,3.0703,3.0722,3.0781,3.0801,3.0801,3.0801,3.0801,3.0801,3.0801,3.0801,3.0801,3.0801,3.0801,3.0879,3.0859,3.1016,3.1347,3.207,3.2187,3.2481,3.2948,3.2519,3.207,3.1934,3.1387,3.0918,3.0859,3.0801,3.0801,3.0801,3.0801,3.0801,3.0801,3.0801,3.0801,3.0801,3.0801,3.0801,3.0802,3.0802,3.0491,3.0103,2.9929,2.999,2.9892,2.968,2.9194,2.896,2.892,2.8588,2.8334,2.7846,2.7475,2.722,2.6808,2.63,2.5889,2.5812,2.5695,2.5698,2.57,2.57,2.57,2.5702,2.5702,2.5702,2.6055,2.6699,2.7402,2.8125,2.8965,3.8123,3.8873,3.9023,3.9072,3.9046,3.8851,3.8454,3.7922,3.7126,3.6725,3.6692,3.6235,3.601,3.6011,3.6011,3.6011,3.6011,3.6011,3.6011,3.6011,3.6011,3.6011,3.5836,3.5135,3.4608,3.4315,3.3826,3.328,3.3065,3.3065,3.2597,3.1778,3.1524,3.1075,3.0508,3.0235,3.0254,3.045,3.047,3.0528,3.0722,3.0801,3.0801,3.0801,3.0801,3.0801,3.0801,3.0801,3.0801,3.0801,3.0801,3.0801,3.0801,3.0801,3.0801,3.0801,3.084,3.1113,3.1582,3.1739,3.2168,3.2928,3.3046,3.3162,3.3338,3.3221,3.2734,3.2286,3.1817,3.1485,3.0996,3.0801,3.0801,3.0801,3.0801,3.0801,3.0801,3.0801,3.0801,3.0801,3.0801,3.0823,3.0845,3.0847,3.0731,3.05,3.0384,3.0365,3.0112,3.0132,2.9802,2.9977,2.9918,2.9507,2.9097,2.8571,2.818,2.7965,2.7496,2.6851,2.6402,2.605,2.5855,2.57,2.5701,2.5702,2.5702,2.5703,2.5703,2.5703,2.6328,2.6973,2.791,2.8711,2.9531,3.888,3.9663,3.9738,3.9794,3.9767,3.9467,3.9111,3.8572,3.7532,3.7041,3.6914,3.6288,3.598,3.6011,3.6011,3.6011,3.6011,3.6011,3.6011,3.6011,3.6011,3.6011,3.5875,3.5427,3.5232,3.5212,3.4724,3.4314,3.4022,3.3964,3.3476,3.2792,3.2636,3.2207,3.1407,3.1348,3.1152,3.0859,3.0801,3.0801,3.0801,3.0801,3.0801,3.0801,3.0801,3.0801,3.0801,3.0801,3.0801,3.0801,3.0801,3.0801,3.0801,3.0801,3.0801,3.0801,3.1113,3.1602,3.2032,3.2402,3.3046,3.3729,3.3944,3.4158,3.4353,3.4217,3.3651,3.334,3.291,3.2246,3.1504,3.1055,3.082,3.0801,3.0801,3.0801,3.0801,3.0801,3.0822,3.0823,3.0825,3.0846,3.089,3.0911,3.0716,3.0425,3.0172,3.0212,3.0213,3.0389,3.0527,3.0566,3.0605,3.0234,2.9805,2.9316,2.8652,2.8418,2.7851,2.7246,2.6541,2.6113,2.5937,2.5723,2.5703,2.5703,2.5703,2.5703,2.5703,2.5918,2.6543,2.7285,2.8184,2.918,3.0019,3.958,4.032,4.0306,4.0323,4.0243,3.9576,3.9334,3.9052,3.7776,3.708,3.6902,3.6253,3.5961,3.6011,3.6011,3.6011,3.6011,3.6011,3.6011,3.6011,3.6011,3.6011,3.5991,3.5914,3.5856,3.5856,3.5991,3.5485,3.4979,3.4842,3.4374,3.3729,3.3534,3.3065,3.2402,3.2226,3.1758,3.1191,3.1094,3.0957,3.084,3.0801,3.0801,3.082,3.1055,3.1191,3.1249,3.123,3.121,3.1113,3.0977,3.1094,3.1094,3.1133,3.1152,3.1327,3.1894,3.2305,3.252,3.3241,3.3904,3.4627,3.4822,3.5115,3.5504,3.5173,3.4725,3.4394,3.3964,3.3163,3.2363,3.1582,3.1367,3.1386,3.123,3.1113,3.1055,3.0996,3.096,3.1024,3.1025,3.1027,3.0932,3.0856,3.0661,3.0525,3.0311,3.035,3.037,3.041,3.0605,3.0781,3.082,3.0879,3.0469,3.0078,2.9355,2.8769,2.8047,2.7324,2.6348,2.5918,2.5859,2.5762,2.5723,2.5703,2.5703,2.5703,2.5781,2.625,2.6934,2.7617,2.8359,2.9434,3.0371,4.0129,4.032,4.032,4.0337,4.0364,4.0196,3.981,3.9239,3.826,3.7493,3.6942,3.6234,3.5956,3.6011,3.6011,3.6011,3.6031,3.605,3.6011,3.6011,3.6011,3.6011,3.605,3.6128,3.605,3.6031,3.6011,3.5895,3.5699,3.5544,3.5271,3.453,3.4374,3.4003,3.3241,3.3085,3.2695,3.1992,3.1817,3.1504,3.1055,3.0977,3.0977,3.1016,3.1504,3.2167,3.2713,3.285,3.285,3.2674,3.2285,3.2168,3.2538,3.2675,3.2655,3.2713,3.2909,3.3398,3.4003,3.4295,3.4763,3.5485,3.5622,3.5797,3.5934,3.5856,3.5368,3.4901,3.4491,3.4021,3.3241,3.2967,3.2674,3.2596,3.2636,3.2714,3.2713,3.2226,3.1881,3.1847,3.1808,3.1612,3.1033,3.0935,3.076,3.0605,3.0586,3.0605,3.0566,3.0508,3.0664,3.0898,3.0898,3.0898,3.0684,3.0156,2.9355,2.8789,2.8164,2.75,2.6504,2.625,2.6387,2.6113,2.5703,2.5742,2.5977,2.6055,2.6191,2.6758,2.7383,2.8184,2.9023,2.9941,3.0469,4.032,4.0319,4.0324,4.0359,4.0437,4.0422,4.0006,3.9242,3.8457,3.7685,3.6958,3.6228,3.5956,3.601,3.6011,3.6011,3.6128,3.6461,3.6617,3.6735,3.6988,3.7242,3.7223,3.7086,3.691,3.6226,3.6011,3.6011,3.6011,3.6011,3.5739,3.5349,3.529,3.4842,3.4139,3.4003,3.3553,3.289,3.2714,3.246,3.2089,3.2031,3.2031,3.205,3.248,3.2967,3.3299,3.3358,3.3612,3.3787,3.3573,3.328,3.3358,3.3397,3.3397,3.3436,3.3866,3.4139,3.4628,3.5095,3.5485,3.5953,3.6011,3.6011,3.6011,3.6011,3.5817,3.5446,3.5232,3.4958,3.412,3.3514,3.3455,3.3377,3.3419,3.3557,3.3753,3.3246,3.2722,3.2611,3.2319,3.1989,3.16,3.1348,3.1016,3.0898,3.0801,3.082,3.0781,3.0742,3.0781,3.0918,3.0918,3.0859,3.0723,3.0137,2.918,2.8652,2.8184,2.7559,2.6797,2.6894,2.7148,2.6602,2.6016,2.6328,2.6523,2.6582,2.6875,2.7539,2.8242,2.8945,2.957,3.0195,3.0586,4.0309,4.0316,4.0316,4.0388,4.0455,4.0348,3.9796,3.9007,3.8267,3.74,3.6805,3.613,3.5937,3.5986,3.6011,3.6011,3.6226,3.6832,3.7145,3.7223,3.7966,3.8239,3.8337,3.822,3.7809,3.65,3.6597,3.6578,3.6539,3.6265,3.6324,3.6169,3.5992,3.5543,3.5018,3.4861,3.447,3.3709,3.3592,3.3416,3.3123,3.3064,3.2947,3.3201,3.3494,3.3748,3.3982,3.4061,3.4217,3.4822,3.4901,3.451,3.4041,3.3807,3.3807,3.3884,3.4588,3.4901,3.5115,3.5544,3.5952,3.6011,3.6011,3.6011,3.6011,3.6011,3.5953,3.5953,3.5836,3.5621,3.494,3.447,3.404,3.3925,3.3851,3.4148,3.4539,3.4227,3.3919,3.353,3.3239,3.2909,3.2402,3.2012,3.1582,3.123,3.1152,3.1094,3.1094,3.0937,3.0957,3.0918,3.0918,3.0547,3.0332,3.0215,2.9258,2.873,2.8262,2.7851,2.7324,2.748,2.7559,2.6855,2.6504,2.6914,2.7285,2.7461,2.7871,2.8437,2.8906,2.9434,2.9941,3.043,3.0703,4.0335,4.0375,4.0398,4.0413,4.0363,3.9749,3.8989,3.8164,3.7462,3.6672,3.5993,3.5918,3.5937,3.6005,3.6011,3.6011,3.6305,3.7008,3.7458,3.7633,3.8376,3.8825,3.8884,3.8923,3.8551,3.8298,3.8161,3.8141,3.7809,3.7497,3.7125,3.6949,3.6402,3.5914,3.5875,3.5739,3.5271,3.4607,3.4471,3.4217,3.369,3.3202,3.3124,3.3651,3.4198,3.4744,3.5329,3.5504,3.5641,3.5778,3.5778,3.566,3.5426,3.5387,3.5386,3.5387,3.5485,3.5621,3.5719,3.5856,3.6011,3.6011,3.6011,3.6011,3.6011,3.6011,3.6011,3.6011,3.6011,3.5914,3.5797,3.5407,3.5524,3.5506,3.5395,3.5458,3.5596,3.5443,3.5075,3.4568,3.4256,3.3887,3.332,3.2832,3.25,3.2226,3.209,3.2012,3.1973,3.1504,3.1055,3.0996,3.0918,3.0391,2.9883,2.9844,2.9434,2.8984,2.8613,2.8496,2.8144,2.8144,2.7891,2.7519,2.7519,2.793,2.8203,2.8379,2.8769,2.9316,2.9609,2.9863,3.0293,3.0703,3.0762,4.0366,4.0445,4.0449,4.0225,3.9861,3.9438,3.8508,3.739,3.6999,3.6439,3.5917,3.5841,3.5958,3.6005,3.6011,3.6226,3.6793,3.7555,3.816,3.8648,3.945,3.9899,3.984,3.984,3.9898,3.9899,3.9879,3.9352,3.865,3.818,3.7966,3.777,3.7105,3.6675,3.6539,3.6168,3.5836,3.5407,3.5329,3.5154,3.4724,3.4217,3.4412,3.4705,3.5056,3.5563,3.5856,3.6011,3.5991,3.5991,3.5991,3.6011,3.6011,3.6011,3.6011,3.6011,3.6011,3.6011,3.6011,3.6011,3.6011,3.6011,3.6011,3.6011,3.6011,3.6011,3.6011,3.6011,3.6011,3.6011,3.5972,3.6012,3.6014,3.6019,3.6005,3.6007,3.6009,3.6014,3.5721,3.5292,3.4824,3.4414,3.416,3.375,3.3457,3.3242,3.3066,3.293,3.2832,3.2207,3.1543,3.1309,3.1211,3.0684,3.0195,3.0098,2.998,2.9512,2.9141,2.9023,2.8984,2.8984,2.8906,2.8652,2.8828,2.8965,2.9199,2.9394,2.9785,3.0078,3.0273,3.0449,3.0703,3.0918,3.0918,4.0396,4.0499,4.0499,4.0038,3.9335,3.9111,3.8161,3.6904,3.6642,3.6287,3.5781,3.5834,3.5948,3.6046,3.6285,3.6675,3.7419,3.8298,3.9117,3.9702,4.0503,4.103,4.1069,4.1108,4.0952,4.0796,4.0855,4.0426,3.9489,3.8961,3.8845,3.861,3.7985,3.7419,3.7164,3.6656,3.6285,3.6031,3.6011,3.5953,3.5798,3.5914,3.5875,3.5817,3.5895,3.5973,3.6011,3.6011,3.6011,3.6011,3.6011,3.6011,3.6011,3.6011,3.6011,3.6011,3.6011,3.6011,3.6011,3.6011,3.6011,3.6011,3.6011,3.6011,3.6011,3.6011,3.6011,3.6011,3.6011,3.6011,3.6012,3.6013,3.6018,3.6003,3.6008,3.6012,3.6013,3.6014,3.6015,3.5625,3.5234,3.5019,3.4844,3.4824,3.457,3.4297,3.4121,3.3789,3.3594,3.293,3.2305,3.1894,3.1543,3.1055,3.0742,3.0684,3.0586,3.0371,3.0078,2.9883,2.9863,2.9863,2.9726,2.9629,2.9746,2.9902,3.0156,3.0273,3.041,3.0586,3.082,3.0918,3.0918,3.0918,3.0918,4.0438,4.0504,4.0504,4.0027,3.9204,3.8492,3.7626,3.668,3.6114,3.5801,3.5716,3.5885,3.5964,3.6128,3.6793,3.7164,3.777,3.8824,3.9663,4.0093,4.0738,4.1108,4.1108,4.1108,4.1108,4.1108,4.1108,4.105,4.0464,3.9898,3.9683,3.9488,3.8844,3.8161,3.7672,3.7164,3.6754,3.6168,3.6031,3.568,3.5213,3.568,3.5583,3.5368,3.5582,3.6011,3.6011,3.6011,3.6011,3.6011,3.6011,3.6011,3.6011,3.6011,3.6011,3.6011,3.6011,3.6011,3.6011,3.6011,3.6011,3.6011,3.6011,3.6011,3.6011,3.6011,3.6011,3.6011,3.6011,3.6011,3.6012,3.6018,3.6003,3.6007,3.6011,3.6013,3.6016,3.6016,3.6016,3.5996,3.5605,3.5684,3.5664,3.5723,3.5723,3.543,3.5137,3.4766,3.4355,3.3711,3.2734,3.2207,3.1797,3.1328,3.0918,3.0918,3.0957,3.0957,3.0781,3.0586,3.0488,3.041,3.0586,3.0547,3.0605,3.0566,3.0586,3.0703,3.0879,3.0918,3.0918,3.0918,3.0918,3.0918,3.0937,4.0471,4.0492,4.0492,3.9742,3.8588,3.8165,3.7245,3.6192,3.5789,3.5702,3.5804,3.5898,3.5973,3.6165,3.691,3.7575,3.82,3.9292,4.0093,4.0444,4.0894,4.1108,4.1108,4.1108,4.1108,4.1108,4.1108,4.1108,4.0933,4.0796,4.0542,4.0367,3.9722,3.9175,3.8453,3.7731,3.7203,3.6714,3.6305,3.5836,3.5622,3.5759,3.5837,3.5466,3.5817,3.5973,3.6011,3.6011,3.6011,3.6011,3.6011,3.6011,3.6011,3.6011,3.6011,3.6011,3.6011,3.6011,3.6011,3.6031,3.6011,3.6011,3.6011,3.6011,3.6011,3.6031,3.605,3.6011,3.6011,3.6051,3.6091,3.6019,3.6005,3.6009,3.6071,3.5994,3.5996,3.6016,3.6016,3.6016,3.5996,3.5996,3.5976,3.5937,3.5898,3.5781,3.5625,3.5469,3.5098,3.4648,3.3516,3.2285,3.1934,3.1582,3.1152,3.0918,3.1035,3.1055,3.1035,3.0859,3.084,3.0879,3.1152,3.1074,3.0859,3.0859,3.0976,3.0918,3.0937,3.0918,3.0918,3.1074,3.123,3.1035,3.1191,4.0491,4.0473,4.0304,3.9338,3.8007,3.7792,3.6893,3.5698,3.5622,3.573,3.5872,3.5926,3.5952,3.6281,3.7125,3.8024,3.8611,3.9644,4.0406,4.0933,4.1108,4.1108,4.1108,4.1108,4.1108,4.1108,4.1108,4.1108,4.1108,4.105,4.1011,4.1089,4.0445,3.9956,3.9468,3.8687,3.7906,3.7145,3.6675,3.6265,3.5992,3.5972,3.6011,3.5972,3.6011,3.6011,3.6011,3.6011,3.6011,3.6011,3.6011,3.6011,3.6011,3.6285,3.6441,3.6539,3.6675,3.6891,3.6675,3.6461,3.6109,3.6011,3.6011,3.6011,3.6031,3.6089,3.6324,3.6441,3.6774,3.6735,3.6621,3.6588,3.6437,3.6363,3.617,3.6073,3.6016,3.6133,3.6074,3.5918,3.5898,3.5918,3.5918,3.5957,3.5957,3.5996,3.6016,3.6016,3.5684,3.5234,3.4375,3.3086,3.2637,3.2344,3.2031,3.1641,3.1504,3.1367,3.1367,3.1504,3.1699,3.1777,3.1953,3.1699,3.1387,3.168,3.2109,3.1523,3.0976,3.1289,3.1523,3.1562,3.1562,3.1426,3.1797,4.0491,4.0435,3.9688,3.8865,3.7934,3.7138,3.6376,3.5629,3.5676,3.5783,3.5898,3.5971,3.6007,3.6461,3.7614,3.8473,3.8728,4.0289,4.0875,4.105,4.1108,4.1108,4.1108,4.1108,4.1108,4.1108,4.1108,4.1108,4.1108,4.1108,4.1108,4.105,4.0874,4.0444,4.0015,3.9468,3.8531,3.775,3.7145,3.6695,3.6285,3.607,3.6011,3.6011,3.6011,3.6011,3.6011,3.6109,3.6187,3.6187,3.6344,3.6383,3.6578,3.693,3.7184,3.7321,3.7711,3.7927,3.7809,3.7027,3.6246,3.607,3.6187,3.6383,3.65,3.691,3.7125,3.7242,3.7614,3.8005,3.7933,3.7783,3.7274,3.7076,3.686,3.6664,3.6563,3.6426,3.6309,3.5937,3.5892,3.6047,3.5879,3.5892,3.5902,3.5937,3.5976,3.5976,3.582,3.543,3.5,3.4199,3.3633,3.334,3.3203,3.291,3.2519,3.2441,3.248,3.2695,3.293,3.2949,3.2656,3.2715,3.2539,3.2891,3.2988,3.2266,3.1855,3.2031,3.2168,3.2266,3.2559,3.2734,3.3242,3.9285,3.9696,3.8899,3.8346,3.7995,3.769,3.6833,3.5788,3.576,3.5867,3.5953,3.6007,3.6305,3.7027,3.7946,3.8903,3.9449,4.0523,4.0991,4.1108,4.1108,4.1108,4.1108,4.1108,4.1108,4.1108,4.1108,4.1108,4.1108,4.1108,4.1108,4.1108,4.1108,4.0952,4.0562,4.0054,3.9156,3.8317,3.7614,3.7086,3.6852,3.6226,3.6011,3.6011,3.6011,3.6011,3.6089,3.6578,3.6735,3.693,3.7262,3.7379,3.7438,3.7888,3.8063,3.8122,3.8572,3.8708,3.8689,3.8005,3.7633,3.7594,3.7614,3.7536,3.7419,3.7926,3.8063,3.8239,3.843,3.8777,3.8471,3.8242,3.8009,3.7882,3.7664,3.7374,3.7209,3.7064,3.6892,3.6677,3.6498,3.6463,3.6158,3.5833,3.5847,3.5879,3.5918,3.5918,3.5801,3.5703,3.5312,3.5,3.4473,3.4004,3.3848,3.3652,3.3457,3.3516,3.3594,3.3691,3.3809,3.3379,3.3184,3.3379,3.3535,3.3594,3.3398,3.2871,3.2734,3.293,3.2988,3.3008,3.3398,3.3926,3.4355,3.8537,3.9226,3.8729,3.8463,3.8391,3.8234,3.7536,3.6594,3.6336,3.6133,3.605,3.6246,3.6675,3.7458,3.8512,3.9196,3.9878,4.062,4.0991,4.1108,4.1108,4.1108,4.1108,4.1108,4.1108,4.1108,4.1108,4.1108,4.1108,4.1108,4.1108,4.1108,4.1108,4.1069,4.0933,4.0523,3.9761,3.8961,3.8453,3.7633,3.736,3.6774,3.6168,3.6109,3.6011,3.6246,3.648,3.6969,3.736,3.7731,3.8141,3.8473,3.865,3.8786,3.8922,3.9021,3.9177,3.9294,3.9274,3.8806,3.865,3.8376,3.8434,3.8473,3.8629,3.8797,3.8918,3.8958,3.9129,3.9252,3.9141,3.9096,3.8889,3.8745,3.8256,3.7961,3.797,3.7872,3.7675,3.7488,3.7329,3.7205,3.6915,3.655,3.608,3.6008,3.5848,3.5893,3.5898,3.5801,3.5684,3.543,3.5176,3.4746,3.4375,3.4492,3.4629,3.4687,3.4687,3.4531,3.4453,3.4082,3.4101,3.4531,3.457,3.4258,3.4199,3.4219,3.4023,3.3828,3.3965,3.418,3.4473,3.4941,3.5,3.8545,3.9356,3.9355,3.9335,3.9292,3.8607,3.8268,3.7965,3.7395,3.6799,3.6421,3.6969,3.736,3.7828,3.9078,3.9702,4.0093,4.0757,4.1108,4.1108,4.1108,4.1108,4.1108,4.1108,4.1108,4.1108,4.1108,4.1108,4.1108,4.1108,4.1108,4.1108,4.1108,4.1108,4.1108,4.1089,4.0601,3.9897,3.9702,3.8726,3.7887,3.7418,3.6949,3.6597,3.6461,3.6793,3.7223,3.7613,3.8063,3.8532,3.8844,3.906,3.906,3.9547,3.9761,3.9819,4.0484,4.0816,4.0874,3.947,3.9001,3.8998,3.9191,3.9069,3.895,3.922,3.9711,3.973,4.0153,4.0556,4.0472,4.0153,3.9808,3.9524,3.9031,3.8864,3.8898,3.8898,3.8755,3.8392,3.8238,3.8114,3.781,3.7392,3.6617,3.6213,3.5914,3.5837,3.5889,3.5886,3.5813,3.5762,3.5566,3.5469,3.5234,3.5605,3.5781,3.584,3.5684,3.5371,3.5351,3.5293,3.543,3.5703,3.5508,3.5117,3.5469,3.584,3.5293,3.4805,3.5293,3.5566,3.5801,3.582,3.5762,3.8642,3.9527,3.9578,3.9931,4.0279,3.9586,3.8953,3.8432,3.8169,3.7936,3.7807,3.8083,3.8512,3.9058,3.9468,4.0132,4.0659,4.0796,4.1108,4.1108,4.1108,4.1108,4.1108,4.1108,4.1108,4.1108,4.1108,4.1108,4.1108,4.1108,4.1108,4.1108,4.1108,4.1108,4.1108,4.1108,4.0874,4.0601,4.0132,3.9467,3.8921,3.8434,3.8005,3.7653,3.7575,3.777,3.8161,3.8492,3.8961,3.941,3.9723,4.0055,4.0094,4.0542,4.0581,4.064,4.1069,4.1089,4.1069,4.0465,4.0309,4.0204,4.0071,4.0016,4.0218,4.0278,4.0447,4.0462,4.0656,4.0865,4.0684,4.0599,4.0415,4.0418,4.0164,4.0145,4.0137,4.0095,3.9948,3.9364,3.9056,3.8721,3.8392,3.8199,3.754,3.6842,3.653,3.5973,3.5867,3.5885,3.5861,3.5889,3.5859,3.5937,3.6016,3.6016,3.6016,3.5937,3.5918,3.584,3.5918,3.6016,3.5976,3.5859,3.5937,3.6016,3.6016,3.5996,3.5898,3.5801,3.6055,3.6055,3.5937,3.6055,3.623,3.8743,3.9608,3.968,4.0215,4.0868,4.0421,3.9682,3.9007,3.8972,3.8884,3.8669,3.8845,3.9254,3.9741,4.0171,4.0444,4.1089,4.1108,4.1108,4.1108,4.1108,4.1108,4.1108,4.1108,4.1108,4.1108,4.1108,4.1108,4.1108,4.1108,4.1108,4.1108,4.1108,4.1108,4.1108,4.1089,4.1089,4.0894,4.0503,4.0093,3.9663,3.9254,3.8845,3.8591,3.8533,3.8669,3.9039,3.9488,3.9937,4.0288,4.0699,4.1108,4.1108,4.1108,4.1108,4.1108,4.1108,4.1108,4.1069,4.1009,4.0831,4.0886,4.103,4.0982,4.0931,4.0705,4.0697,4.0745,4.0842,4.0817,4.0785,4.0776,4.0804,4.078,4.0761,4.0706,4.0687,4.0612,4.0535,4.0007,3.981,3.942,3.9108,3.8801,3.8479,3.7799,3.7161,3.6569,3.5999,3.6028,3.6054,3.6034,3.6025,3.6016,3.6035,3.6016,3.6016,3.6016,3.6016,3.6016,3.6016,3.6016,3.6016,3.6016,3.6016,3.6016,3.6016,3.5976,3.6016,3.6152,3.6367,3.6289,3.6074,3.6348,3.6738,3.8942,3.9698,3.9742,4.0296,4.1008,4.1007,4.054,3.9857,3.9858,3.943,3.8806,3.9624,3.9937,4.0054,4.0718,4.103,4.1089,4.1108,4.1108,4.1108,4.1108,4.1108,4.1108,4.1108,4.1108,4.1108,4.1108,4.1108,4.1108,4.1108,4.1108,4.1108,4.1108,4.1108,4.1108,4.1108,4.1108,4.103,4.0933,4.0542,4.0151,3.9937,3.9586,3.9313,3.9157,3.941,3.9703,4.0034,4.0405,4.0757,4.1089,4.1108,4.1108,4.1108,4.1108,4.1108,4.1108,4.1108,4.1076,4.1024,4.0964,4.0954,4.0967,4.0916,4.0834,4.0749,4.0729,4.0711,4.0727,4.0736,4.0726,4.0771,4.0812,4.0797,4.0797,4.0777,4.0777,4.0758,4.0758,4.06,4.0581,4.0368,4.0213,3.9904,3.9304,3.8794,3.8117,3.7449,3.6906,3.6497,3.6457,3.6252,3.6208,3.6065,3.6055,3.6094,3.6016,3.6016,3.6016,3.6016,3.6016,3.6055,3.6016,3.6016,3.6016,3.6094,3.6348,3.6387,3.6289,3.6523,3.707,3.6797,3.666,3.7109,3.748,4.0404,4.0704,4.0685,4.0848,4.1069,4.1108,4.0933,4.0738,4.0718,4.0542,4.0387,4.062,4.064,4.0757,4.0991,4.1089,4.1108,4.1108,4.1108,4.1108,4.1108,4.1108,4.1108,4.1108,4.1108,4.1108,4.1108,4.1108,4.1108,4.1108,4.1108,4.1108,4.1108,4.1108,4.1108,4.1108,4.1108,4.1108,4.1108,4.0913,4.0738,4.062,4.0386,4.025,4.0152,4.0386,4.0523,4.064,4.0913,4.1011,4.1108,4.1108,4.1108,4.1108,4.1108,4.1108,4.1087,4.108,4.1028,4.1001,4.0931,4.0832,4.0797,4.0776,4.0711,4.0681,4.0648,4.0662,4.0701,4.072,4.0746,4.0784,4.0794,4.0794,4.0794,4.0794,4.0794,4.0794,4.0794,4.0794,4.0794,4.0794,4.0697,4.06,4.002,3.9636,3.9142,3.8482,3.7826,3.739,3.7038,3.6839,3.6778,3.6757,3.6328,3.623,3.6094,3.6016,3.623,3.6367,3.6348,3.6328,3.6113,3.6133,3.6348,3.6621,3.6934,3.6953,3.6992,3.7617,3.8105,3.7637,3.7383,3.7891,3.8359,4.0539,4.0619,4.0972,4.1108,4.1108,4.1108,4.1108,4.1108,4.1108,4.1108,4.1108,4.1089,4.1108,4.1069,4.1089,4.1108,4.1108,4.1108,4.1108,4.1108,4.1108,4.1108,4.1108,4.1108,4.1108,4.1108,4.1108,4.1108,4.1108,4.1108,4.1108,4.1108,4.1108,4.1108,4.1108,4.1108,4.1108,4.1108,4.1108,4.1108,4.1108,4.1108,4.1108,4.1108,4.1108,4.1108,4.1108,4.1108,4.1108,4.1108,4.1108,4.1108,4.1108,4.1108,4.1108,4.1106,4.1068,4.1052,4.0995,4.0923,4.0815,4.0714,4.0659,4.0658,4.0655,4.064,4.0644,4.0661,4.0707,4.0749,4.0784,4.0794,4.0794,4.0794,4.0794,4.0794,4.0794,4.0794,4.0794,4.0794,4.0794,4.0794,4.0794,4.0794,4.0736,4.0332,4.012,3.9835,3.9054,3.8341,3.7957,3.7656,3.7615,3.7578,3.7109,3.6816,3.6973,3.7129,3.7344,3.7363,3.7012,3.7051,3.7246,3.707,3.6816,3.7207,3.7656,3.7793,3.7949,3.8555,3.9023,3.8828,3.8633,3.8848,3.9297,3.9722,3.978,4.062,4.1011,4.1108,4.1108,4.1108,4.1108,4.1108,4.1108,4.1108,4.1108,4.1108,4.1108,4.1108,4.1108,4.1108,4.1108,4.1108,4.1108,4.1108,4.1108,4.1108,4.1108,4.1108,4.1108,4.1108,4.1108,4.1108,4.1108,4.1108,4.1108,4.1108,4.1108,4.1108,4.1108,4.1108,4.1108,4.1108,4.1108,4.1108,4.1108,4.1108,4.1108,4.1108,4.1108,4.1108,4.1108,4.1108,4.1108,4.1108,4.1108,4.1108,4.1108,4.1108,4.1097,4.1053,4.0977,4.0927,4.0832,4.0748,4.0675,4.063,4.0766,4.084,4.0688,4.067,4.0687,4.0736,4.0759,4.079,4.0794,4.0794,4.0794,4.0794,4.0794,4.0794,4.0794,4.0794,4.0794,4.0794,4.0794,4.0794,4.0794,4.0794,4.0697,4.0661,4.0584,4.02,3.9316,3.8901,3.8531,3.8489,3.8437,3.8125,3.7949,3.8203,3.8379,3.8398,3.8262,3.7871,3.8105,3.8516,3.8086,3.7598,3.8027,3.8398,3.8574,3.8848,3.9277,3.9687,3.9922,3.9961,3.9902,4.0059,3.8903,3.8982,3.978,4.0464,4.105,4.1108,4.1089,4.1108,4.1108,4.1069,4.1108,4.1089,4.1108,4.1108,4.1108,4.1108,4.1108,4.1108,4.1108,4.1108,4.1108,4.1108,4.1108,4.1108,4.1108,4.1108,4.1108,4.1108,4.1108,4.1108,4.1108,4.1108,4.1108,4.1108,4.1108,4.1108,4.1108,4.1108,4.1108,4.1108,4.1108,4.1108,4.1108,4.1108,4.1108,4.1108,4.1108,4.1108,4.1108,4.1108,4.1108,4.1108,4.1108,4.1147,4.1147,4.1102,4.1234,4.1199,4.1118,4.1064,4.099,4.0777,4.0788,4.1099,4.1156,4.0879,4.0771,4.0826,4.0858,4.0916,4.0871,4.0871,4.0813,4.0813,4.0871,4.0871,4.0871,4.0871,4.0871,4.0794,4.0794,4.0794,4.0794,4.0794,4.0794,4.0794,4.0774,4.0736,4.0716,4.0193,3.9825,3.9523,3.9419,3.9297,3.9043,3.8984,3.918,3.9043,3.8926,3.8809,3.873,3.8789,3.8906,3.8672,3.8476,3.8867,3.9219,3.9492,3.9785,4.0098,4.0293,4.0508,4.0664,4.0664,4.0781,3.8024,3.8161,3.9312,4.0073,4.0483,4.0522,4.0523,4.0523,4.0523,4.0522,4.062,4.0894,4.1108,4.1108,4.1108,4.1108,4.1108,4.1108,4.1108,4.1108,4.1108,4.1108,4.1108,4.1108,4.1108,4.1108,4.1108,4.1108,4.1108,4.1108,4.1108,4.1108,4.1108,4.1108,4.1108,4.1108,4.1147,4.1108,4.1167,4.1206,4.1187,4.1147,4.1108,4.1108,4.1108,4.1108,4.1108,4.1108,4.1108,4.1304,4.1479,4.1714,4.1889,4.2182,4.2269,4.224,4.2187,4.1989,4.1848,4.1696,4.161,4.1532,4.1655,4.2239,4.2333,4.2133,4.2131,4.2186,4.2186,4.2222,4.1641,4.149,4.1122,4.0948,4.1277,4.149,4.149,4.149,4.12,4.0794,4.0794,4.0794,4.0794,4.0794,4.0794,4.0794,4.0794,4.0794,4.0794,4.0806,4.0524,4.0361,4.0167,4.0219,4.0156,4.0078,4.0078,3.9863,3.9551,3.9805,3.9922,3.9473,3.9199,3.9355,3.9512,3.9687,4.0019,4.0254,4.0508,4.0762,4.0937,4.1094,4.1211,4.1269,4.1406,3.7223,3.7516,3.8863,3.9545,3.9644,3.9663,3.9644,3.9644,3.9663,3.9721,3.9956,4.0601,4.0933,4.1089,4.1108,4.1108,4.1108,4.1108,4.1108,4.1108,4.1108,4.1108,4.1108,4.1108,4.1108,4.1108,4.1108,4.1108,4.1108,4.1108,4.1108,4.1108,4.1108,4.1108,4.1128,4.1265,4.1401,4.1518,4.1596,4.1577,4.1421,4.1187,4.1128,4.1108,4.1108,4.1108,4.1108,4.1108,4.1108,4.1635,4.2104,4.2436,4.269,4.302,4.3189,4.3192,4.3058,4.2991,4.2976,4.2794,4.2857,4.2953,4.3177,4.3256,4.3296,4.3394,4.3391,4.3495,4.3498,4.3034,4.2473,4.2106,4.1683,4.1471,4.1893,4.2183,4.2183,4.2086,4.1548,4.1026,4.091,4.091,4.0832,4.0832,4.0794,4.0794,4.0794,4.0794,4.08,4.0821,4.0696,4.0684,4.0654,4.0769,4.0936,4.084,4.0664,4.0684,4.0488,4.0898,4.1035,4.043,4.0234,4.0586,4.0723,4.0527,4.0644,4.0859,4.1133,4.1269,4.1191,4.1211,4.1308,4.1445,4.1797,3.6675,3.734,3.7672,3.818,3.8766,3.8825,3.8825,3.8825,3.8844,3.9176,3.9644,3.9917,4.0366,4.1089,4.1108,4.1108,4.1108,4.1108,4.1108,4.1108,4.1108,4.1108,4.1108,4.1108,4.1108,4.1108,4.1108,4.1128,4.1343,4.1265,4.1187,4.1304,4.1226,4.1246,4.1304,4.1616,4.2181,4.228,4.267,4.2885,4.2572,4.2124,4.1206,4.1108,4.1108,4.1108,4.1108,4.1108,4.1538,4.2181,4.2923,4.3333,4.3587,4.3779,4.3929,4.3943,4.3821,4.369,4.3636,4.354,4.3578,4.3508,4.3636,4.3822,4.3986,4.429,4.442,4.4736,4.4507,4.3653,4.3131,4.3073,4.2802,4.2802,4.3053,4.3073,4.3073,4.2628,4.209,4.1625,4.1277,4.1142,4.0948,4.091,4.0794,4.0794,4.0794,4.0794,4.0794,4.0824,4.0856,4.0917,4.0986,4.107,4.1113,4.1113,4.1016,4.1152,4.1191,4.1191,4.1191,4.1172,4.1152,4.1113,4.1133,4.0996,4.1172,4.1308,4.1367,4.1406,4.1269,4.123,4.1426,4.1816,4.2383]}]]